     2              OBSERVATION DATA    GPS                 RINEX VERSION / TYPE
teqc 2000Feb29 simon 20000628 00:51:31UTC                   PGM / RUN BY / DATE
                                                            COMMENT
L2: 1 -> 1; 150 -> 5; 250 -> 9                              COMMENT
L2: 1 -> 1; 150 -> 5; 250 -> 9                              COMMENT
L2: 1 -> 1; 150 -> 5; 250 -> 9                              COMMENT
L2: 1 -> 1; 150 -> 5; 250 -> 9                              COMMENT
L2: 1 -> 1; 150 -> 5; 250 -> 9                              COMMENT
Original Marker Name: GS49                                  COMMENT
Campaign Name: China Lake April 2000                        COMMENT
4-Character Station Name: GS49                              COMMENT
6-Character Antenna Code: ASHGD3                            COMMENT
Vertical Measurement Point: TGP                             COMMENT
Vertical Offset to Rinex Ref. Point: 0.0640                 COMMENT
Radial Measurement Point: OOH                               COMMENT
Radial Offset to Rinex Ref. Point: 0.1737                   COMMENT
Antenna Height from Field Measurement: 1.2840 m             COMMENT
Additional Antenna Identification Info.:                    COMMENT
The Whopper (700718AB)                                      COMMENT
Original XYZ: -2377714.4400 -4633404.9800 3672652.9900      COMMENT
New XYZ position is based on association with SCEC monument COMMENT
E1F4B7S3+0011. Position of that monument is believed to be  COMMENT
valid to within 1 m horizontally; vertical accuracy         COMMENT
should be no worse than 3-times this value.                 COMMENT
                                                            COMMENT
Revised Rinex header created by UCSD GPS archive for        COMMENT
GSAC on 14-Sep-2001 (2001:257) 20:06:36 GMT                 COMMENT
For assistance contact dagnew@ucsd.edu                      COMMENT
or anderson@python.ucsd.edu                                 COMMENT
                                                            COMMENT
NONE                                                        MARKER NAME
gs49                                                        MARKER NUMBER
HEM US NATIONAL IMAGERY MAPPING AGENCY                      OBSERVER / AGENCY
481 ASHTECH Z-XII3 4J30                                     REC # / TYPE / VERS
015 ASHTECH GEODETIC III                                    ANT # / TYPE
 -2377249.5749 -4633040.4122  3672477.2136                  APPROX POSITION XYZ
        1.2082        0.0000        0.0000                  ANTENNA: DELTA H/E/N
     1     1     0                                          WAVELENGTH FACT L1/2
     7    L1    L2    C1    P1    P2    S1    S2            # / TYPES OF OBSERV
    30                                                      INTERVAL
  2000     5     9    15     6   30.000000                  TIME OF FIRST OBS
  2000     5     9    21    29   60.000000                  TIME OF LAST OBS
                                                            END OF HEADER
 00  5  9 15  6 30.0000000  0  6G26G24G 2G 4G 7G 9
     40508.98649     24844.72746  20879231.203    20879231.856    20879242.299
       226.000         177.000
    -72436.40853                  21443110.217
       210.000          74.000
       132.69749        92.14047  18847677.350    18847677.903    18847686.630
       238.000         206.000
   -126823.80949    -60242.31647  18929105.881    18929105.728    18929114.601
       236.000         192.000
      2740.39559      1897.95657  17998900.843    17998900.649    17998908.571
       237.000         207.000
    -21298.85247                  19497510.973                    19497519.458
       234.000         195.000
 00  5  9 15  7 29.9990000  0  6G26G24G 2G 4G 7G 9
    115112.37349     82976.95346  23591560.384    23591560.511    23591570.569
       224.000         172.000
   -434484.33649   -290997.76345  24087867.841    24087867.951    24087881.081
       211.000         152.000
      1124.38749       864.73447  21545999.177    21545998.869    21546007.626
       239.000         206.000
   -359025.31349   -241178.52347  21583051.226    21583051.210    21583060.473
       235.000         193.000
      8229.95149      6175.44447  20698077.956    20698077.388    20698085.302
       237.000         209.000
   -258913.02949   -182915.46447  22156174.362    22156174.397    22156182.688
       235.000         195.000
 00  5  9 15  7 59.9990000  0  7G26G24G 2G 4G 7G 8G 9
    152750.98349    112305.62046  23598722.835    23598722.884    23598732.794
       223.000         171.000
   -574745.55359   -400292.19255  24061177.058    24061177.397    24061190.640
       212.000         151.000
      1960.94149      1516.51647  21546158.492    21546158.099    21546166.876
       238.000         205.000
   -474611.00749   -331245.28647  21561055.963    21561055.992    21561065.276
       235.000         194.000
     11393.29849      8640.35147  20698680.014    20698679.420    20698687.400
       238.000         209.000
    226630.80159    158241.19055  24171970.384    24171970.793    24171983.584
       208.000         154.000
   -362081.40749   -263306.39447  22136542.234    22136542.144    22136550.492
       235.000         195.000
 00  5  9 15  8 29.9990000  0  7G26G24G 2G 4G 7G 8G 9
    190577.25149    141780.47346  23605920.928    23605920.983    23605930.928
       224.000         173.000
   -715028.12849   -509603.30745  24034482.290    24034482.305    24034495.158
       213.000         152.000
      2996.66249      2323.49447  21546355.668    21546355.189    21546364.007
       238.000         204.000
   -589865.54749   -421054.01347  21539123.784    21539123.822    21539133.094
       235.000         193.000
     14804.35949     11298.28047  20699329.234    20699328.596    20699336.608
       238.000         210.000
    309245.09759    222615.76255  24187691.586    24187691.675    24187704.614
       209.000         154.000
   -464907.00549   -343430.20647  22116975.185    22116975.060    22116983.473
       234.000         195.000
 00  5  9 15  8 59.9990000  0  7G26G24G 2G 4G 7G 8G 9
    228598.55249    171407.33746  23613156.313    23613156.283    23613166.169
       222.000         170.000
   -855319.04049   -618920.91345  24007785.866    24007785.925    24007798.721
       213.000         152.000
      4242.41949      3294.13547  21546592.809    21546592.285    21546601.097
       238.000         204.000
   -704775.66949   -510594.36047  21517257.094    21517257.145    21517266.407
       235.000         194.000
     18471.70849     14155.90947  20700027.218    20700026.538    20700034.545
       238.000         210.000
    391933.64449    287048.24745  24203426.833    24203426.670    24203438.883
       209.000         152.000
   -567377.22849   -423277.10847  22097475.799    22097475.624    22097484.046
       234.000         196.000
 00  5  9 15  9 29.9990000  0  7G26G24G 2G 4G 7G 8G 9
    266815.51049    201186.63446  23620428.816    23620428.752    23620438.748
       221.000         171.000
   -995612.15149   -728240.22945  23981089.241    23981089.190    23981101.874
       213.000         153.000
      5702.37849      4431.70047  21546870.739    21546870.135    21546878.943
       238.000         204.000
   -819334.84849   -599861.23847  21495457.164    21495457.246    21495466.529
       234.000         193.000
     22397.43449     17214.87147  20700774.335    20700773.622    20700781.614
       238.000         210.000
    474698.17149    351539.83645  24219176.600    24219176.201    24219189.122
       212.000         151.000
   -669486.24349   -502842.56147  22078045.135    22078044.954    22078053.371
       235.000         196.000
 00  5  9 15  9 59.9990000  0  7G26G24G 2G 4G 7G 8G 9
    305242.48349    231129.60346  23627741.243    23627741.221    23627751.199
       224.000         170.000
  -1135887.72449   -837545.88345  23954395.714    23954395.616    23954408.241
       212.000         151.000
      7394.26549      5749.98747  21547192.783    21547192.126    21547200.941
       238.000         203.000
   -933523.14949   -688839.11047  21473727.814    21473727.936    21473737.212
       235.000         193.000
     26597.05949     20487.26047  20701573.566    20701572.830    20701580.799
       238.000         209.000
    557553.44949    416102.19345  24234943.675    24234943.098    24234956.065
       210.000         150.000
   -771214.69349   -582111.46047  22058686.833    22058686.671    22058695.080
       234.000         195.000
 00  5  9 15 10 29.9990000  0  7G26G24G 2G 4G 7G 8G 9
    343873.01349    261231.17646  23635092.489    23635092.424    23635102.475
       223.000         172.000
  -1276146.12849   -946838.15745  23927705.546    23927705.409    23927717.957
       212.000         151.000
      9315.62949      7247.07747  21547558.510    21547557.802    21547566.588
       238.000         203.000
  -1047340.73249   -777528.10447  21452069.105    21452069.169    21452078.422
       236.000         194.000
     31065.68049     23969.25547  20702424.025    20702423.247    20702431.160
       238.000         209.000
    640493.92649    480730.96845  24250726.810    24250726.255    24250738.947
       209.000         148.000
   -872563.38549   -661084.43847  22039400.796    22039400.630    22039409.065
       233.000         194.000
 00  5  9 15 10 59.9990000  0  7G26G24G 2G 4G 7G 8G 9
    382724.50049    291504.93246  23642486.026    23642485.778    23642495.803
       225.000         171.000
  -1416364.48649  -1056099.21245  23901022.804    23901022.735    23901035.261
       211.000         151.000
     11487.14349      8939.10047  21547971.802    21547971.062    21547979.825
       238.000         202.000
  -1160764.66349   -865910.34347  21430485.347    21430485.372    21430494.552
       237.000         195.000
     35821.90049     27675.36147  20703329.197    20703328.385    20703336.243
       239.000         209.000
    723537.69849    545440.17545  24266529.576    24266529.026    24266541.956
       205.000         147.000
   -973509.77549   -739743.93847  22020191.370    22020191.186    22020199.600
       235.000         195.000
 00  5  9 15 11 29.9990000  0  7G26G24G 2G 4G 7G 8G 9
    421787.81949    321943.72046  23649919.585    23649919.346    23649929.437
       223.000         173.000
  -1556546.54749  -1165331.99545  23874347.080    23874346.965    23874359.487
       210.000         151.000
     13903.09349     10821.58247  21548431.655    21548430.868    21548439.567
       237.000         202.000
  -1273798.51949   -953988.62347  21408975.746    21408975.766    21408984.912
       236.000         195.000
     40857.74149     31599.35747  20704287.573    20704286.740    20704294.575
       239.000         209.000
    806676.22949    610223.28945  24282350.414    24282349.828    24282362.675
       205.000         147.000
  -1074058.31049   -818093.41847  22001057.657    22001057.429    22001065.839
       234.000         195.000
 00  5  9 15 11 59.9990000  0  8G26G24G 2G 4G 5G 7G 8G 9
    461067.81949    352551.35646  23657394.555    23657394.252    23657404.336
       222.000         168.000
  -1696681.62849  -1274528.12645  23847680.114    23847680.076    23847692.713
       214.000         149.000
     16572.03249     12901.20547  21548939.610    21548938.810    21548947.489
       237.000         202.000
  -1386431.11349  -1041754.21647  21387542.386    21387542.482    21387551.651
       236.000         195.000
   -923544.27659   -703931.12755  24988900.077    24988899.332    24988911.646
       208.000         143.000
     46179.59349     35746.21547  20705300.387    20705299.522    20705307.319
       239.000         209.000
    889915.43949    675084.72245  24298190.427    24298189.747    24298202.856
       208.000         141.000
  -1174198.26049   -896124.52847  21982001.672    21982001.427    21982009.806
       234.000         195.000
 00  5  9 15 12 29.9990000  0  8G26G24G 2G 4G 5G 7G 8G 9
    500571.20649    383333.07346  23664911.930    23664911.642    23664921.646
       225.000         173.000
  -1836757.64649  -1383678.24045  23821024.684    23821024.497    23821037.177
       215.000         152.000
     19504.15649     15185.90647  21549497.633    21549496.826    21549505.523
       237.000         202.000
  -1498650.31949  -1129197.68447  21366187.769    21366187.867    21366197.064
       236.000         195.000
  -1038597.97549   -793583.42145  24967006.195    24967005.425    24967017.799
       207.000         138.000
     51795.41049     40122.13047  20706369.080    20706368.225    20706376.005
       239.000         209.000
    973262.42349    740030.27945  24314050.791    24314050.325    24314063.367
       202.000         147.000
  -1273917.91949   -973828.12947  21963025.653    21963025.431    21963033.791
       235.000         195.000
 00  5  9 15 12 59.9990000  0  8G26G24G 2G 4G 5G 7G 8G 9
    540302.23249    414292.16946  23672472.707    23672472.348    23672482.393
       221.000         170.000
  -1976764.41349  -1492774.40845  23794382.504    23794382.165    23794394.689
       214.000         153.000
     22707.15449     17681.66747  21550107.201    21550106.380    21550115.098
       237.000         202.000
  -1610446.02549  -1216311.15347  21344913.698    21344913.826    21344923.071
       236.000         195.000
  -1153659.36949   -883241.66345  24945110.925    24945110.126    24945122.325
       208.000         141.000
     57710.92849     44731.57647  20707494.835    20707493.962    20707501.731
       239.000         209.000
   1056722.51549    805063.92145  24329933.178    24329932.479    24329945.359
       208.000         144.000
  -1373207.89349  -1051196.91147  21944131.466    21944131.196    21944139.549
       236.000         195.000
 00  5  9 15 13 29.9990000  0  8G26G24G 2G 4G 5G 7G 8G 9
    580267.81449    445434.05346  23680077.804    23680077.593    23680087.712
       224.000         169.000
  -2116689.50349  -1601806.92745  23767755.730    23767755.369    23767767.841
       216.000         153.000
     26191.50449     20396.65347  21550770.363    21550769.493    21550778.234
       237.000         202.000
  -1721805.64649  -1303084.79547  21323722.666    21323722.756    21323732.030
       236.000         195.000
  -1268718.50449   -972898.22245  24923215.867    24923215.138    24923227.260
       209.000         144.000
     63934.15149     49580.79247  20708679.143    20708678.257    20708686.029
       239.000         209.000
   1140303.16949    870191.48245  24345838.242    24345837.453    24345850.444
       207.000         148.000
  -1472056.12049  -1128221.47847  21925321.333    21925321.032    21925329.368
       236.000         196.000
 00  5  9 15 13 59.9990000  0  8G26G24G 2G 4G 5G 7G 8G 9
    620469.20349    476759.64646  23687727.957    23687727.764    23687737.967
       223.000         171.000
  -2256525.98149  -1710770.37245  23741145.779    23741145.427    23741157.878
       213.000         153.000
     29962.21549     23334.78647  21551487.977    21551487.087    21551495.925
       237.000         203.000
  -1832721.83849  -1389512.90947  21302616.000    21302616.098    21302625.346
       236.000         195.000
  -1383770.74749  -1062549.29645  24901322.240    24901321.476    24901333.498
       212.000         146.000
     70467.82449     54671.91447  20709922.465    20709921.612    20709929.406
       238.000         209.000
   1224006.43649    935414.54345  24361766.696    24361765.804    24361778.874
       207.000         141.000
  -1570455.98849  -1204896.67347  21906596.523    21906596.172    21906604.526
       236.000         197.000
 00  5  9 15 14 29.9990000  0  8G26G24G 2G 4G 5G 7G 8G 9
    660791.30049    508179.32446  23695401.102    23695400.900    23695411.015
       222.000         170.000
  -2396383.33249  -1819750.10945  23714531.810    23714531.515    23714543.893
       210.000         156.000
     33907.47649     26408.91647  21552238.875    21552237.937    21552246.835
       238.000         203.000
  -1943304.51549  -1475681.14447  21281572.807    21281572.897    21281582.103
       236.000         196.000
  -1498928.25149  -1152282.42345  24879408.573    24879407.763    24879419.810
       212.000         146.000
     77197.99249     59916.14747  20711203.251    20711202.367    20711210.153
       239.000         209.000
   1307717.73349   1000643.98545  24377696.783    24377695.754    24377708.558
       209.000         146.000
  -1668517.65549  -1281308.33147  21887936.043    21887935.678    21887944.004
       236.000         197.000
 00  5  9 15 14 59.9990000  0  8G26G24G 2G 4G 5G 7G 8G 9
    701295.95849    539741.23046  23703109.025    23703108.812    23703118.993
       223.000         171.000
  -2536194.17649  -1928693.59145  23687926.690    23687926.393    23687938.757
       209.000         155.000
     38092.94549     29670.23147  21553035.492    21553034.511    21553043.410
       237.000         203.000
  -2053485.60849  -1561536.45047  21260606.029    21260606.107    21260615.295
       236.000         196.000
  -1614125.73749  -1242046.74445  24857487.289    24857486.438    24857498.460
       212.000         141.000
     84188.15849     65362.98347  20712533.481    20712532.595    20712540.401
       239.000         209.000
   1391499.96949   1065928.59745  24393640.329    24393639.263    24393652.088
       204.000         139.000
  -1766173.88349  -1357404.06647  21869352.697    21869352.340    21869360.619
       237.000         197.000
 00  5  9 15 15 29.9990000  0  8G26G24G 2G 4G 5G 7G 8G 9
    741973.82349    571438.14446  23710850.039    23710849.692    23710859.908
       223.000         169.000
  -2675961.98749  -2037603.51645  23661329.773    23661329.492    23661341.893
       213.000         155.000
     42512.75049     33114.15847  21553876.641    21553875.666    21553884.592
       237.000         202.000
  -2163269.03449  -1647081.89147  21239714.859    21239714.988    21239724.205
       236.000         197.000
  -1729369.25549  -1331846.90845  24835557.295    24835556.398    24835568.395
       219.000         151.000
     91430.23049     71006.09947  20713911.647    20713910.754    20713918.592
       239.000         209.000
   1475344.49649   1131261.83345  24409595.566    24409594.490    24409607.187
       208.000         147.000
  -1863428.84349  -1433187.13947  21850845.723    21850845.339    21850853.560
       238.000         197.000
 00  5  9 15 15 59.9990000  0  8G26G24G 2G 4G 5G 7G 8G 9
    782808.75049    603257.39546  23718620.902    23718620.478    23718630.717
       226.000         172.000
  -2815697.28849  -2146488.11745  23634739.085    23634738.698    23634751.116
       213.000         155.000
     47154.34549     36730.90547  21554760.021    21554759.022    21554767.971
       237.000         202.000
  -2272665.18549  -1732325.54747  21218897.433    21218897.570    21218906.818
       237.000         197.000
  -1844671.72849  -1421693.04645  24813616.012    24813615.221    24813627.032
       211.000         140.000
     98909.44949     76834.01347  20715334.962    20715334.059    20715341.888
       240.000         209.000
   1559235.94649   1196631.57145  24425559.585    24425558.579    24425571.250
       204.000         136.000
  -1960293.70249  -1508666.22747  21832412.921    21832412.573    21832420.792
       237.000         197.000
 00  5  9 15 16 29.9990000  0  8G26G24G 2G 4G 5G 7G 8G 9
    823836.31949    635226.78146  23726428.349    23726427.909    23726438.165
       224.000         170.000
  -2955358.82449  -2255315.24745  23608162.225    23608161.977    23608174.430
       214.000         155.000
     52056.75249     40550.88347  21555692.981    21555692.001    21555700.958
       237.000         202.000
  -2381632.77849  -1817235.27847  21198161.574    21198161.720    21198170.970
       237.000         198.000
  -1959994.31349  -1511554.81245  24791670.994    24791670.110    24791681.908
       207.000         144.000
    106662.55949     82875.35547  20716810.454    20716809.515    20716817.300
       240.000         210.000
   1643210.34049   1262065.95445  24441539.708    24441538.604    24441551.248
       205.000         143.000
  -2056727.75749  -1583809.62247  21814062.146    21814061.805    21814070.011
       237.000         199.000
 00  5  9 15 16 59.9990000  0  8G26G24G 2G 4G 5G 7G 8G 9
    865042.54349    667335.37246  23734269.752    23734269.336    23734279.550
       223.000         169.000
  -3094954.94949  -2364091.40145  23581597.994    23581597.673    23581610.245
       213.000         156.000
     57209.47249     44565.89847  21556673.562    21556672.614    21556681.568
       237.000         202.000
  -2490179.81649  -1901817.31147  21177505.755    21177505.875    21177515.163
       237.000         198.000
  -2075347.67749  -1601440.47345  24769720.016    24769719.067    24769730.932
       202.000         139.000
    114677.10149     89120.40347  20718335.701    20718334.716    20718342.444
       240.000         210.000
   1727254.91849   1327555.03345  24457532.658    24457531.717    24457544.523
       204.000         137.000
  -2152739.71249  -1658624.11647  21795791.679    21795791.344    21795799.563
       238.000         199.000
 00  5  9 15 17 29.9990000  0  8G26G24G 2G 4G 5G 7G 8G 9
    906429.74349    699584.96746  23742145.538    23742145.165    23742155.413
       225.000         170.000
  -3234477.65749  -2472810.35745  23555047.626    23555047.354    23555060.004
       214.000         156.000
     62618.37249     48780.51647  21557702.949    21557701.975    21557710.965
       237.000         203.000
  -2598298.61149  -1986065.64647  21156931.428    21156931.527    21156940.831
       237.000         197.000
  -2190725.93849  -1691345.71745  24747764.223    24747763.279    24747775.210
       205.000         135.000
    122956.59249     95571.90547  20719911.325    20719910.327    20719918.046
       240.000         210.000
   1811372.43549   1393100.87145  24473539.962    24473539.013    24473551.856
       195.000         138.000
  -2248322.22649  -1733103.96747  21777602.941    21777602.610    21777610.831
       237.000         200.000
 00  5  9 15 17 59.9990000  0  8G26G24G 2G 4G 5G 7G 8G 9
    947990.07449    731969.49046  23750054.484    23750054.022    23750064.253
       224.000         169.000
  -3373929.07749  -2581473.75445  23528510.830    23528510.588    23528523.394
       215.000         159.000
     68279.36849     53191.58247  21558780.349    21558779.337    21558788.360
       237.000         203.000
  -2705991.05249  -2069981.76347  21136438.182    21136438.300    21136447.593
       237.000         197.000
  -2306133.88349  -1781273.91145  24725803.065    24725802.011    24725813.674
       206.000         134.000
    131494.69649    102224.92347  20721536.155    20721535.137    20721542.880
       240.000         211.000
   1895555.91149   1458698.26845  24489559.585    24489558.720    24489571.240
       210.000         148.000
  -2343477.92549  -1807251.23847  21759495.386    21759495.079    21759503.334
       238.000         200.000
 00  5  9 15 18 29.9990000  0  8G26G24G 2G 4G 5G 7G 8G 9
    989728.36749    764492.65746  23757997.144    23757996.701    23758006.952
       224.000         170.000
  -3513298.86249  -2690073.55145  23501989.653    23501989.385    23502002.273
       214.000         158.000
     74200.68149     57805.50247  21559907.227    21559906.210    21559915.302
       236.000         202.000
  -2813246.90249  -2153557.68447  21116028.038    21116028.155    21116037.419
       238.000         198.000
  -2421563.58549  -1871219.20145  24703837.503    24703836.516    24703848.123
       209.000         138.000
    140297.69249    109084.34447  20723211.324    20723210.337    20723218.144
       240.000         211.000
   1979811.08749   1524351.25045  24505592.958    24505592.071    24505605.003
       208.000         138.000
  -2438196.82649  -1881058.16347  21741471.004    21741470.670    21741478.936
       239.000         200.000
 00  5  9 15 18 59.9990000  0  8G26G24G 2G 4G 5G 7G 8G 9
   1031656.64749    797163.87746  23765975.878    23765975.518    23765985.764
       221.000         168.000
  -3652568.98749  -2798595.68945  23475487.266    23475487.122    23475500.088
       214.000         158.000
     80397.89449     62634.42347  21561086.507    21561085.543    21561094.724
       236.000         202.000
  -2920048.42649  -2236779.58447  21095704.438    21095704.493    21095713.692
       238.000         198.000
  -2536999.54948  -1961169.21044  24681870.697    24681869.755    24681881.455
       194.000         116.000
    149378.71849    116160.41847  20724939.423    20724938.452    20724946.299
       240.000         211.000
   2064150.64949   1590070.35445  24521642.626    24521641.580    24521653.832
       200.000         140.000
  -2532461.70249  -1954511.29247  21723532.968    21723532.655    21723540.927
       239.000         200.000
 00  5  9 15 19 29.9990000  0  8G26G24G 2G 4G 5G 7G 8G 9
   1073747.47649    829961.77446  23773985.666    23773985.295    23773995.611
       222.000         170.000
  -3791761.53049  -2907057.36045  23448999.642    23448999.556    23449012.761
       215.000         158.000
     86847.05449     67659.64847  21562313.799    21562312.850    21562322.074
       236.000         202.000
  -3026417.36049  -2319664.41147  21075463.092    21075463.145    21075472.303
       238.000         198.000
  -2652465.66249  -2051142.96245  24659898.186    24659897.096    24659908.757
       207.000         138.000
    158711.91249    123432.98347  20726715.524    20726714.563    20726722.436
       240.000         211.000
   2148547.76649   1655834.01745  24537703.187    24537702.058    24537714.693
       199.000         133.000
  -2626294.96949  -2027628.11247  21705677.111    21705676.788    21705685.069
       238.000         200.000
 00  5  9 15 19 59.9990000  0  8G26G24G 2G 4G 5G 7G 8G 9
   1116003.57349    862888.44746  23782026.886    23782026.517    23782036.814
       222.000         168.000
  -3930867.96149  -3015451.92445  23422528.586    23422528.497    23422541.794
       215.000         159.000
     93554.31649     72885.99247  21563590.256    21563589.288    21563598.504
       236.000         201.000
  -3132345.29549  -2402205.60847  21055305.710    21055305.726    21055314.782
       239.000         198.000
  -2767956.09049  -2141135.42945  24637921.177    24637920.085    24637931.686
       214.000         139.000
    168301.24549    130905.14047  20728540.371    20728539.411    20728547.288
       241.000         211.000
   2233005.90649   1721645.40545  24553774.991    24553773.973    24553786.483
       204.000         146.000
  -2719688.67649  -2100402.41147  21687904.883    21687904.560    21687912.817
       238.000         200.000
 00  5  9 15 20 29.9990000  0  8G26G24G 2G 4G 5G 7G 8G 9
   1158419.99549    895940.03546  23790098.620    23790098.248    23790108.562
       224.000         172.000
  -4069887.35549  -3123778.66545  23396074.105    23396073.945    23396087.346
       215.000         160.000
    100518.49749     78312.53647  21564915.559    21564914.608    21564923.832
       235.000         201.000
  -3237831.67549  -2484402.72047  21035232.284    21035232.316    21035241.281
       238.000         199.000
  -2883472.10949  -2231147.91645  24615939.360    24615938.272    24615949.828
       218.000         154.000
    178143.30549    138574.22347  20730413.273    20730412.348    20730420.221
       240.000         210.000
   2317521.08449   1787501.18045  24569857.551    24569856.733    24569869.387
       197.000         135.000
  -2812642.67649  -2172834.07847  21670216.266    21670215.981    21670224.237
       238.000         199.000
 00  5  9 15 20 59.9990000  0  8G26G24G 2G 4G 5G 7G 8G 9
   1201012.96349    929129.18946  23798204.014    23798203.579    23798213.970
       222.000         166.000
  -4208798.03749  -3232020.70345  23369640.231    23369640.105    23369653.489
       217.000         159.000
    107758.98049     83954.38247  21566293.481    21566292.508    21566301.721
       236.000         201.000
  -3342854.60349  -2566238.70647  21015246.998    21015247.094    21015255.979
       238.000         198.000
  -2998994.72849  -2321165.54545  24593955.928    24593955.049    24593966.842
       211.000         145.000
    188255.45549    146453.76147  20732337.608    20732336.675    20732344.533
       241.000         210.000
   2402110.16449   1853414.50645  24585954.172    24585953.537    24585966.489
       199.000         138.000
  -2905135.88249  -2244906.69047  21652615.428    21652615.104    21652623.373
       239.000         201.000
 00  5  9 15 21 29.9990000  0  8G26G24G 2G 4G 5G 7G 8G 9
   1243789.53349    962461.42946  23806344.214    23806343.813    23806354.228
       223.000         170.000
  -4347587.00049  -3340167.87945  23343229.581    23343229.380    23343242.842
       218.000         161.000
    115286.60049     89819.97847  21567726.027    21567725.054    21567734.266
       235.000         201.000
  -3447401.52749  -2647703.78847  20995352.320    20995352.441    20995361.257
       238.000         198.000
  -3114513.16249  -2411179.86345  24571973.562    24571972.675    24571984.482
       214.000         156.000
    198646.25449    154550.42547  20734314.947    20734314.022    20734321.870
       241.000         210.000
   2486781.04449   1919391.64345  24602067.084    24602066.084    24602079.081
       199.000         139.000
  -2997155.90849  -2316610.58947  21635104.589    21635104.278    21635112.552
       240.000         201.000
 00  5  9 15 21 59.9990000  0  8G26G24G 2G 4G 5G 7G 8G 9
   1286704.79749    995901.71846  23814510.807    23814510.448    23814520.928
       223.000         169.000
  -4486293.78849  -3448251.02745  23316834.571    23316834.352    23316847.842
       218.000         160.000
    123059.59749     95876.79447  21569205.161    21569204.244    21569213.571
       234.000         201.000
  -3551511.77449  -2728828.60347  20975540.754    20975540.877    20975549.642
       238.000         198.000
  -3230069.25049  -2501223.62145  24549983.982    24549983.121    24549994.783
       217.000         160.000
    209272.03449    162830.19547  20736337.037    20736336.107    20736343.922
       241.000         211.000
   2571489.45649   1985397.84945  24618186.856    24618185.773    24618199.029
       207.000         142.000
  -3088742.90549  -2387977.06247  21617676.179    21617675.857    21617684.126
       239.000         201.000
 00  5  9 15 22 29.9990000  0  8G26G24G 2G 4G 5G 7G 8G 9
   1329785.46849   1029470.91346  23822708.983    23822708.593    23822719.062
       222.000         169.000
  -4624885.70549  -3556244.63945  23290461.379    23290461.145    23290474.662
       220.000         159.000
    131108.22949    102148.39947  21570736.768    21570735.893    21570745.315
       235.000         202.000
  -3655153.07949  -2809588.01347  20955818.359    20955818.551    20955827.263
       238.000         199.000
  -3345632.48549  -2591272.88445  24527993.152    24527992.262    24528003.837
       216.000         151.000
    220161.02249    171315.06547  20738409.244    20738408.293    20738416.043
       241.000         210.000
   2656262.82949   2051454.93445  24634318.984    24634317.756    24634330.714
       205.000         137.000
  -3179864.90949  -2458981.20547  21600336.236    21600335.909    21600344.205
       240.000         202.000
 00  5  9 15 22 59.9990000  0  8G26G24G 2G 4G 5G 7G 8G 9
   1373028.96949   1063166.96846  23830937.964    23830937.641    23830948.249
       224.000         170.000
  -4763359.81249  -3664146.46345  23264110.568    23264110.392    23264123.885
       219.000         161.000
    139433.77649    108635.77947  21572321.215    21572320.291    21572329.749
       236.000         201.000
  -3758322.43449  -2889979.68047  20936185.825    20936186.031    20936194.691
       238.000         199.000
  -3461202.22249  -2681327.18045  24506000.815    24506000.039    24506011.705
       212.000         156.000
    231312.04749    180004.12247  20740531.293    20740530.329    20740538.044
       241.000         210.000
   2741099.58149   2117561.22245  24650462.971    24650461.712    24650475.140
       200.000         138.000
  -3270519.51449  -2529621.13747  21583085.215    21583084.901    21583093.189
       238.000         201.000
 00  5  9 15 23 29.9990000  0  8G26G24G 2G 4G 5G 7G 8G 9
   1416421.18249   1096978.92846  23839195.428    23839195.095    23839205.644
       221.000         166.000
  -4901724.28149  -3771962.84245  23237780.708    23237780.475    23237793.921
       217.000         160.000
    148025.61349    115330.65347  21573956.227    21573955.341    21573964.795
       235.000         201.000
  -3861028.10149  -2970010.03847  20916641.538    20916641.757    20916650.411
       238.000         200.000
  -3576788.91549  -2771394.87145  24484005.413    24484004.722    24484016.304
       202.000         150.000
    242712.38749    188887.44747  20742700.711    20742699.782    20742707.507
       240.000         211.000
   2825986.32549   2183706.55245  24666616.345    24666615.296    24666628.761
       196.000         135.000
  -3360715.62749  -2599903.80347  21565921.436    21565921.157    21565929.456
       239.000         202.000
 00  5  9 15 23 59.9990000  0  8G26G24G 2G 4G 5G 7G 8G 9
   1459962.78649   1130907.28446  23847481.072    23847480.802    23847491.484
       222.000         168.000
  -5039973.02949  -3879689.05645  23211472.843    23211472.576    23211485.946
       218.000         161.000
    156887.63949    122236.05147  21575642.673    21575641.800    21575651.245
       236.000         200.000
  -3963264.40149  -3049674.66047  20897186.611    20897186.817    20897195.492
       239.000         201.000
  -3692388.74849  -2861472.49745  24462007.587    24462006.848    24462018.567
       212.000         153.000
    254363.97849    197966.54747  20744917.943    20744917.035    20744924.815
       241.000         211.000
   2910924.36649   2249891.83945  24682779.467    24682778.579    24682792.299
       206.000         145.000
  -3450447.84649  -2669825.00447  21548845.992    21548845.690    21548853.978
       239.000         202.000
 00  5  9 15 24 29.9990000  0  8G26G24G 2G 4G 5G 7G 8G 9
   1503624.70649   1164929.36946  23855789.918    23855789.552    23855800.380
       222.000         164.000
  -5178129.12649  -3987343.06245  23185182.615    23185182.339    23185195.620
       218.000         161.000
    165994.28449    129332.05947  21577375.731    21577374.831    21577384.256
       236.000         200.000
  -4065054.69249  -3128991.74247  20877816.588    20877816.769    20877825.452
       239.000         201.000
  -3808027.45649  -2951580.60945  24440002.092    24440001.486    24440013.234
       210.000         153.000
    266239.24149    207219.94547  20747177.765    20747176.866    20747184.661
       241.000         211.000
   2995885.51749   2316095.13544  24698947.032    24698946.263    24698960.133
       195.000         130.000
  -3539740.29449  -2739403.52347  21531854.226    21531853.902    21531862.164
       239.000         202.000
 00  5  9 15 24 59.9990000  0  8G26G24G 2G 4G 5G 7G 8G 9
   1547414.17749   1199050.89046  23864122.705    23864122.416    23864133.240
       220.000         163.000
  -5316179.73249  -4094914.87445  23158912.500    23158912.167    23158925.343
       220.000         161.000
    175356.37949    136627.12247  21579157.425    21579156.476    21579165.856
       237.000         200.000
  -4166386.17149  -3207951.31347  20858533.843    20858534.006    20858542.691
       238.000         201.000
  -3923694.51349  -3041710.88045  24417991.367    24417990.787    24418002.538
       214.000         150.000
    278346.83949    216654.38447  20749481.817    20749480.922    20749488.722
       241.000         211.000
   3080877.73949   2382322.60945  24715120.733    24715119.828    24715133.756
       203.000         135.000
  -3628580.76149  -2808629.84847  21514948.433    21514948.133    21514956.383
       239.000         203.000
 00  5  9 15 25 29.9990000  0  8G26G24G 2G 4G 5G 7G 8G 9
   1591343.83349   1233281.60646  23872482.502    23872482.161    23872493.099
       222.000         166.000
  -5454106.74349  -4202390.36745  23132665.837    23132665.518    23132678.625
       219.000         162.000
    184990.01649    144133.77347  21580990.741    21580989.793    21580999.132
       236.000         200.000
  -4267240.88649  -3286539.37547  20839341.750    20839341.948    20839350.621
       238.000         201.000
  -4039373.82849  -3131850.39545  24395978.363    24395977.728    24395989.717
       216.000         145.000
    290700.69049    226280.70747  20751832.715    20751831.834    20751839.659
       241.000         211.000
   3165914.33348   2448584.70344  24731302.526    24731301.805    24731316.012
       194.000         131.000
  -3716951.42349  -2877490.08747  21498132.077    21498131.773    21498140.012
       239.000         203.000
 00  5  9 15 25 59.9990000  0  8G26G24G 2G 4G 5G 7G 8G 9
   1635373.87149   1267590.56245  23880861.239    23880860.908    23880871.823
       219.000         160.000
  -5591944.09749  -4309795.99046  23106436.212    23106435.921    23106448.957
       219.000         163.000
    194858.65849    151823.55947  21582868.735    21582867.808    21582877.161
       235.000         200.000
  -4367653.01449  -3364782.57047  20820233.902    20820234.113    20820242.787
       239.000         201.000
  -4155101.84149  -3222028.14345  24373955.999    24373955.393    24373967.420
       214.000         157.000
    303262.39649    236068.99047  20754223.187    20754222.309    20754230.181
       241.000         212.000
   3250956.21449   2514850.91045  24747485.854    24747484.917    24747499.161
       201.000         132.000
  -3804887.25549  -2946011.49947  21481398.422    21481398.152    21481406.407
       238.000         203.000
 00  5  9 15 26 29.9990000  0  8G26G24G 2G 4G 5G 7G 8G 9
   1679537.73849   1302003.83446  23889265.536    23889265.159    23889276.064
       220.000         164.000
  -5729652.40149  -4417101.05546  23080231.116    23080230.843    23080243.867
       218.000         163.000
    204999.39749    159725.37047  21584798.496    21584797.605    21584807.030
       235.000         201.000
  -4467583.69749  -3442650.61947  20801217.717    20801217.901    20801226.606
       238.000         201.000
  -4270841.39949  -3312214.94645  24351931.338    24351930.940    24351942.756
       207.000         133.000
    316066.88849    246046.45347  20756659.864    20756658.967    20756666.910
       240.000         211.000
   3336038.00848   2581148.21444  24763676.301    24763675.511    24763689.762
       194.000         131.000
  -3892349.72749  -3014164.05947  21464754.810    21464754.564    21464762.843
       238.000         202.000
 00  5  9 15 26 59.9990000  0  8G26G24G 2G 4G 5G 7G 8G 9
   1723815.01149   1336505.38546  23897691.271    23897690.910    23897702.024
       220.000         163.000
  -5867246.69749  -4524317.28346  23054047.696    23054047.487    23054060.434
       218.000         163.000
    215395.17749    167825.91347  21586776.822    21586775.920    21586785.424
       237.000         200.000
  -4567048.20949  -3520155.40147  20782290.167    20782290.376    20782299.181
       238.000         202.000
  -4386609.79249  -3402423.95945  24329901.664    24329901.129    24329912.950
       203.000         148.000
    329095.09749    256198.25147  20759139.038    20759138.182    20759146.185
       240.000         210.000
   3421139.65749   2647460.95045  24779871.103    24779870.101    24779884.329
       206.000         138.000
  -3979354.22249  -3081959.76047  21448198.370    21448198.137    21448206.418
       238.000         202.000
 00  5  9 15 27 29.9990000  0  7G26G24G 2G 4G 5G 7G 9
   1768188.48849   1371082.03945  23906135.585    23906135.125    23906145.968
       215.000         158.000
  -6004738.20349  -4631453.42846  23027883.900    23027883.671    23027896.539
       220.000         163.000
    226032.33149    176114.52847  21588801.112    21588800.190    21588809.706
       237.000         199.000
  -4666057.95149  -3597305.82147  20763449.245    20763449.433    20763458.298
       239.000         203.000
  -4502420.77849  -3492666.42745  24307863.702    24307863.083    24307874.626
       211.000         161.000
    342331.24949    266512.08347  20761657.808    20761656.971    20761664.999
       240.000         210.000
  -4065912.98549  -3149408.13247  21431726.718    21431726.522    21431734.809
       238.000         202.000
 00  5  9 15 27 59.9990000  0  7G26G24G 2G 4G 5G 7G 9
   1812711.18149   1405774.80346  23914607.954    23914607.547    23914618.769
       221.000         170.000
  -6142068.35649  -4738463.83546  23001750.853    23001750.602    23001763.431
       219.000         165.000
    236966.99949    184634.97147  21590882.000    21590881.058    21590890.563
       236.000         199.000
  -4764554.83449  -3674056.61347  20744705.933    20744706.108    20744715.013
       240.000         203.000
  -4618217.94849  -3582897.74444  24285828.041    24285827.489
       220.000         122.000
    355829.64449    277030.25647  20764226.503    20764225.678    20764233.731
       240.000         210.000
  -4151968.27849  -3216464.18747  21415350.900    21415350.713    21415359.009
       238.000         202.000
 00  5  9 15 28 29.9980000  0  7G26G24G 2G 4G 5G 7G 9
   1857310.40649   1440527.28645  23923095.178    23923094.717    23923105.872
       215.000         154.000
  -6279298.09249  -4845395.99146  22975636.818    22975636.606    22975649.404
       220.000         166.000
    248131.42849    193334.44147  21593006.513    21593005.644    21593015.140
       236.000         199.000
  -4862601.15749  -3750456.31647  20726048.398    20726048.513    20726057.433
       240.000         203.000
  -4734065.06859  -3673168.12755  24263783.069    24263782.728    24263793.833
       220.000         161.000
    369520.13349    287698.11547  20766831.728    20766830.932    20766839.019
       240.000         210.000
  -4237583.28849  -3283177.16047  21399058.818    21399058.695    21399066.994
       239.000         203.000
 00  5  9 15 28 59.9980000  0  7G26G24G 2G 4G 5G 7G 9
   1902002.69649   1475352.31646  23931599.733    23931599.398    23931610.531
       220.000         167.000
  -6416417.38849  -4952242.09146  22949543.782    22949543.635    22949556.377
       220.000         167.000
    259543.22949    202226.66347  21595178.111    21595177.283    21595186.811
       236.000         199.000
  -4960184.79649  -3826495.49347  20707478.812    20707478.975    20707487.883
       240.000         203.000
                  -3763470.01043  24241730.251
       206.000          80.000
    383418.60849    298528.04347  20769476.577    20769475.769    20769483.878
       240.000         210.000
  -4322745.75249  -3349537.50447  21382852.931    21382852.829    21382861.090
       239.000         203.000
 00  5  9 15 29 29.9980000  0  7G26G24G 2G 4G 5G 7G 9
   1946798.31049   1510257.76746  23940124.426    23940123.973    23940135.367
       218.000         163.000
  -6553404.08049  -5058984.85446  22923476.039    22923475.862    22923488.609
       221.000         166.000
    271217.41249    211323.33947  21597399.720    21597398.882    21597408.402
       237.000         199.000
  -5057285.05049  -3902158.00147  20689001.271    20689001.408    20689010.285
       239.000         202.000
                  -3853788.47643  24219673.639
       198.000          85.000
    397537.82349    309529.97447  20772163.427    20772162.619    20772170.741
       241.000         210.000
  -4407435.53549  -3415529.52747  21366737.029    21366736.896    21366745.148
       238.000         203.000
 00  5  9 15 29 59.9980000  0  7G26G24G 2G 4G 5G 7G 9
   1991685.89249   1545234.99245  23948666.190    23948665.832    23948677.013
       221.000         159.000
  -6690263.73849  -5165628.64246  22897432.396    22897432.281    22897445.005
       220.000         167.000
    283145.86349    220618.15247  21599669.735    21599668.878    21599678.395
       235.000         199.000
  -5153908.33649  -3977448.84047  20670614.414    20670614.588    20670623.429
       239.000         202.000
                  -3944129.17043  24197611.271
       213.000          76.000
    411867.71649    320696.07247  20774890.364    20774889.561    20774897.686
       241.000         210.000
  -4491659.52949  -3481158.59647  21350709.660    21350709.571    21350717.831
       238.000         203.000
 00  5  9 15 30 29.9980000  0  7G26G24G 2G 4G 5G 7G 9
   2036605.36549   1580236.99446  23957214.277    23957213.901    23957225.334
       215.000         165.000
  -6827050.86749  -5272215.90746  22871402.423    22871402.462    22871415.200
       220.000         166.000
    295271.94249    230066.96447  21601977.249    21601976.433    21601986.011
       236.000         198.000
  -5250109.22049  -4052410.53047  20652307.940    20652308.156    20652316.951
       239.000         202.000
                    -20556.58943  24175532.405
       216.000          74.000
    426349.61649    331980.61247  20777646.201    20777645.409    20777653.574
       240.000         210.000
  -4575472.98949  -3546467.76647  21334760.517    21334760.403    21334768.627
       239.000         204.000
 00  5  9 15 30 59.9980000  0  7G26G24G 2G 4G 5G 7G 9
   2081647.35149   1615334.43745  23965785.541    23965785.199    23965796.706
       220.000         158.000
  -6963669.20649  -5378671.64446  22845404.668    22845404.756    22845417.553
       221.000         167.000
    307689.60149    239742.97747  21604340.305    21604339.494    21604349.098
       235.000         198.000
  -5345791.87849  -4126968.40447  20634100.187    20634100.349    20634109.125
       240.000         203.000
                   -110959.56945  24153455.253
       214.000         147.000
    441075.63249    343455.37347  20780448.494    20780447.724    20780455.901
       241.000         209.000
  -4658780.30449  -3611382.53847  21318907.650    21318907.520    21318915.753
       238.000         203.000
 00  5  9 15 31 29.9980000  0  7G26G24G 2G 4G 5G 7G 9
   2126739.50549   1650471.10846  23974366.632    23974366.202    23974377.497
       217.000         166.000
  -7100185.27849  -5485047.69846  22819426.438    22819426.527    22819439.308
       221.000         169.000
    320329.77749    249592.37247  21606745.678    21606744.879    21606754.497
       235.000         198.000
  -5441023.45349  -4201174.78547  20615978.221    20615978.382    20615987.160
       240.000         203.000
  -5429919.37049   -201409.46745  24131366.519    24131302.698    24131379.819
       207.000         151.000
    455974.78549    355065.04747  20783283.783    20783282.986    20783291.155
       241.000         209.000
  -4741648.91149  -3675955.46547  21303138.181    21303138.084    21303146.356
       238.000         203.000
 00  5  9 15 31 59.9980000  0  7G26G24G 2G 4G 5G 7G 9
   2171896.55149   1685658.13546  23982959.569    23982959.290    23982970.967
       219.000         166.000
  -7236578.91249  -5591328.34546  22793471.505    22793471.596    22793484.305
       221.000         168.000
    333210.56949    259629.25947  21609196.829    21609196.066    21609205.715
       235.000         198.000
  -5535784.05849  -4275014.17747  20597945.887    20597946.033    20597954.800
       240.000         203.000
  -5546039.68549   -291892.82245  24109269.325    24109268.347    24109278.296
       209.000         143.000
    471063.04449    366822.07847  20786155.061    20786154.257    20786162.393
       241.000         209.000
  -4824059.67649  -3740171.63647  21287455.903    21287455.810    21287464.084
       239.000         203.000
 00  5  9 15 32 29.9980000  0  7G26G24G 2G 4G 5G 7G 9
   2217127.28749   1720902.77545  23991566.982    23991566.597    23991578.110
       218.000         159.000
  -7372835.41249  -5697502.12746  22767542.707    22767542.796    22767555.424
       224.000         168.000
    346344.25149    269863.21147  21611696.144    21611695.383    21611705.065
       235.000         198.000
  -5630059.45149  -4348475.48047  20580005.907    20580006.031    20580014.781
       240.000         203.000
  -5662190.22849   -382399.72545  24087166.573    24087165.823    24087176.888
       207.000         145.000
    486350.82649    378734.58647  20789064.260    20789063.478    20789071.615
       240.000         209.000
  -4905998.94449  -3804020.41247  21271863.416    21271863.277    21271871.514
       239.000         203.000
 00  5  9 15 32 59.9980000  0  7G26G24G 2G 4G 5G 7G 9
   2262423.88649   1756198.62746  24000186.691    24000186.317    24000198.044
       217.000         167.000
  -7508956.74349  -5803570.58846  22741639.612    22741639.687    22741652.304
       222.000         169.000
    359726.32849    280290.71547  21614242.721    21614241.967    21614251.703
       234.000         198.000
  -5723852.21649  -4421560.71447  20562157.646    20562157.836    20562166.551
       239.000         203.000
  -5778375.33549   -472933.58245  24065057.343    24065056.638    24065067.768
       208.000         147.000
    501831.88949    390797.68947  20792010.250    20792009.470    20792017.629
       241.000         209.000
  -4987469.41949  -3867503.89147  21256360.049    21256359.944    21256368.201
       238.000         204.000
 00  5  9 15 33 29.9980000  0  7G26G24G 2G 4G 5G 7G 9
   2307762.79849   1791527.46045  24008814.547    24008814.169    24008826.011
       218.000         158.000
  -7644961.00149  -5909547.83246  22715758.772    22715758.866    22715771.452
       221.000         169.000
    373336.41549    290895.87847  21616832.702    21616831.946    21616841.689
       235.000         197.000
  -5817180.91849  -4494284.33447  20544397.682    20544397.919    20544406.603
       239.000         203.000
  -5894615.38549   -563510.21745  24042937.523    24042936.675    24042948.335
       210.000         152.000
    517483.84849    402993.95647  20794988.788    20794987.994    20794996.195
       241.000         209.000
  -5068490.13649  -3930636.90447  21240942.312    21240942.194    21240950.485
       239.000         204.000
 00  5  9 15 33 59.9980000  0  7G26G24G 2G 4G 5G 7G 9
   2353162.15949   1826903.48945  24017453.881    24017453.497    24017465.122
       220.000         159.000
  -7780824.43549  -6015415.34446  22689904.782    22689904.853    22689917.368
       222.000         169.000
    387196.25249    301695.66147  21619470.219    21619469.442    21619479.233
       234.000         197.000
  -5910022.11049  -4566628.07347  20526730.538    20526730.791    20526739.442
       239.000         203.000
  -6010888.55449   -654112.66745  24020811.371    24020810.602    24020822.381
       211.000         149.000
    533326.40449    415338.74647  20798003.610    20798002.788    20798010.991
       241.000         209.000
  -5149038.14249  -3993401.57747  21225614.572    21225614.416    21225622.715
       239.000         204.000
 00  5  9 15 34 29.9980000  0  7G26G24G 2G 4G 5G 7G 9
   2398615.88149   1862321.77046  24026103.580    24026103.170    24026114.943
       220.000         166.000
  -7916547.26849  -6121173.28046  22664077.465    22664077.596    22664090.077
       222.000         169.000
    401303.06649    312687.88547  21622154.745    21622153.953    21622163.770
       236.000         197.000
  -6002376.95049  -4638592.83847  20509155.949    20509156.214    20509164.905
       239.000         204.000
  -6127197.53549   -744743.01345  23998678.428    23998677.838    23998689.600
       208.000         150.000
    549354.86049    427828.39547  20801053.794    20801052.966    20801061.140
       241.000         208.000
  -5229114.85749  -4055799.00847  21210376.497    21210376.333    21210384.622
       239.000         204.000
 00  5  9 15 34 59.9980000  0  7G26G24G 2G 4G 5G 7G 9
   2444121.59849   1897780.58545  24034763.151    24034762.793    24034774.662
       216.000         158.000
  -8052126.29649  -6226819.18446  22638277.551    22638277.701    22638290.128
       222.000         170.000
    415657.88349    323873.35847  21624886.607    21624885.713    21624895.497
       235.000         197.000
  -6094242.58649  -4710176.40647  20491674.507    20491674.742    20491683.495
       239.000         205.000
  -6243541.33549   -835400.55645  23976538.985    23976538.335    23976550.183
       211.000         154.000
    565568.16149    440462.07347  20804139.174    20804138.327    20804146.439
       241.000         208.000
  -5308718.04449  -4117827.45747  21195228.575    21195228.351    21195236.619
       240.000         204.000
 00  5  9 15 35 29.9980000  0  7G26G24G 2G 4G 5G 7G 9
   2489703.56749   1933298.84645  24043437.205    24043436.911    24043448.739
       218.000         162.000
  -8187531.68049  -6332329.76746  22612510.627    22612510.815    22612523.243
       224.000         170.000
    430287.99949    335273.34747  21627670.738    21627669.820    21627679.597
       236.000         197.000
  -6185589.66449  -4781355.90847  20474291.694    20474291.952    20474300.744
       240.000         205.000
  -6359892.05949   -926063.50645  23954398.187    23954397.536    23954409.407
       214.000         154.000
    581991.94049    453259.76047  20807264.577    20807263.724    20807271.804
       241.000         208.000
  -5387818.62349  -4179464.27047  21180176.329    21180176.053    21180184.288
       240.000         205.000
 00  5  9 15 35 59.9980000  0  7G26G24G 2G 4G 5G 7G 9
   2535319.42249   1968843.48146  24052117.844    24052117.511    24052129.417
       217.000         163.000
  -8322799.98349  -6437733.53546  22586769.840    22586770.007    22586782.457
       223.000         170.000
    445154.62549    346857.63547  21630499.862    21630498.937    21630508.699
       235.000         196.000
  -6276455.58849  -4852160.48247  20457000.461    20457000.721    20457009.556
       240.000         206.000
  -6476288.46049  -1016762.04145  23932248.741    23932248.074    23932259.837
       216.000         152.000
    598585.49649    466189.74347  20810422.268    20810421.423    20810429.475
       241.000         207.000
  -5466454.29949  -4240738.81847  21165212.502    21165212.204    21165220.412
       240.000         204.000
 00  5  9 15 36 29.9980000  0  7G26G24G 2G 4G 5G 7G 9
   2580963.63549   2004410.21845  24060803.663    24060803.334    24060815.339
       217.000         160.000
  -8457931.10049  -6543030.41046  22561055.299    22561055.346    22561067.757
       223.000         172.000
    460255.43049    358624.40147  21633373.494    21633372.606    21633382.362
       235.000         196.000
  -6366840.65349  -4922590.36447  20439800.745    20439800.988    20439809.857
       240.000         206.000
  -6592732.53849  -1107497.74045  23910090.257    23910089.579    23910101.254
       210.000         147.000
    615344.56849    479248.68947  20813611.427    20813610.615    20813618.636
       241.000         207.000
  -5544626.02949  -4301651.85147  21150336.887    21150336.601    21150344.825
       239.000         204.000
 00  5  9 15 36 59.9980000  0  7G26G24G 2G 4G 5G 7G 9
   2626647.33149   2040007.74446  24069497.113    24069496.779    24069508.833
       219.000         164.000
  -8592908.16349  -6648207.24246  22535369.970    22535369.980    22535382.390
       223.000         171.000
    475604.98649    370585.00447  21636294.479    21636293.594    21636303.384
       234.000         196.000
  -6456728.78349  -4992633.02947  20422695.575    20422695.814    20422704.739
       239.000         206.000
  -6709209.61249  -1198259.13445  23887925.439    23887924.785    23887936.420
       212.000         152.000
    632281.86549    492446.52647  20816834.559    20816833.732    20816841.717
       241.000         208.000
  -5622317.93449  -4362190.98647  21135552.556    21135552.315    21135560.526
       240.000         204.000
 00  5  9 15 37 29.9980000  0  7G26G24G 2G 4G 5G 7G 9
   2672362.85649   2075630.03745  24078196.595    24078196.267    24078208.412
       216.000         157.000
  -8727733.19149  -6753265.60146  22509713.582    22509713.554    22509725.919
       224.000         173.000
    491198.74249    382735.89047  21639261.852    21639261.034    21639270.884
       234.000         196.000
  -6546122.68349  -5062290.57947  20405684.425    20405684.681    20405693.648
       240.000         207.000
  -6825723.60049  -1289049.28845  23865753.689    23865752.986    23865764.541
       211.000         155.000
    649391.00549    505778.26347  20820090.392    20820089.557    20820097.525
       241.000         208.000
  -5699533.12749  -4422358.66247  21120859.050    21120858.752    21120866.976
       240.000         204.000
 00  5  9 15 37 59.9980000  0  7G26G24G 2G 4G 5G 7G 9
   2718090.74649   2111262.01046  24086898.442    24086898.092    24086910.208
       219.000         163.000
  -8862420.11249  -6858216.35446  22484083.480    22484083.439    22484095.775
       223.000         172.000
    507020.53849    395064.47747  21642272.699    21642271.870    21642281.783
       234.000         195.000
  -6635036.81049  -5131574.28647  20388764.601    20388764.868    20388773.834
       240.000         207.000
  -6942290.59849  -1379880.70445  23843571.746    23843571.058    23843582.676
       214.000         155.000
    666654.01349    519229.89247  20823375.467    20823374.649    20823382.643
       241.000         208.000
  -5776286.35449  -4482166.36047  21106253.311    21106253.071    21106261.308
       239.000         204.000
 00  5  9 15 38 29.9980000  0  7G26G24G 2G 4G 5G 7G 9
   2763851.03349   2146919.18345  24095606.503    24095606.162    24095618.373
       211.000         157.000
  -8996943.13749  -6963039.38846  22458484.507    22458484.478    22458496.799
       223.000         172.000
    523093.92249    407589.09847  21645331.449    21645330.612    21645340.565
       234.000         195.000
  -6723446.04149  -5200464.56747  20371940.908    20371941.143    20371950.099
       242.000         207.000
  -7058886.94649  -1470735.01145  23821384.190    23821383.525    23821395.133
       215.000         155.000
    684092.56249    532818.30547  20826693.945    20826693.139    20826701.179
       241.000         208.000
  -5852553.03349  -4541594.94047  21091740.211    21091740.011    21091748.238
       240.000         205.000
 00  5  9 15 38 59.9980000  0  7G26G24G 2G 4G 5G 7G 9
   2809648.05349   2182604.98145  24104321.497    24104321.116    24104333.316
       218.000         160.000
  -9131292.37149  -7067727.00246  22432918.622    22432918.596    22432930.882
       220.000         173.000
    539426.04649    420315.31947  21648439.445    21648438.598    21648448.585
       233.000         195.000
  -6811341.25349  -5268954.33047  20355215.018    20355215.232    20355224.163
       242.000         207.000
  -7175505.04949  -1561606.30245  23799192.559    23799191.908    23799203.458
       215.000         156.000
    701712.05149    546547.70247  20830046.881    20830046.079    20830054.128
       241.000         207.000
  -5928324.53349  -4600637.67147  21077321.365    21077321.180    21077329.441
       240.000         205.000
 00  5  9 15 39 29.9980000  0  7G26G24G 2G 4G 5G 7G 9
   2855452.51749   2218296.58945  24113038.227    24113037.697    24113049.894
       213.000         158.000
  -9265491.46149  -7172297.62146  22407381.287    22407381.272    22407393.578
       224.000         174.000
    555991.23249    433223.16247  21651591.807    21651590.953    21651600.929
       235.000         195.000
  -6898746.76049  -5337062.49847  20338582.327    20338582.526    20338591.424
       242.000         207.000
  -7292170.38849  -1652514.31345  23776991.919    23776991.249    23777002.849
       218.000         156.000
    719484.89949    560396.61247  20833429.049    20833428.215    20833436.237
       241.000         207.000
  -6003625.32549  -4659313.61047  21062992.121    21062991.924    21063000.212
       241.000         206.000
 00  5  9 15 39 59.9980000  0  7G26G24G 2G 4G 5G 7G 9
   2901273.76549   2254001.29445  24121757.531    24121757.177    24121769.394
       214.000         153.000
  -9399525.48549  -7276739.62146  22381875.430    22381875.398    22381887.651
       225.000         173.000
    572801.88149    446322.27947  21654790.936    21654790.027    21654799.949
       234.000         195.000
  -6985648.52649  -5404778.14247  20322045.445    20322045.643    20322054.544
       242.000         207.000
  -7408870.20649  -1743449.21345  23754784.759    23754784.081    23754795.643
       217.000         159.000
    737421.57049    574373.17547  20836842.373    20836841.515    20836849.516
       241.000         207.000
  -6078441.68749  -4717612.07047  21048755.127    21048754.874    21048763.144
       241.000         206.000
 00  5  9 15 40 29.9980000  0  7G26G24G 2G 4G 5G 7G 9
   2947098.84349   2289709.00845  24130478.113    24130477.618    24130489.821
       212.000         159.000
  -9533401.52349  -7381058.51946  22356399.579    22356399.557    22356411.783
       224.000         173.000
    589848.43149    459605.20247  21658034.888    21658033.978    21658043.894
       234.000         195.000
  -7072054.09349  -5472107.13947  20305603.001    20305603.203    20305612.106
       242.000         207.000
  -7525613.54749  -1834418.02945  23732569.296    23732568.596    23732580.113
       218.000         156.000
    755511.06949    588468.82147  20840284.786    20840283.898    20840291.909
       241.000         208.000
  -6152781.76049  -4775539.39447  21034608.719    21034608.445    21034616.698
       241.000         207.000
 00  5  9 15 40 59.9980000  0  7G26G24G 2G 4G 5G 7G 9
   2992932.95349   2325423.63045  24139199.966    24139199.561    24139212.121
       210.000         158.000
  -9667109.06149  -7485246.11246  22330955.831    22330955.794    22330967.976
       225.000         174.000
    607139.00149    473078.27147  21661325.332    21661324.376    21661334.265
       234.000         194.000
  -7157954.10849  -5539042.20547  20289256.771    20289256.956    20289265.867
       242.000         207.000
  -7642392.11949  -1925414.27345  23710347.132    23710346.413    23710357.895
       218.000         156.000
    773759.58449    602688.37447  20843757.433    20843756.539    20843764.584
       240.000         208.000
  -6226636.45849  -4833088.50747  21020554.676    21020554.387    21020562.639
       240.000         207.000
 00  5  9 15 41 29.9980000  0  7G26G24G 2G 4G 5G 7G 9
   3038776.20149   2361145.50645  24147923.852    24147923.388    24147935.753
       215.000         150.000
  -9800642.18049  -7589297.79746  22305545.318    22305545.217    22305557.389
       225.000         174.000
    624677.06749    486744.19947  21664662.791    21664661.853    21664671.726
       233.000         194.000
  -7243343.30149  -5605579.23047  20273007.753    20273007.928    20273016.801
       242.000         206.000
  -7759202.11549  -2016435.02345  23688118.954    23688118.256    23688129.649
       216.000         155.000
    792168.89649    617033.22047  20847260.625    20847259.762    20847267.864
       240.000         208.000
  -6300000.86349  -4890255.57547  21006593.891    21006593.643    21006601.856
       241.000         207.000
 00  5  9 15 41 59.9980000  0  7G26G24G 2G 4G 5G 7G 9
   3084611.73749   2396861.33545  24156646.088    24156645.717    24156658.262
       212.000         161.000
  -9934012.42649  -7693222.56446  22280165.690    22280165.596    22280177.778
       224.000         176.000
    642448.77949    500592.17347  21668044.735    21668043.784    21668053.678
       234.000         194.000
  -7328233.76249  -5671727.63747  20256853.661    20256853.821    20256862.639
       242.000         206.000
  -7876056.91449  -2107490.67545  23665882.177    23665881.492    23665892.932
       218.000         156.000
    810723.33649    631491.15147  20850791.443    20850790.596    20850798.750
       240.000         208.000
  -6372887.44449  -4947050.31847  20992724.042    20992723.811    20992732.017
       242.000         207.000
 00  5  9 15 42 29.9980000  0  7G26G24G 2G 4G 5G 7G 9
   3130448.07849   2432577.70245  24165368.727    24165368.321    24165381.064
       216.000         159.000
 -10067205.38149  -7797009.17846  22254819.772    22254819.723    22254831.917
       225.000         176.000
    660466.17349    514631.60347  21671473.409    21671472.478    21671482.368
       233.000         193.000
  -7412612.16449  -5737477.03047  20240797.013    20240797.166    20240805.925
       242.000         206.000
  -7992944.05449  -2198571.47845  23643639.276    23643638.627    23643650.051
       214.000         156.000
    829433.15649    646070.16647  20854351.795    20854350.984    20854359.212
       240.000         208.000
  -6445283.25649  -5003462.63647  20978947.568    20978947.360    20978955.561
       242.000         207.000
 00  5  9 15 42 59.9980000  0  7G26G24G 2G 4G 5G 7G 9
   3176287.72749   2468296.83845  24174091.684    24174091.352    24174103.808
       213.000         150.000
 -10200213.08549  -7900651.44746  22229509.058    22229509.095    22229521.318
       225.000         176.000
    678734.71949    528866.73047  21674949.831    21674948.929    21674958.852
       234.000         194.000
  -7496471.32749  -5802821.82747  20224839.165    20224839.298    20224848.009
       242.000         206.000
  -8109857.79649  -2289673.01345  23621391.345    23621390.658    23621402.084
       217.000         156.000
    848302.12649    660773.18847  20857942.469    20857941.666    20857949.953
       240.000         207.000
  -6517181.69149  -5059487.39547  20965265.776    20965265.554    20965273.734
       241.000         207.000
 00  5  9 15 43 29.9980000  0  7G26G24G 2G 4G 5G 7G 9
   3222126.59849   2504015.21345  24182814.852    24182814.403    24182827.217
       212.000         162.000
 -10333033.80849  -8004148.00246  22204233.973    22204234.052    22204246.318
       225.000         176.000
    697253.74749    543297.03147  21678473.977    21678473.087    21678483.013
       234.000         194.000
  -7579810.44949  -5867761.39247  20208980.272    20208980.389    20208989.070
       242.000         206.000
  -8226798.45349  -2380795.53345  23599138.219    23599137.593    23599149.054
       214.000         156.000
    867327.91449    675598.40947  20861562.969    20861562.188    20861570.518
       239.000         207.000
  -6588581.92649  -5115123.94547  20951678.792    20951678.549    20951686.712
       242.000         207.000
 00  5  9 15 43 59.9980000  0  7G26G24G 2G 4G 5G 7G 9
   3267959.78349   2539729.10245  24191536.694    24191536.269    24191549.100
       219.000         148.000
 -10465667.19349  -8107498.60046  22178994.497    22178994.667    22179006.958
       226.000         177.000
    716021.15649    557920.87747  21682045.393    21682044.494    21682054.420
       233.000         194.000
  -7662630.06349  -5932296.15147  20193220.179    20193220.335    20193228.993
       242.000         206.000
  -8343767.78049  -2471940.38345  23576879.513    23576879.002    23576890.501
       214.000         156.000
    886506.69949    690542.84947  20865212.614    20865211.828    20865220.179
       239.000         207.000
  -6659485.00249  -5170373.09947  20938186.429    20938186.173    20938194.288
       242.000         207.000
 00  5  9 15 44 29.9980000  0  7G26G24G 2G 4G 5G 7G 9
   3313789.80249   2575440.75745  24200258.228    24200257.754    24200270.396
       211.000         157.000
 -10598104.68549  -8210696.55046  22153792.398    22153792.561    22153804.892
       226.000         177.000
    735042.94649    572742.93247  21685665.149    21685664.297    21685674.229
       233.000         194.000
  -7744922.65349  -5996420.23747  20177560.441    20177560.580    20177569.244
       242.000         207.000
  -8460759.11049  -2563102.38445  23554616.734    23554616.246    23554627.794
       216.000         159.000
    905842.82549    705609.88847  20868892.211    20868891.418    20868899.774
       240.000         207.000
  -6729883.69549  -5225229.23247  20924790.025    20924789.757    20924797.834
       242.000         207.000
 00  5  9 15 44 59.9980000  0  7G26G24G 2G 4G 5G 7G 9
   3359603.34649   2611139.32445  24208976.266    24208975.829    24208988.765
       217.000         158.000
 -10730354.75049  -8313748.44746  22128626.050    22128626.141    22128638.471
       227.000         178.000
    754308.44249    587754.89547  21689331.293    21689330.459    21689340.450
       233.000         194.000
  -7826697.55049  -6060140.92847  20161999.168    20161999.326    20162008.032
       242.000         207.000
  -8577782.59849  -2654289.42245  23532347.823    23532347.407    23532358.969
       215.000         157.000
    925323.87749    720789.86647  20872599.389    20872598.590    20872606.964
       240.000         207.000
  -6799787.30349  -5279699.58447  20911487.803    20911487.546    20911495.649
       242.000         207.000
 00  5  9 15 45 29.9980000  0  7G26G24G 2G 4G 5G 7G 9
   3405394.61149   2646820.75745  24217690.243    24217689.807    24217702.501
       213.000         152.000
 -10862417.07649  -8416654.05746  22103495.445    22103495.455    22103507.788
       227.000         178.000
    773815.30549    602954.93647  21693043.386    21693042.551    21693052.624
       233.000         193.000
  -7907955.14449  -6123458.52347  20146536.375    20146536.514    20146545.237
       242.000         207.000
  -8694840.18749  -2745503.06445  23510072.392    23510072.022    23510083.615
       211.000         154.000
    944945.89649    736079.68847  20876333.429    20876332.593    20876340.983
       240.000         206.000
  -6869197.00749  -5333785.07447  20898279.610    20898279.329    20898287.439
       241.000         207.000
 00  5  9 15 45 59.9980000  0  7G26G24G 2G 4G 5G 7G 9
   3451169.06149   2682488.87845  24226400.810    24226400.469    24226413.348
       215.000         162.000
 -10994280.91649  -8519405.01146  22078402.486    22078402.514    22078414.833
       226.000         178.000
    793571.96449    618349.62447  21696803.116    21696802.224    21696812.313
       233.000         194.000
  -7988685.80749  -6186365.51547  20131173.852    20131173.972    20131182.712
       242.000         207.000
  -8811922.85149  -2836736.17545  23487792.187    23487791.844    23487803.552
       216.000         158.000
    964715.53849    751484.53947  20880095.492    20880094.674    20880103.123
       239.000         207.000
  -6938103.56649  -5387478.50647  20885167.094    20885166.856    20885174.971
       241.000         207.000
 00  5  9 15 46 29.9980000  0  7G26G24G 2G 4G 5G 7G 9
   3496926.04749   2718143.50145  24235108.246    24235107.878    24235120.710
       213.000         149.000
 -11125941.19949  -8621997.34746  22053348.233    22053348.318    22053360.645
       227.000         179.000
    813581.01049    633940.95847  21700610.816    21700609.918    21700619.999
       233.000         193.000
  -8068885.57649  -6248858.82547  20115912.307    20115912.459    20115921.193
       242.000         207.000
  -8929027.40849  -2927986.36145  23465507.882    23465507.517    23465519.286
       214.000         158.000
    984634.00549    767005.35047  20883885.859    20883885.067    20883893.610
       239.000         207.000
  -7006503.03149  -5440776.80147  20872151.097    20872150.873    20872159.007
       242.000         207.000
 00  5  9 15 46 59.9980000  0  7G26G24G 2G 4G 5G 7G 9
   3542658.12049   2753778.68645  24243811.048    24243810.589    24243823.445
       214.000         157.000
 -11257399.90049  -8724432.59746  22028332.455    22028332.479    22028344.829
       227.000         180.000
    833837.90149    649725.43047  21704465.658    21704464.770    21704474.837
       232.000         193.000
  -8148557.25649  -6310940.63047  20100751.225    20100751.415    20100760.157
       241.000         207.000
  -9046158.05449  -3019256.87945  23443218.571    23443218.216    23443229.994
       217.000         157.000
   1004695.03249    782637.24347  20887703.348    20887702.587    20887711.213
       239.000         207.000
  -7074398.56249  -5493682.41747  20859231.023    20859230.785    20859238.964
       241.000         208.000
 00  5  9 15 47 29.9980000  0  8G26G24G 2G 4G 5G16G 7G 9
   3588377.42349   2789403.88145  24252511.341    24252510.861    24252523.779
       213.000         156.000
 -11388639.40949  -8826697.05346  22003358.299    22003358.368    22003370.736
       227.000         181.000
    854357.84349    665714.87747  21708370.540    21708369.686    21708379.726
       233.000         193.000
  -8227684.36649  -6372598.09947  20085693.815    20085694.007    20085702.729
       241.000         207.000
  -9163298.94649  -3110535.41745  23420927.337    23420926.954    23420938.731
       215.000         158.000
  -4116831.71959  -1158952.56054  24497146.617    24497146.130    24497163.529
       204.000         131.000
   1024912.25149    798390.84947  20891550.653    20891549.857    20891558.535
       239.000         207.000
  -7141774.06049  -5546182.81447  20846409.885    20846409.639    20846417.853
       241.000         207.000
 00  5  9 15 47 59.9980000  0  8G26G24G 2G 4G 5G16G 7G 9
   3634077.00049   2825013.81345  24261207.887    24261207.400    24261220.247
       217.000         156.000
 -11519661.30349  -8928791.93546  21978425.524    21978425.655    21978438.056
       227.000         181.000
    875137.07249    681906.36547  21712324.792    21712323.917    21712334.002
       232.000         193.000
  -8306269.26349  -6433833.06447  20070739.600    20070739.785    20070748.505
       241.000         207.000
  -9280453.50649  -3201824.60345  23398633.440    23398633.109    23398644.905
       214.000         158.000
  -4203183.61649  -1226239.53545  24480714.009    24480713.731    24480731.076
       204.000         148.000
   1045280.15549    814261.87247  20895426.663    20895425.824    20895434.501
       240.000         207.000
  -7208632.19549  -5598280.07347  20833687.207    20833686.964    20833695.181
       242.000         207.000
 00  5  9 15 48 29.9980000  0  8G26G24G 2G 4G 5G16G 7G 9
   3679748.44849   2860601.68845  24269898.868    24269898.467    24269911.550
       209.000         153.000
 -11650468.05349  -9030719.18846  21953533.765    21953533.901    21953546.294
       227.000         181.000
    896170.21549    698295.70847  21716327.399    21716326.480    21716336.668
       233.000         194.000
  -8384316.13449  -6494648.79447  20055887.732    20055887.941    20055896.649
       240.000         206.000
  -9397626.49749  -3293128.14645  23376336.078    23376335.759    23376347.588
       214.000         157.000
  -4289286.89549  -1293332.62745  24464328.847    24464328.588    24464346.562
       210.000         160.000
   1065791.94349    830245.00547  20899330.020    20899329.154    20899337.850
       239.000         206.000
  -7274977.25649  -5649977.54747  20821062.216    20821061.950    20821070.131
       242.000         208.000
 00  5  9 15 48 59.9980000  0  8G26G24G 2G 4G 5G16G 7G 9
   3725374.62149   2896154.36645  24278581.408    24278580.978    24278594.119
       211.000         153.000
 -11781071.75749  -9132488.19746  21928680.684    21928680.792    21928693.145
       228.000         182.000
    917442.96549    714871.76247  21720375.619    21720374.647    21720384.931
       232.000         193.000
  -8461837.65049  -6555055.14347  20041135.834    20041136.070    20041144.762
       240.000         206.000
  -9514831.51449  -3384456.66845  23354032.628    23354032.291    23354044.122
       217.000         159.000
  -4375153.24349  -1360241.21445  24447988.992    24447988.681    24448006.940
       210.000         149.000
   1086431.65749    846327.82747  20903257.707    20903256.835    20903265.529
       239.000         207.000
  -7340822.34949  -5701285.41747  20808532.309    20808532.067    20808540.261
       242.000         209.000
 00  5  9 15 49 29.9980000  0  8G26G24G 2G 4G 5G16G 7G 9
   3770964.03949   2931678.34945  24287256.936    24287256.524    24287269.709
       210.000         154.000
 -11911458.22849  -9234087.94546  21903869.029    21903869.027    21903881.322
       228.000         183.000
    938967.06849    731643.66447  21724471.544    21724470.621    21724480.998
       231.000         193.000
  -8538820.60849  -6615041.84247  20026486.418    20026486.663    20026495.370
       240.000         206.000
  -9632056.27249  -3475800.55645  23331725.537    23331725.104    23331736.955
       218.000         160.000
  -4460768.77749  -1426954.59645  24431696.872    24431696.485    24431714.233
       211.000         136.000
   1107209.46849    862518.24947  20907211.651    20907210.779    20907219.504
       239.000         207.000
  -7406154.71849  -5752193.77347  20796100.005    20796099.758    20796107.974
       242.000         209.000
 00  5  9 15 49 59.9980000  0  8G26G24G 2G 4G 5G16G 7G 9
   3816510.86649   2967169.18345  24295924.310    24295923.945    24295937.273
       215.000         155.000
 -12041627.69549  -9335518.59446  21879098.558    21879098.575    21879110.783
       231.000         183.000
    960739.56649    748609.11947  21728614.778    21728613.877    21728624.331
       232.000         192.000
  -8615266.75749  -6674610.24847  20011939.175    20011939.431    20011948.153
       240.000         206.000
  -9749302.80249  -3567161.41645  23309414.285    23309413.849    23309425.607
       220.000         161.000
  -4546133.20749  -1493472.14745  24415452.312    24415452.036    24415469.731
       203.000         148.000
   1128121.02249    878812.89147  20911191.005    20911190.162    20911198.929
       239.000         207.000
  -7470976.12849  -5802703.97947  20783764.945    20783764.690    20783772.902
       242.000         209.000
 00  5  9 15 50 29.9980000  0  8G26G24G 2G 4G 5G16G 7G 9
   3862021.18249   3002631.55145  24304584.839    24304584.402    24304597.920
       210.000         157.000
 -12171568.95049  -9436771.40546  21854371.526    21854371.527    21854383.647
       230.000         184.000
    982769.54249    765775.21347  21732807.000    21732806.138    21732816.633
       230.000         191.000
  -8691165.63449  -6733752.20547  19997496.115    19997496.353    19997505.062
       239.000         206.000
  -9866561.75249  -3658531.96045  23287100.681    23287100.191    23287111.932
       218.000         160.000
  -4631235.49249  -1559785.23645  24399257.305    24399257.214    24399275.283
       213.000         150.000
   1149173.71949    895217.51947  20915197.257    20915196.412    20915205.214
       239.000         207.000
  -7535276.68949  -5852808.33047  20771529.025    20771528.722    20771536.939
       243.000         209.000
 00  5  9 15 50 59.9980000  0  8G26G24G 2G 4G 5G16G 7G 9
   3907491.50349   3038062.66445  24313237.729    24313237.317    24313251.052
       208.000         158.000
 -12301279.69649  -9537844.60046  21829688.384    21829688.349    21829700.360
       230.000         184.000
   1005056.69649    783141.70747  21737048.203    21737047.317    21737057.889
       231.000         191.000
  -8766516.37649  -6792467.04847  19983157.331    19983157.560    19983166.283
       239.000         206.000
  -9983832.80349  -3749911.89145  23264784.577    23264784.189    23264795.926
       218.000         160.000
  -4716072.66449  -1625891.89845  24383113.674    24383113.382    24383131.332
       220.000         157.000
   1170365.62149    911730.61647  20919229.968    20919229.135    20919237.972
       239.000         206.000
  -7599055.33649  -5902505.99447  20759392.364    20759392.070    20759400.279
       242.000         210.000
 00  5  9 15 51 29.9980000  0  8G26G24G 2G 4G 5G16G 7G 9
   3952900.84349   3073446.39645  24321878.994    24321878.553    24321892.180
       209.000         140.000
 -12430775.54649  -9638750.34646  21805046.150    21805046.048    21805057.961
       230.000         184.000
   1027582.70649    800694.31847  21741334.777    21741333.936    21741344.581
       231.000         191.000
  -8841335.73449  -6850767.82847  19968919.662    19968919.894    19968928.605
       239.000         206.000
 -10101133.58049  -3841315.05545  23242462.961    23242462.565    23242474.223
       221.000         161.000
  -4800660.62849  -1691804.53545  24367017.249    24367016.875    24367034.451
       207.000         147.000
   1191677.25949    928337.01047  20923285.487    20923284.664    20923293.502
       239.000         206.000
  -7662329.44049  -5951810.51247  20747351.707    20747351.424    20747359.641
       242.000         210.000
 00  5  9 15 51 59.9980000  0  8G26G24G 2G 4G 5G16G 7G 9
   3998268.25049   3108797.39645  24330512.337    24330511.868    24330525.461
       217.000         157.000
 -12560032.06349  -9739469.60046  21780449.403    21780449.314    21780461.119
       231.000         185.000
   1050369.65149    818450.25747  21745671.055    21745670.228    21745680.912
       231.000         191.000
  -8915600.48749  -6908636.44747  19954787.609    19954787.805    19954796.433
       239.000         206.000
 -10218441.23149  -3932723.54445  23220139.979    23220139.609    23220151.200
       219.000         161.000
  -4884974.96549  -1757503.70645  24350972.173    24350972.073    24350989.725
       200.000         139.000
   1213128.93749    945052.52847  20927367.685    20927366.839    20927375.663
       239.000         206.000
  -7725075.81149  -6000703.80547  20735411.442    20735411.215    20735419.424
       242.000         210.000
 00  5  9 15 52 29.9980000  0  8G26G24G 2G 4G 5G16G 7G 9
   4043594.30649   3144116.11645  24339137.735    24339137.297    24339150.921
       211.000         148.000
 -12689043.19249  -9839997.63646  21755899.367    21755899.262    21755911.015
       232.000         185.000
   1073421.27549    836412.43847  21750057.795    21750056.908    21750067.649
       231.000         192.000
  -8989305.64849  -6966069.01547  19940761.936    19940762.164    19940770.768
       239.000         206.000
 -10335751.24349  -4024133.88845  23197816.656    23197816.241    23197827.748
       219.000         162.000
  -4969008.93849  -1822984.49645  24334980.846    24334980.676    24334998.141
       208.000         140.000
   1234722.82449    961878.85247  20931476.953    20931476.088    20931484.884
       239.000         206.000
  -7787290.01249  -6049182.42147  20723572.499    20723572.262    20723580.470
       242.000         210.000
 00  5  9 15 52 59.9980000  0  8G26G24G 2G 4G 5G16G 7G 9
   4088868.94349   3179394.87445  24347753.447    24347752.968    24347766.485
       212.000         149.000
 -12817813.71849  -9940338.19846  21731395.076    21731394.966    21731406.695
       231.000         185.000
   1096730.27649    854575.16547  21754493.468    21754492.560    21754503.327
       230.000         191.000
  -9062457.33549  -7023070.31147  19926841.638    19926841.855    19926850.447
       239.000         206.000
 -10453070.24349  -4115551.18945  23175491.532    23175491.108    23175502.657
       218.000         161.000
  -5052767.36349  -1888250.65045  24319042.222    24319041.965    24319059.264
       215.000         157.000
   1256450.34749    978809.29947  20935611.589    20935610.766    20935619.562
       239.000         206.000
  -7848978.47949  -6097251.37847  20711833.572    20711833.356    20711841.560
       242.000         210.000
 00  5  9 15 53 29.9980000  0  8G26G24G 2G 4G 5G16G 7G 9
   4134061.45049   3214609.59545  24356353.523    24356353.006    24356366.427
       210.000         149.000
 -12946368.87349 -10040510.93646  21706931.705    21706931.648    21706943.368
       232.000         186.000
   1120268.60749    872916.59847  21758972.765    21758971.844    21758982.623
       230.000         190.000
  -9135082.01649  -7079660.95947  19913021.562    19913021.800    19913030.423
       239.000         207.000
 -10570425.38749  -4206996.68445  23153159.531    23153159.116    23153170.622
       219.000         162.000
  -5136275.48849  -1953321.61345  24303151.132    24303150.878    24303168.272
       212.000         158.000
   1278282.08749    995820.95147  20939766.105    20939765.263    20939774.059
       240.000         206.000
  -7910167.88749  -6144931.45247  20700189.628    20700189.414    20700197.615
       242.000         209.000
 00  5  9 15 53 59.9970000  0  8G26G24G 2G 4G 5G16G 7G 9
   4179183.71949   3249769.59445  24364940.155    24364939.651    24364953.069
       214.000         150.000
 -13074685.51749 -10140497.83146  21682513.859    21682513.745    21682525.448
       232.000         186.000
   1144052.11349    891449.06347  21763498.663    21763497.771    21763508.548
       229.000         190.000
  -9207159.90849  -7135825.53947  19899305.639    19899305.860    19899314.450
       240.000         207.000
 -10687795.49149  -4298453.80545  23130824.679    23130824.270    23130835.754
       219.000         160.000
  -5219511.47848  -2018180.53545  24287311.470    24287311.365    24287328.962
       190.000         139.000
   1300232.25949   1012924.88947  20943943.164    20943942.315    20943951.119
       239.000         207.000
  -7970838.84049  -6192207.54047  20688644.406    20688644.150    20688652.298
       243.000         210.000
 00  5  9 15 54 29.9970000  0  8G26G24G 2G 4G 5G16G 7G 9
   4224196.59449   3284844.38445  24373506.057    24373505.555    24373518.845
       210.000         149.000
 -13202809.24249 -10240334.39646  21658132.690    21658132.561    21658144.205
       233.000         186.000
   1168042.91249    910143.05947  21768064.006    21768063.150    21768073.938
       230.000         190.000
  -9278733.71149  -7191597.32547  19885685.654    19885685.833    19885694.379
       240.000         207.000
 -10805227.19449  -4389958.96346  23108478.050    23108477.708    23108489.177
       219.000         163.000
  -5302517.72649  -2082860.54744  24271515.419    24271515.482    24271532.732
       209.000         127.000
   1322261.78849   1030090.66647  20948135.312    20948134.460    20948143.301
       239.000         206.000
  -8031033.87549  -6239112.78047  20677189.695    20677189.439    20677197.552
       242.000         210.000
 00  5  9 15 54 59.9970000  0  8G26G24G 2G 4G 5G16G 7G 9
   4269127.60849   3319855.23545  24382056.215    24382055.788    24382069.309
       212.000         155.000
 -13330701.15249 -10339990.33746  21633795.600    21633795.490    21633807.075
       233.000         186.000
   1192272.10449    929022.81147  21772674.814    21772673.928    21772684.704
       230.000         190.000
  -9349767.84749  -7246948.58047  19872168.297    19872168.463    19872176.993
       240.000         207.000
 -10922683.51249  -4481483.29646  23086126.837    23086126.485    23086137.918
       220.000         163.000
  -5385256.58149  -2147332.35645  24255770.682    24255770.766    24255787.460
       211.000         144.000
   1344400.32049   1047341.39147  20952348.219    20952347.367    20952356.214
       240.000         206.000
  -8090718.01249  -6285619.90947  20665832.231    20665831.962    20665840.052
       243.000         210.000
 00  5  9 15 55 29.9970000  0  8G26G24G 2G 4G 5G16G 7G 9
   4314004.39949   3354824.05245  24390596.326    24390595.791    24390609.138
       209.000         145.000
 -13458328.11049 -10439439.81246  21609508.895    21609508.805    21609520.370
       233.000         186.000
   1216770.20749    948112.10847  21777336.828    21777335.885    21777346.671
       230.000         190.000
  -9420230.72449  -7301854.71447  19858759.599    19858759.803    19858768.370
       240.000         207.000
 -11040133.15649  -4573002.43146  23063776.913    23063776.532    23063787.974
       217.000         163.000
  -5467695.24449  -2211570.08745  24240082.975    24240083.078    24240099.954
       207.000         151.000
   1366676.94849   1064699.71847  20956587.430    20956586.558    20956595.398
       240.000         205.000
  -8149859.78349  -6331704.41647  20654577.955    20654577.686    20654585.756
       243.000         209.000
 00  5  9 15 55 59.9970000  0  8G26G24G 2G 4G 5G16G 7G 9
   4358837.53849   3389758.69945  24399127.748    24399127.224    24399140.843
       212.000         152.000
 -13585674.47949 -10538670.66446  21585275.558    21585275.517    21585287.063
       231.000         186.000
   1241550.60249    967421.37247  21782052.477    21782051.526    21782062.414
       229.000         190.000
  -9490107.82549  -7356304.39847  19845462.458    19845462.664    19845471.222
       241.000         208.000
 -11157562.43149  -4664505.67045  23041430.758    23041430.406    23041441.853
       218.000         162.000
  -5549817.76749  -2275561.47445  24224454.954    24224455.320    24224472.661
       199.000         147.000
   1389103.71449   1082175.03547  20960855.204    20960854.321    20960863.148
       239.000         206.000
  -8208444.99649  -6377355.24447  20643429.617    20643429.338    20643437.360
       243.000         210.000
 00  5  9 15 56 29.9970000  0  8G26G24G 2G 4G 5G16G 7G 9
   4403572.91449   3424617.21645  24407640.904    24407640.370    24407654.075
       210.000         156.000
 -13712788.95749 -10637720.82546  21561086.351    21561086.372    21561097.897
       232.000         186.000
   1266562.06449    986910.69847  21786812.096    21786811.144    21786822.159
       229.000         191.000
  -9559449.16349  -7410336.60547  19832267.334    19832267.473    19832276.014
       241.000         208.000
 -11275021.23449  -4756031.94145  23019078.938    23019078.658    23019090.079
       216.000         161.000
  -5631672.19949  -2339343.96545  24208878.277    24208878.633    24208896.220
       211.000         147.000
   1411628.01249   1099726.34847  20965141.509    20965140.645    20965149.454
       240.000         205.000
  -8266523.75649  -6422611.43447  20632377.566    20632377.327    20632385.349
       243.000         209.000
 00  5  9 15 56 59.9970000  0  8G26G24G 2G 4G 5G16G 7G 9
   4448237.19549   3459420.33645  24416140.309    24416139.770    24416153.636
       211.000         142.000
 -13839639.51449 -10736565.33446  21536947.471    21536947.450    21536958.971
       232.000         186.000
   1291833.91749   1006602.91447  21791621.197    21791620.305    21791631.431
       229.000         190.000
  -9628224.31849  -7463927.63747  19819179.811    19819179.988    19819188.529
       240.000         207.000
 -11392479.68449  -4847557.93945  22996727.258    22996726.987    22996738.418
       218.000         162.000
  -5713227.07349  -2402893.21545  24193359.251    24193359.324    24193376.616
       213.000         142.000
   1434278.01849   1117375.61247  20969451.814    20969450.884    20969459.695
       240.000         206.000
  -8324065.98049  -6467449.54747  20621427.635    20621427.427    20621435.435
       243.000         209.000
 00  5  9 15 57 29.9970000  0  8G26G24G 2G 4G 5G16G 7G 9
   4492828.53749   3494166.65645  24424625.994    24424625.423    24424639.340
       215.000         160.000
 -13966222.65249 -10835201.46946  21512859.438    21512859.456    21512870.912
       233.000         186.000
   1317367.46749   1026499.05347  21796480.187    21796479.286    21796490.461
       230.000         189.000
  -9696431.00349  -7517075.69547  19806200.517    19806200.690    19806209.178
       240.000         206.000
 -11509935.64949  -4939082.00445  22974376.078    22974375.805    22974387.192
       219.000         162.000
  -5794478.17949  -2466205.93445  24177897.707    24177897.693    24177914.301
       211.000         145.000
   1457053.28149   1135122.48447  20973785.853    20973784.966    20973793.746
       239.000         205.000
  -8381069.55749  -6511867.93347  20610580.238    20610580.026    20610588.019
       243.000         210.000
 00  5  9 15 57 59.9970000  0  8G26G24G 2G 4G 5G16G 7G 9
   4537354.06249   3528861.52145  24433099.061    24433098.495    24433112.646
       204.000         151.000
 -14092525.99249 -10933619.58846  21488824.702    21488824.690    21488836.097
       232.000         186.000
   1343172.23149   1046606.51747  21801390.781    21801389.881    21801401.043
       230.000         188.000
  -9764058.55149  -7569772.48047  19793331.381    19793331.576    19793340.057
       240.000         207.000
 -11627378.56649  -5030595.88945  22952027.305    22952027.071    22952038.411
       221.000         162.000
  -5875413.76749  -2529272.57045  24162496.063    24162496.057    24162512.899
       205.000         154.000
   1479962.26049   1152973.54047  20978145.329    20978144.465    20978153.241
       240.000         205.000
  -8437523.86949  -6555858.31747  20599837.331    20599837.143    20599845.132
       243.000         209.000
 00  5  9 15 58 29.9970000  0  8G26G24G 2G 4G 5G16G 7G 9
   4581824.84049   3563513.95445  24441561.801    24441561.239    24441575.248
       213.000         140.000
 -14218533.16149 -11031806.92746  21464846.269    21464846.302    21464857.620
       232.000         186.000
   1369262.29449   1066936.30047  21806355.746    21806354.788    21806365.895
       230.000         188.000
  -9831091.86449  -7622006.22747  19780575.413    19780575.582    19780584.055
       240.000         207.000
 -11744793.58249  -5122088.04445  22929683.984    22929683.678    22929694.951
       220.000         161.000
  -5956016.90949  -2592080.24845  24147157.949    24147157.780    24147174.896
       205.000         155.000
   1503017.64849   1170938.68647  20982532.694    20982531.833    20982540.610
       240.000         205.000
  -8493414.25849  -6599409.28047  20589201.792    20589201.574    20589209.542
       243.000         209.000
 00  5  9 15 58 59.9970000  0  8G26G24G 2G 4G 5G16G 7G 9
   4626195.20549   3598088.04945  24450005.303    24450004.782    24450018.806
       202.000         146.000
 -14344284.66249 -11129795.04646  21440916.542    21440916.541    21440927.770
       232.000         187.000
   1395594.64649   1087454.87446  21811366.745    21811365.776    21811376.865
       229.000         187.000
  -9897572.76649  -7673809.52447  19767924.522    19767924.704    19767933.165
       240.000         207.000
 -11862222.85649  -5213591.32045  22907337.919    22907337.617    22907348.794
       220.000         160.000
  -6036328.00049  -2654660.44545  24131874.894    24131874.886    24131892.204
       201.000         132.000
   1526175.26049   1188983.48047  20986939.478    20986938.650    20986947.430
       239.000         204.000
  -8548782.54249  -6642553.41747  20578665.567    20578665.343    20578673.327
       242.000         209.000
 00  5  9 15 59 29.9970000  0  8G26G24G 2G 4G 5G16G 7G 9
   4670500.63149   3632611.45945  24458436.565    24458436.036    24458450.201
       215.000         156.000
 -14469739.60649 -11227552.08546  21417043.201    21417043.211    21417054.347
       234.000         187.000
   1422207.49549   1108192.01746  21816431.115    21816430.152    21816441.222
       230.000         187.000
  -9963462.10749  -7725151.85947  19755386.176    19755386.371    19755394.835
       240.000         207.000
 -11979627.01249  -5305075.01945  22884996.607    22884996.291    22885007.458
       220.000         161.000
  -6116306.14849  -2716981.27645  24116655.875    24116655.582    24116672.380
       213.000         150.000
   1549471.87049   1207136.60347  20991372.756    20991371.923    20991380.687
       240.000         204.000
  -8603589.81149  -6685260.38947  20568236.090    20568235.869    20568243.838
       242.000         208.000
 00  5  9 15 59 59.9970000  0  8G26G24G 2G 4G 5G16G 7G 9
   4714711.05149   3667061.11545  24466849.982    24466849.273    24466863.073
       210.000         148.000
 -14594922.72449 -11325097.31747  21393221.665    21393221.617    21393232.632
       234.000         188.000
   1449073.54949   1129126.45246  21821543.694    21821542.734    21821553.774
       230.000         187.000
 -10028786.10849  -7776053.67247  19742955.418    19742955.609    19742964.075
       240.000         206.000
 -12097032.49549  -5396559.76745  22862655.065    22862654.716    22862665.785
       221.000         162.000
  -6195975.74849  -2779061.64445  24101495.877    24101495.313    24101511.833
       211.000         157.000
   1572879.15049   1225375.95647  20995827.150    20995826.270    20995835.006
       240.000         204.000
  -8657862.76849  -6727551.03447  20557908.311    20557908.083    20557916.023
       243.000         208.000
 00  5  9 16  0 29.9970000  0  8G26G24G 2G 4G 5G16G 7G 9
   4758832.41049   3701441.04545  24475246.134    24475245.481    24475259.560
       208.000         158.000
 -14719823.12249 -11422422.24847  21369453.937    21369453.832    21369464.730
       234.000         189.000
   1476201.08249   1150264.64346  21826706.045    21826705.051    21826716.081
       229.000         186.000
 -10093535.15349  -7826507.47147  19730634.049    19730634.283    19730642.722
       239.000         207.000
 -12214429.80349  -5488038.15045  22840315.098    22840314.750    22840325.730
       221.000         162.000
  -6275325.94849  -2840893.08145  24086395.943    24086395.469    24086411.895
       207.000         143.000
   1596404.14049   1243707.03547  21000303.897    21000303.019    21000311.725
       240.000         204.000
  -8711592.01249  -6769417.99847  20547683.960    20547683.760    20547691.690
       242.000         208.000
 00  5  9 16  0 59.9970000  0  8G26G24G 2G 4G 5G16G 7G 9
   4802857.22049   3735745.85245  24483624.001    24483623.372    24483637.547
       204.000         152.000
 -14844442.84149 -11519528.47147  21345739.530    21345739.443    21345750.305
       234.000         190.000
   1503585.64249   1171603.11846  21831917.287    21831916.277    21831927.317
       229.000         186.000
 -10157712.96749  -7876516.15247  19718421.438    19718421.645    19718430.074
       239.000         206.000
 -12331822.41249  -5579512.88746  22817975.995    22817975.659    22817986.588
       221.000         163.000
  -6354358.53648  -2902477.00145  24071356.213    24071355.745    24071372.272
       194.000         145.000
   1620041.26849   1262125.48847  21004801.981    21004801.100    21004809.816
       239.000         204.000
  -8764781.21449  -6810864.15547  20537562.415    20537562.209    20537570.137
       242.000         209.000
 00  5  9 16  1 29.9970000  0  8G26G24G 2G 4G 5G16G 7G 9
   4846783.93349   3769974.30245  24491983.101    24491982.457    24491996.586
       212.000         149.000
 -14968778.65949 -11616413.46847  21322079.171    21322079.087    21322089.910
       234.000         191.000
   1531227.86849   1193142.37346  21837177.521    21837176.527    21837187.589
       229.000         186.000
 -10221317.58349  -7926078.18647  19706317.878    19706318.083    19706326.520
       239.000         207.000
 -12449208.63049  -5670982.59246  22795638.140    22795637.794    22795648.652
       222.000         164.000
  -6433070.19149  -2963810.80345  24056377.753    24056377.284    24056394.142
       210.000         150.000
   1643790.05549   1280630.95447  21009321.269    21009320.418    21009329.146
       239.000         204.000
  -8817428.57149  -6851888.09347  20527544.009    20527543.771    20527551.711
       243.000         209.000
 00  5  9 16  1 59.9970000  0  8G26G24G 2G 4G 5G16G 7G 9
   4890605.07149   3804120.39745  24500322.039    24500321.509    24500335.781
       202.000         150.000
 -15092832.40049 -11713078.67147  21298472.437    21298472.377    21298483.200
       234.000         191.000
   1559123.38149   1214878.99346  21842485.952    21842484.987    21842496.061
       229.000         186.000
 -10284352.82649  -7975196.55147  19694322.679    19694322.864    19694331.319
       239.000         207.000
 -12566592.09549  -5762450.17846  22773300.771    22773300.435    22773311.309
       223.000         165.000
  -6511462.53849  -3024895.83545  24041460.454    24041459.866    24041476.506
       208.000         146.000
   1667644.72749   1299218.92247  21013860.678    21013859.852    21013868.673
       238.000         204.000
  -8869538.12849  -6892492.96047  20517627.890    20517627.659    20517635.631
       243.000         210.000
 00  5  9 16  2 29.9970000  0  8G26G24G 2G 4G 5G16G 7G 9
   4934331.25949   3838192.42245  24508642.824    24508642.313    24508657.007
       213.000         148.000
 -15216588.40849 -11809511.87947  21274922.370    21274922.329    21274933.158
       235.000         191.000
   1587285.27549   1236823.17246  21847845.120    21847844.131    21847855.213
       229.000         185.000
 -10346804.56349  -8023860.23847  19682438.500    19682438.699    19682447.130
       240.000         207.000
 -12683958.73349  -5853904.66346  22750966.616    22750966.291    22750977.142
       222.000         165.000
  -6589520.10949  -3085720.01345  24026606.672    24026606.072    24026622.503
       203.000         144.000
   1691617.25649   1317898.72547  21018422.506    21018421.725    21018430.616
       238.000         204.000
  -8921096.01049  -6932667.96047  20507816.798    20507816.561    20507824.534
       242.000         210.000
 00  5  9 16  2 59.9970000  0  8G26G24G 2G 4G 5G16G 7G 9
   4977959.90049   3872188.66645  24516945.445    24516944.913    24516959.411
       210.000         145.000
 -15340043.93249 -11905710.93447  21251429.532    21251429.488    21251440.302
       235.000         192.000
   1615713.85749   1258975.16846  21853254.980    21853254.005    21853265.138
       227.000         184.000
 -10408671.66149  -8072068.36147  19670665.578    19670665.787    19670674.207
       240.000         207.000
 -12801307.01149  -5945344.79746  22728635.921    22728635.629    22728646.450
       220.000         164.000
  -6667240.32749  -3146281.16745  24011816.601    24011816.226    24011832.948
       205.000         146.000
   1715706.66849   1336669.60147  21023006.618    21023005.842    21023014.793
       238.000         204.000
  -8972101.10849  -6972412.21347  20498110.836    20498110.630    20498118.609
       242.000         209.000
 00  5  9 16  3 29.9970000  0  8G26G24G 2G 4G 5G16G 7G 9
   5021487.31449   3906105.85345  24525228.608    24525228.056    24525242.568
       205.000         147.000
 -15463197.77949 -12001674.91347  21227994.091    21227994.057    21228004.834
       235.000         192.000
   1644407.91549   1281334.03746  21858715.196    21858714.368    21858725.565
       227.000         184.000
 -10469954.34649  -8119821.09747  19659003.886    19659004.077    19659012.500
       239.000         207.000
 -12918636.83149  -6036770.57146  22706308.721    22706308.447    22706319.278
       220.000         166.000
  -6744621.43549  -3206578.04245  23997091.370    23997091.003    23997108.079
       210.000         153.000
   1739910.59149   1355529.71047  21027612.543    21027611.761    21027620.757
       239.000         204.000
  -9022554.10649  -7011726.26747  20488509.926    20488509.746    20488517.742
       242.000         209.000
 00  5  9 16  3 59.9970000  0  8G26G24G 2G 4G 5G16G 7G 9
   5064910.68849   3939942.01745  24533491.980    24533491.457    24533505.752
       210.000         142.000
 -15586047.56249 -12097401.95847  21204616.507    21204616.482    21204627.239
       235.000         192.000
   1673367.04149   1303899.43246  21864225.971    21864225.170    21864236.436
       228.000         184.000
 -10530651.95249  -8167117.93047  19647453.496    19647453.714    19647462.149
       239.000         207.000
 -13035947.63049  -6128181.51046  22683985.068    22683984.859    22683995.777
       221.000         166.000
  -6821660.96649  -3266608.94545  23982431.749    23982431.132    23982447.824
       216.000         154.000
   1764227.52249   1374477.87747  21032239.978    21032239.187    21032248.226
       239.000         204.000
  -9072454.47849  -7050609.70647  20479014.135    20479013.996    20479022.057
       242.000         210.000
 00  5  9 16  4 29.9970000  0  8G26G24G 2G 4G 5G16G 7G 9
   5108222.03749   3973691.00445  24541733.998    24541733.480    24541747.615
       203.000         140.000
 -15708596.07649 -12192894.24747  21181296.241    21181296.233    21181306.971
       235.000         192.000
   1702586.00549   1326667.30046  21869786.247    21869785.448    21869796.726
       228.000         185.000
 -10590769.06449  -8213962.42747  19636013.577    19636013.816    19636022.235
       239.000         207.000
 -13153243.70649  -6219581.00446  22661664.333    22661664.110    22661675.069
       223.000         168.000
  -6898362.28349  -3326376.22745  23967836.123    23967835.567    23967852.029
       204.000         152.000
   1788651.29549   1393509.29747  21036887.749    21036886.954    21036896.023
       239.000         204.000
  -9121806.92449  -7089066.18747  20469622.669    20469622.550    20469630.658
       242.000         210.000
 00  5  9 16  4 59.9970000  0  8G26G24G 2G 4G 5G16G 7G 9
   5151419.45649   4007351.02245  24549954.049    24549953.707    24549967.990
       203.000         140.000
 -15830840.12249 -12288149.28547  21158033.914    21158033.931    21158044.630
       234.000         192.000
   1732065.49949   1349638.17946  21875396.231    21875395.326    21875406.620
       228.000         184.000
 -10650304.05649  -8260353.32447  19624684.459    19624684.687    19624693.098
       239.000         207.000
 -13270523.12749  -6310967.52046  22639346.790    22639346.531    22639357.483
       222.000         170.000
  -6974721.52849  -3385876.84045  23953304.985    23953304.623    23953321.519
       208.000         153.000
   1813181.38449   1412623.57347  21041555.771    21041554.956    21041564.073
       239.000         204.000
  -9170609.88549  -7127094.50147  20460335.767    20460335.654    20460343.816
       242.000         210.000
 00  5  9 16  5 29.9970000  0  8G26G24G 2G 4G 5G16G 7G 9
   5194509.19649   4040927.25745  24558153.991    24558153.556    24558168.099
       207.000         146.000
 -15952768.60049 -12383158.42547  21134831.678    21134831.664    21134842.350
       235.000         192.000
   1761814.00449   1372818.68046  21881057.383    21881056.424    21881067.684
       228.000         184.000
 -10709247.51249  -8306283.28547  19613467.903    19613468.110    19613476.542
       239.000         208.000
 -13387776.10949  -6402333.41346  22617034.237    22617033.977    22617044.945
       222.000         168.000
  -7050727.60849  -3445102.32745  23938841.540    23938841.173    23938858.191
       214.000         149.000
   1837825.17849   1431826.44147  21046245.363    21046244.572    21046253.736
       238.000         203.000
  -9218854.25549  -7164687.54447  20451155.188    20451155.062    20451163.246
       242.000         210.000
 00  5  9 16  5 59.9970000  0  8G26G24G 2G 4G 5G16G 7G 9
   5237484.63149   4074414.47945  24566332.064    24566331.600    24566346.366
       206.000         144.000
 -16074382.94249 -12477922.77947  21111689.169    21111689.183    21111699.880
       234.000         192.000
   1791827.76149   1396205.87646  21886768.920    21886767.962    21886779.256
       225.000         183.000
 -10767602.54149  -8351754.72747  19602363.292    19602363.530    19602371.931
       240.000         207.000
 -13505005.14149  -6493680.66646  22594726.246    22594725.978    22594736.950
       222.000         169.000
  -7126381.75149  -3504053.72145  23924445.258    23924444.716    23924461.102
       209.000         146.000
   1862577.97849   1451114.24547  21050955.711    21050954.938    21050964.139
       238.000         202.000
  -9266543.32549  -7201847.89047  20442080.293    20442080.139    20442088.298
       242.000         209.000
 00  5  9 16  6 29.9970000  0  8G26G24G 2G 4G 5G16G 7G 9
   5280340.09849   4107808.12245  24574487.146    24574486.818    24574501.800
       203.000         146.000
 -16195683.51049 -12572442.63147  21088606.396    21088606.387    21088617.133
       234.000         192.000
   1822103.54749   1419797.23646  21892530.268    21892529.348    21892540.705
       226.000         182.000
 -10825371.41349  -8396769.42647  19591370.329    19591370.506    19591378.862
       240.000         208.000
 -13622212.51349  -6585011.02246  22572422.346    22572422.103    22572433.084
       223.000         169.000
  -7201684.63249  -3562731.24445  23910115.661    23910115.090    23910131.507
       211.000         156.000
   1887435.36349   1470483.53947  21055685.997    21055685.206    21055694.414
       238.000         202.000
  -9313679.48549  -7238577.39847  20433110.613    20433110.444    20433118.593
       242.000         209.000
 00  5  9 16  6 59.9970000  0  8G26G24G 2G 4G 5G16G 7G 9
   5323057.77149   4141094.37345  24582615.766    24582615.642    24582630.888
       205.000         135.000
 -16316683.30649 -12666728.11847  21065580.766    21065580.811    21065591.618
       233.000         192.000
   1852626.12849   1443580.90646  21898338.639    21898337.725    21898349.116
       227.000         183.000
 -10882568.68049  -8441338.72247  19580486.080    19580486.266    19580494.612
       240.000         208.000
 -13739412.39649  -6676335.57146  22550119.925    22550119.656    22550130.669
       222.000         168.000
  -7276648.72649  -3621144.74845  23895850.399    23895849.891    23895866.695
       207.000         153.000
   1912381.08149   1489921.65747  21060433.076    21060432.291    21060441.523
       237.000         202.000
  -9360277.26949  -7274887.39447  20424243.373    20424243.195    20424251.335
       242.000         210.000
 00  5  9 16  7 29.9970000  0  8G26G24G 2G 4G 5G16G 7G 9
   5365648.15449   4174281.53645  24590720.813    24590720.525    24590735.855
       212.000         150.000
 -16437366.83649 -12760767.15247  21042615.330    21042615.404    21042626.300
       234.000         193.000
   1883408.37549   1467566.91346  21904196.476    21904195.507    21904206.931
       227.000         183.000
 -10939180.69849  -8485451.97447  19569713.250    19569713.402    19569721.665
       241.000         208.000
 -13856590.67949  -6767643.27346  22527821.578    22527821.298    22527832.351
       221.000         168.000
  -7351258.81049  -3679282.39145  23881652.460    23881651.929    23881668.950
       209.000         147.000
   1937426.89849   1509437.78047  21065199.235    21065198.425    21065207.678
       237.000         202.000
  -9406323.28749  -7310767.43447  20415481.125    20415480.951    20415489.096
       242.000         210.000
 00  5  9 16  7 59.9970000  0  8G26G24G 2G 4G 5G16G 7G 9
   5408107.29049   4207366.31845  24598800.688    24598800.464    24598815.686
       205.000         132.000
 -16557733.24349 -12854559.08047  21019710.348    21019710.388    21019721.314
       235.000         192.000
   1914448.60349   1491753.94246  21910103.417    21910102.406    21910113.806
       227.000         182.000
 -10995208.55549  -8529110.03547  19559051.541    19559051.681    19559059.896
       240.000         208.000
 -13973747.89349  -6858934.55146  22505527.207    22505526.955    22505538.012
       222.000         168.000
  -7425513.90249  -3737143.54245  23867522.201    23867521.551    23867538.455
       213.000         149.000
   1962570.26949   1529029.91347  21069983.940    21069983.128    21069992.392
       237.000         202.000
  -9451818.67749  -7346218.41747  20406823.683    20406823.500    20406831.647
       242.000         210.000
 00  5  9 16  8 29.9970000  0  8G26G24G 2G 4G 5G16G 7G 9
   5450435.67549   4240349.32345  24606855.660    24606855.384    24606870.423
       210.000         136.000
 -16677776.54549 -12948099.23447  20996866.773    20996866.854    20996877.765
       235.000         192.000
   1945750.03149   1516144.51446  21916060.028    21916058.985    21916070.373
       227.000         182.000
 -11050648.04049  -8572309.63047  19548501.769    19548501.917    19548510.126
       240.000         207.000
 -14090879.45649  -6950205.85046  22483237.839    22483237.501    22483248.574
       222.000         169.000
  -7499408.04349  -3794723.35145  23853460.981    23853460.188    23853477.040
       214.000         158.000
   1987813.56049   1548699.91747  21074787.663    21074786.844    21074796.127
       237.000         202.000
  -9496759.73049  -7381237.44447  20398271.735    20398271.529    20398279.671
       242.000         209.000
 00  5  9 16  8 59.9970000  0  8G26G24G 2G 4G 5G16G 7G 9
   5492648.42549   4273242.32845  24614888.713    24614888.376    24614903.351
       205.000         137.000
 -16797477.11149 -13041372.32647  20974088.449    20974088.541    20974099.408
       235.000         192.000
   1977330.02249   1540752.13646  21922069.603    21922068.579    21922080.028
       226.000         182.000
 -11105481.17349  -8615036.74947  19538067.370    19538067.513    19538075.698
       240.000         207.000
 -14207966.71249  -7041442.63546  22460956.827    22460956.504    22460967.527
       222.000         170.000
  -7572921.50349  -3852006.45045  23839471.807    23839471.025    23839488.035
       204.000         150.000
   2013173.04649   1568460.45347  21079613.472    21079612.661    21079621.977
       237.000         201.000
  -9541128.28349  -7415810.36947  20389828.683    20389828.485    20389836.645
       243.000         209.000
 00  5  9 16  9 29.9970000  0  7G24G 2G 4G 5G16G 7G 9
 -16916850.25149 -13134390.28247  20951372.466    20951372.540    20951383.331
       235.000         193.000
   2009170.48949   1565562.72846  21928128.719    21928127.732    21928139.263
       226.000         182.000
 -11159725.19549  -8657304.81647  19527745.059    19527745.243    19527753.364
       239.000         207.000
 -14325026.40849  -7132657.93846  22438681.129    22438680.764    22438691.751
       224.000         171.000
  -7646069.51549  -3909004.86245  23825551.940    23825551.384    23825568.275
       210.000         148.000
   2038629.75349   1588296.74647  21084457.763    21084456.968    21084466.322
       236.000         200.000
  -9584941.96349  -7449950.92647  20381491.197    20381491.037    20381499.188
       243.000         209.000
 00  5  9 16  9 59.9970000  0  7G24G 2G 4G 5G16G 7G 9
 -17035911.32449 -13227165.07047  20928715.872    20928715.930    20928726.665
       236.000         193.000
   2041253.72049   1590562.48846  21934234.028    21934233.087    21934244.685
       225.000         182.000
 -11213397.45349  -8699127.35147  19517531.556    19517531.755    19517539.827
       239.000         207.000
 -14442075.03349  -7223864.60946  22416407.494    22416407.116    22416418.093
       223.000         171.000
  -7718867.45049  -3965730.47245  23811699.022    23811698.475    23811715.239
       211.000         153.000
   2064165.02749   1608194.26647  21089317.038    21089316.238    21089325.577
       237.000         200.000
  -9628217.68049  -7483672.28647  20373256.116    20373255.960    20373264.132
       243.000         209.000
 00  5  9 16 10 29.9970000  0  7G24G 2G 4G 5G16G 7G 9
 -17154647.22949 -13319686.48047  20906121.108    20906121.190    20906131.916
       236.000         194.000
   2073590.15649   1615759.53846  21940387.636    21940386.651    21940398.265
       226.000         182.000
 -11266486.61749  -8740495.53047  19507428.949    19507429.194    19507437.260
       239.000         207.000
 -14559100.67049  -7315053.38446  22394138.194    22394137.828    22394148.771
       222.000         170.000
  -7791302.10449  -4022172.95145  23797914.981    23797914.573    23797931.378
       207.000         151.000
   2089788.33749   1628160.37647  21094193.043    21094192.265    21094201.598
       236.000         200.000
  -9670944.60149  -7516966.01847  20365125.474    20365125.326    20365133.518
       243.000         209.000
 00  5  9 16 10 59.9970000  0  7G24G 2G 4G 5G16G 7G 9
 -17273040.33349 -13411940.78447  20883591.633    20883591.703    20883602.425
       236.000         195.000
   2106194.85949   1641165.63446  21946592.269    21946591.266    21946602.896
       226.000         182.000
 -11318976.74049  -8781396.92647  19497440.359    19497440.640    19497448.730
       239.000         207.000
 -14676086.79849  -7406211.38346  22371876.431    22371876.079    22371886.953
       223.000         169.000
  -7863355.93549  -4078318.72345  23784203.451    23784203.058    23784219.897
       204.000         146.000
   2115513.97249   1648206.22547  21099088.552    21099087.767    21099097.084
       236.000         200.000
  -9713107.13549  -7549819.96647  20357102.266    20357102.094    20357110.263
       243.000         209.000
 00  5  9 16 11 29.9970000  0  7G24G 2G 4G 5G16G 7G 9
 -17391076.87749 -13503917.24447  20861130.020    20861130.075    20861140.808
       237.000         196.000
   2139079.27349   1666789.67446  21952850.092    21952849.095    21952860.765
       226.000         183.000
 -11370856.29749  -8821822.56047  19487567.989    19487568.269    19487576.385
       239.000         207.000
 -14793020.71749  -7497328.68346  22349624.586    22349624.263    22349635.067
       223.000         169.000
  -7935014.89049  -4134156.79345  23770567.113    23770566.687    23770583.612
       206.000         148.000
   2141352.28649   1668339.87647  21104005.465    21104004.710    21104014.052
       236.000         200.000
  -9754693.34849  -7582224.83847  20349188.704    20349188.541    20349196.668
       244.000         209.000
 00  5  9 16 11 59.9970000  0  7G24G 2G 4G 5G16G 7G 9
 -17508774.82449 -13595629.86447  20838732.825    20838732.874    20838743.620
       237.000         196.000
   2172222.73349   1692615.58146  21959157.230    21959156.232    21959167.943
       226.000         182.000
 -11422144.95349  -8861787.74647  19477808.106    19477808.370    19477816.495
       239.000         207.000
 -14909921.45449  -7588420.11146  22327379.068    22327378.751    22327389.521
       222.000         170.000
  -8006297.24549  -4189701.39045  23757002.499    23757002.029    23757018.978
       204.000         150.000
   2167281.92549   1688544.69247  21108939.745    21108938.999    21108948.393
       236.000         200.000
  -9795723.40549  -7614196.34147  20341380.994    20341380.817    20341388.909
       244.000         209.000
 00  5  9 16 12 29.9970000  0  7G24G 2G 4G 5G16G 7G 9
 -17626138.58949 -13687082.09447  20816399.222    20816399.255    20816410.013
       238.000         196.000
   2205618.07149   1718637.73946  21965512.284    21965511.290    21965523.072
       225.000         181.000
 -11472849.27049  -8901297.61047  19468159.396    19468159.653    19468167.798
       238.000         207.000
 -15026794.97649  -7679490.33246  22305138.704    22305138.412    22305149.132
       224.000         170.000
  -8077207.38649  -4244955.89745  23743508.562    23743508.149    23743525.154
       208.000         151.000
   2193294.90649   1708814.44747  21113889.897    21113889.164    21113898.598
       236.000         199.000
  -9836203.82949  -7645739.56647  20333677.890    20333677.692    20333685.735
       244.000         209.000
 00  5  9 16 12 59.9970000  0  7G24G 2G 4G 5G16G 7G 9
 -17743162.23249 -13778269.29447  20794130.329    20794130.357    20794141.079
       238.000         197.000
   2239269.00049   1744859.07146  21971915.918    21971914.975    21971926.853
       226.000         182.000
 -11522965.10549  -8940348.91447  19458622.650    19458622.916    19458631.067
       238.000         207.000
 -15143636.28449  -7770535.46146  22282904.502    22282904.197    22282914.911
       223.000         173.000
  -8147739.02949  -4299915.47245  23730086.898    23730086.436    23730103.524
       207.000         155.000
   2219394.12049   1729151.40047  21118856.474    21118855.737    21118865.205
       236.000         200.000
  -9876130.67449  -7676851.41947  20326080.069    20326079.900    20326087.923
       244.000         210.000
 00  5  9 16 13 29.9970000  0  7G24G 2G 4G 5G16G 7G 9
 -17859842.79549 -13869189.16247  20771926.726    20771926.737    20771937.396
       238.000         196.000
   2273175.70649   1771279.69546  21978368.312    21978367.354    21978379.309
       225.000         181.000
 -11572491.59649  -8978940.99447  19449198.063    19449198.333    19449206.515
       239.000         208.000
 -15260443.54349  -7861554.06146  22260676.799    22260676.499    22260687.224
       223.000         173.000
  -8217889.60749  -4354578.14845  23716737.424    23716737.073    23716754.230
       207.000         150.000
   2245578.91249   1749555.04047  21123839.407    21123838.623    21123848.135
       236.000         200.000
  -9915503.23549  -7707531.36847  20318587.779    20318587.596    20318595.610
       245.000         210.000
 00  5  9 16 13 59.9970000  0  7G24G 2G 4G 5G16G 7G 9
 -17976177.97449 -13959839.90247  20749788.805    20749788.854    20749799.431
       239.000         196.000
   2307338.05649   1797899.51646  21984869.426    21984868.394    21984880.360
       226.000         182.000
 -11621428.28649  -9017073.48647  19439885.753    19439886.006    19439894.200
       239.000         208.000
 -15377215.59949  -7952545.20246  22238455.854    22238455.521    22238466.230
       224.000         173.000
  -8287656.56049  -4408941.94945  23703461.018    23703460.764    23703477.675
       213.000         152.000
   2271848.41349   1770024.67647  21128838.415    21128837.633    21128847.195
       236.000         201.000
  -9954321.16749  -7737779.13947  20311201.064    20311200.843    20311208.856
       244.000         210.000
 00  5  9 16 14 29.9970000  0  7G24G 2G 4G 5G16G 7G 9
 -18092164.54449 -14050218.99947  20727717.296    20727717.294    20727727.839
       238.000         197.000
   2341756.73449   1824719.07646  21991419.224    21991418.208    21991430.193
       225.000         182.000
 -11669774.06049  -9054745.52447  19430685.859    19430686.118    19430694.328
       239.000         208.000
 -15493950.15349  -8043507.15146  22216241.994    22216241.640    22216252.347
       224.000         172.000
  -8357036.90349  -4463004.46845  23690258.441    23690258.146    23690274.992
       214.000         155.000
   2298202.48149   1790560.20747  21133853.540    21133852.741    21133862.370
       237.000         201.000
  -9992583.34849  -7767593.85747  20303920.043    20303919.832    20303927.866
       244.000         210.000
 00  5  9 16 14 59.9970000  0  7G24G 2G 4G 5G16G 7G 9
 -18207803.77849 -14140327.44847  20705711.861    20705711.831    20705722.396
       238.000         198.000
   2376428.04649   1851735.49946  21998017.152    21998016.102    21998028.121
       227.000         182.000
 -11717532.32149  -9091959.77047  19421597.756    19421598.008    19421606.260
       239.000         208.000
 -15610649.61549  -8134441.75246  22194034.784    22194034.436    22194045.145
       223.000         173.000
  -8426031.59449  -4516766.45845  23677129.509    23677128.953    23677145.742
       214.000         158.000
   2324636.49249   1811158.03947  21138883.883    21138883.049    21138892.728
       236.000         201.000
 -10030293.15249  -7796978.15447  20296744.101    20296743.905    20296751.981
       244.000         210.000
 00  5  9 16 15 29.9970000  0  7G24G 2G 4G 5G16G 7G 9
 -18323105.01249 -14230172.52247  20683770.746    20683770.723    20683781.267
       238.000         198.000
   2411340.04649   1878939.47046  22004660.942    22004659.813    22004671.910
       225.000         182.000
 -11764714.35049  -9128724.99747  19412619.363    19412619.609    19412627.839
       239.000         209.000
 -15727324.43849  -8225357.13946  22171832.263    22171831.897    22171842.630
       223.000         173.000
  -8494650.32949  -4570235.53345  23664071.783    23664071.221    23664088.036
       212.000         154.000
   2351137.76449   1831808.28047  21143926.993    21143926.173    21143935.895
       236.000         200.000
 -10067462.37349  -7825941.21747  20289671.083    20289670.867    20289678.957
       244.000         210.000
 00  5  9 16 15 59.9970000  0  7G24G 2G 4G 5G16G 7G 9
 -18438043.38249 -14319734.84647  20661898.688    20661898.643    20661909.184
       239.000         198.000
   2446515.14949   1906348.46046  22011354.591    22011353.550    22011365.763
       225.000         181.000
 -11811297.35349  -9165023.45147  19403755.015    19403755.206    19403763.388
       240.000         209.000
 -15843950.75249  -8316234.73746  22149638.950    22149638.610    22149649.381
       224.000         175.000
  -8562868.09149  -4623392.11545  23651090.084    23651089.623    23651106.610
       207.000         148.000
   2377728.03849   1852527.86347  21148987.062    21148986.220    21148995.978
       236.000         200.000
 -10104068.02949  -7854465.14447  20282705.296    20282705.076    20282713.170
       244.000         211.000
 00  5  9 16 16 29.9970000  0  7G24G 2G 4G 5G16G 7G 9
 -18552628.41049 -14409021.83947  20640093.819    20640093.792    20640104.369
       238.000         198.000
   2481941.26149   1933953.04546  22018096.011    22018095.013    22018107.398
       224.000         181.000
 -11857292.73349  -9200864.02247  19395002.394    19395002.589    19395010.789
       239.000         208.000
 -15960538.93249  -8407082.63246  22127452.940    22127452.588    22127463.363
       224.000         175.000
  -8630694.17049  -4676243.61545  23638183.225    23638182.722    23638199.418
       212.000         149.000
   2404394.58949   1873306.88047  21154061.687    21154060.818    21154070.555
       237.000         200.000
 -10140121.60349  -7882558.87847  20275844.582    20275844.355    20275852.443
       244.000         211.000
 00  5  9 16 16 59.9970000  0  7G24G 2G 4G 5G16G 7G 9
 -18666841.79149 -14498019.24347  20618359.686    20618359.669    20618370.236
       238.000         199.000
   2517634.10649   1961765.45346  22024888.338    22024887.307    22024899.724
       224.000         179.000
 -11902684.34449  -9236234.13347  19386364.717    19386364.877    19386373.092
       239.000         208.000
 -16077071.50049  -8497887.18846  22105277.549    22105277.151    22105287.910
       225.000         175.000
  -8698110.44249  -4728775.73045  23625354.447    23625353.907    23625370.380
       214.000         154.000
   2431152.62749   1894157.18847  21159153.704    21159152.809    21159162.549
       236.000         200.000
 -10175607.12249  -7910209.97147  20269091.947    20269091.709    20269099.848
       244.000         211.000
 00  5  9 16 17 29.9970000  0  7G24G 2G 4G 5G16G 7G 9
 -18780686.80549 -14586729.58847  20596695.727    20596695.666    20596706.180
       239.000         199.000
   2553587.78749   1989781.11946  22031730.270    22031729.222    22031741.616
       225.000         178.000
 -11947477.63549  -9271138.00747  19377840.905    19377841.045    19377849.242
       239.000         208.000
 -16193552.94149  -8588651.90846  22083111.845    22083111.428    22083122.178
       225.000         175.000
  -8765120.29149  -4780991.11145  23612602.808    23612602.327    23612618.743
       213.000         152.000
   2457995.37449   1915073.49447  21164261.815    21164260.909    21164270.662
       236.000         199.000
 -10210530.06749  -7937422.68847  20262446.398    20262446.127    20262454.301
       244.000         211.000
 00  5  9 16 17 59.9970000  0  7G24G 2G 4G 5G16G 7G 9
 -18894156.69649 -14675147.63147  20575103.056    20575103.013    20575113.512
       238.000         199.000
   2589806.72949   2018003.47446  22038622.654    22038621.592    22038633.929
       224.000         178.000
 -11991668.15549  -9305572.19247  19369431.739    19369431.891    19369440.099
       239.000         207.000
 -16309977.22249  -8679372.09746  22060957.061    22060956.602    22060967.337
       225.000         174.000
  -8831716.79049  -4832884.42745  23599929.771    23599929.360    23599945.644
       211.000         149.000
   2484926.63949   1936058.78347  21169386.775    21169385.875    21169395.598
       236.000         198.000
 -10244885.80749  -7964193.43447  20255908.724    20255908.480    20255916.704
       244.000         211.000
 00  5  9 16 18 29.9960000  0  7G24G 2G 4G 5G16G 7G 9
 -19007241.34449 -14763265.48147  20553583.698    20553583.675    20553594.175
       239.000         200.000
   2626293.13549   2046434.24446  22045565.968    22045564.892    22045577.203
       224.000         177.000
 -12035250.17049  -9339532.22147  19361138.338    19361138.499    19361146.743
       238.000         207.000
 -16426335.28749  -8770040.67946  22038814.855    22038814.385    22038825.090
       225.000         174.000
  -8897891.82049  -4884449.32145  23587336.907    23587336.596    23587352.881
       212.000         150.000
   2511948.43349   1957114.61747  21174528.962    21174528.048    21174537.731
       236.000         197.000
 -10278669.21549  -7990518.20247  20249479.991    20249479.735    20249488.002
       244.000         211.000
 00  5  9 16 18 59.9960000  0  7G24G 2G 4G 5G16G 7G 9
 -19119946.10449 -14851087.31847  20532136.595    20532136.625    20532147.169
       238.000         200.000
   2663049.43549   2075075.31446  22052560.614    22052559.519    22052571.888
       223.000         178.000
 -12078226.39449  -9373020.20847  19352960.211    19352960.398    19352968.668
       238.000         207.000
 -16542633.40849  -8860662.54546  22016684.039    22016683.544    22016694.214
       225.000         174.000
  -8963647.32749  -4935687.29445  23574824.125    23574823.747    23574839.970
       211.000         153.000
   2539061.91049   1978241.89147  21179688.567    21179687.658    21179697.299
       236.000         196.000
 -10311882.36449  -8016398.62347  20243159.790    20243159.522    20243167.789
       244.000         211.000
 00  5  9 16 19 29.9960000  0  7G24G 2G 4G 5G16G 7G 9
 -19232271.30649 -14938613.38847  20510761.751    20510761.794    20510772.421
       239.000         201.000
   2700067.74049   2103920.55046  22059605.140    22059604.027    22059616.445
       224.000         178.000
 -12120601.80249  -9406040.02147  19344896.512    19344896.667    19344904.931
       239.000         207.000
 -16658872.52849  -8951238.44646  21994564.430    21994563.969    21994574.594
       225.000         175.000
  -9028985.42049  -4986600.01345  23562390.617    23562390.274    23562406.480
       212.000         153.000
   2566258.82949   1999434.18847  21184864.064    21184863.158    21184872.764
       236.000         196.000
 -10344530.71249  -8041838.93047  20236947.029    20236946.772    20236955.073
       244.000         211.000
 00  5  9 16 19 59.9960000  0  7G24G 2G 4G 5G16G 7G 9
 -19344215.77749 -15025842.78947  20489459.408    20489459.434    20489470.095
       239.000         202.000
   2737346.70549   2132968.89546  22066699.252    22066698.140    22066710.610
       224.000         177.000
 -12162377.28749  -9438592.36647  19336946.947    19336947.101    19336955.316
       239.000         207.000
 -16775052.49649  -9041768.24346  21972456.135    21972455.647    21972466.209
       226.000         175.000
  -9093904.81349  -5037186.47845  23550036.921    23550036.488    23550052.722
       211.000         152.000
   2593537.09449   2020689.87347  21190055.048    21190054.134    21190063.689
       236.000         196.000
 -10376615.60349  -8066840.18947  20230841.540    20230841.264    20230849.567
       244.000         211.000
 00  5  9 16 20 29.9960000  0  7G24G 2G 4G 5G16G 7G 9
 -19455782.38349 -15112777.74547  20468228.975    20468228.987    20468239.676
       240.000         202.000
   2774880.97549   2162216.17446  22073841.917    22073840.835    22073853.350
       224.000         177.000
 -12203558.02149  -9470681.26647  19329110.525    19329110.678    19329118.880
       239.000         206.000
 -16891176.89149  -9132254.72946  21950358.354    21950357.914    21950368.407
       225.000         176.000
  -9158408.38649  -5087448.95345  23537762.219    23537761.828    23537777.962
       203.000         149.000
   2620891.04449   2042004.53547  21195260.469    21195259.532    21195269.028
       236.000         195.000
 -10408141.59349  -8091405.93147  20224842.320    20224842.073    20224850.454
       244.000         211.000
 00  5  9 16 20 59.9960000  0  7G24G 2G 4G 5G16G 7G 9
 -19566948.57649 -15199400.69447  20447074.776    20447074.742    20447085.446
       240.000         203.000
   2812690.71649   2191678.11146  22081036.999    22081035.922    22081048.516
       223.000         177.000
 -12244123.41249  -9502290.67947  19321391.254    19321391.374    19321399.538
       239.000         207.000
 -17007223.93549  -9222680.94746  21928275.237    21928274.863    21928285.308
       226.000         176.000
  -9222473.77549  -5137369.95145  23525570.693    23525570.453    23525586.664
       209.000         149.000
   2648340.17749   2063393.36247  21200483.954    21200483.026    21200492.456
       235.000         195.000
 -10439088.36949  -8115520.34347  20218953.383    20218953.123    20218961.555
       244.000         212.000
 00  5  9 16 21 29.9960000  0  7G24G 2G 4G 5G16G 7G 9
 -19677731.03249 -15285724.62947  20425993.598    20425993.533    20426004.218
       240.000         203.000
   2850756.62449   2221339.64746  22088280.820    22088279.764    22088292.405
       222.000         175.000
 -12284092.59449  -9533435.51147  19313785.445    19313785.537    19313793.671
       238.000         207.000
 -17123211.08549  -9313060.50846  21906203.554    21906203.218    21906213.597
       226.000         175.000
  -9286117.65349  -5186962.56545  23513459.427    23513459.219    23513475.474
       210.000         150.000
   2675864.58649   2084840.84447  21205721.768    21205720.843    21205730.217
       235.000         195.000
 -10469475.14049  -8139198.39047  20213171.037    20213170.756    20213179.211
       244.000         212.000
 00  5  9 16 21 59.9960000  0  7G24G 2G 4G 5G16G 7G 9
 -19788120.40749 -15371742.26747  20404987.157    20404987.116    20404997.780
       240.000         203.000
   2889085.48649   2251206.08946  22095574.780    22095573.676    22095586.315
       223.000         175.000
 -12323458.25849  -9564110.07347  19306294.379    19306294.487    19306302.659
       238.000         206.000
 -17239129.79849  -9403386.73946  21884144.931    21884144.558    21884154.887
       227.000         176.000
  -9349330.72249  -5236219.43745  23501430.292    23501430.115    23501446.456
       210.000         153.000
   2703470.65049   2106351.95647  21210975.075    21210974.175    21210983.558
       235.000         195.000
 -10499294.88249  -8162434.59547  20207496.562    20207496.279    20207504.755
       244.000         212.000
 00  5  9 16 22 29.9960000  0  7G24G 2G 4G 5G16G 7G 9
 -19898123.20149 -15457458.68047  20384054.267    20384054.243    20384064.895
       241.000         202.000
   2927668.43449   2281270.52546  22102916.992    22102915.898    22102928.555
       222.000         174.000
 -12362229.34349  -9594321.32447  19298916.425    19298916.581    19298924.785
       237.000         206.000
 -17354987.05749  -9493665.07846  21862097.994    21862097.609    21862107.901
       227.000         177.000
  -9412119.52149  -5285145.71445  23489482.009    23489481.851    23489498.228
       210.000         156.000
   2731148.95149   2127919.35347  21216242.119    21216241.241    21216250.660
       234.000         195.000
 -10528556.27649  -8185235.72447  20201928.351    20201928.066    20201936.542
       244.000         212.000
 00  5  9 16 22 59.9960000  0  7G24G 2G 4G 5G16G 7G 9
 -20007728.60549 -15542865.43347  20363196.995    20363196.981    20363207.605
       241.000         202.000
   2966513.70149   2311539.36346  22110309.134    22110308.059    22110320.720
       223.000         174.000
 -12400397.27849  -9624062.59047  19291653.304    19291653.464    19291661.693
       238.000         206.000
 -17470773.18349  -9583887.99646  21840064.602    21840064.206    21840074.492
       227.000         178.000
  -9474473.43749  -5333733.13545  23477616.686    23477616.284    23477632.657
       214.000         158.000
   2758907.22349   2149549.05947  21221524.410    21221523.534    21221533.017
       234.000         195.000
 -10557251.03049  -8207595.31347  20196467.914    20196467.662    20196476.172
       244.000         212.000
 00  5  9 16 23 29.9960000  0  7G24G 2G 4G 5G16G 7G 9
 -20116945.70449 -15627969.61147  20342413.638    20342413.613    20342424.183
       241.000         201.000
   3005609.71949   2342003.58146  22117749.030    22117747.917    22117760.641
       222.000         175.000
 -12437973.54449  -9653342.81147  19284502.774    19284502.948    19284511.186
       238.000         207.000
 -17586497.68949  -9674062.88746  21818042.935    21818042.541    21818052.806
       228.000         177.000
  -9536401.72449  -5381988.90145  23465831.976    23465831.698    23465847.996
       207.000         156.000
   2786733.28149   2171231.59447  21226819.592    21226818.744    21226828.283
       234.000         195.000
 -10585390.48249  -8229522.19747  20191113.182    20191112.926    20191121.475
       244.000         212.000
 00  5  9 16 23 59.9960000  0  7G24G 2G 4G 5G16G 7G 9
 -20225760.20449 -15712760.08047  20321706.820    20321706.838    20321717.363
       241.000         201.000
   3044968.30549   2372672.40046  22125238.795    22125237.763    22125250.535
       221.000         175.000
 -12474945.90849  -9682152.46147  19277467.172    19277467.345    19277475.608
       238.000         207.000
 -17702147.08049  -9764179.25546  21796035.546    21796035.189    21796045.382
       227.000         177.000
  -9597890.04549  -5429901.81245  23454131.146    23454130.799    23454147.299
       213.000         159.000
   2814638.72749   2192975.97447  21232129.930    21232129.058    21232138.658
       234.000         195.000
 -10612962.74949  -8251007.12747  20185866.436    20185866.144    20185874.702
       245.000         212.000
 00  5  9 16 24 29.9960000  0  7G24G 2G 4G 5G16G 7G 9
 -20334166.14749 -15797232.18847  20301077.775    20301077.813    20301088.321
       240.000         202.000
   3084592.89549   2403548.49546  22132779.249    22132778.241    22132791.103
       222.000         176.000
 -12511310.81449  -9710488.76547  19270547.164    19270547.342    19270555.616
       237.000         207.000
 -17817715.93549  -9854232.86446  21774043.529    21774043.133    21774053.328
       229.000         178.000
  -9658932.28549  -5477467.19045  23442515.174    23442514.858    23442531.364
       209.000         154.000
   2842626.40949   2214784.43847  21237455.873    21237455.028    21237464.674
       235.000         195.000
 -10639964.08749  -8272047.17547  20180728.305    20180728.016    20180736.552
       245.000         212.000
 00  5  9 16 24 59.9960000  0  7G24G 2G 4G 5G16G 7G 9
 -20442172.11249 -15881392.62847  20280524.896    20280524.926    20280535.395
       241.000         202.000
   3124472.43349   2434623.25646  22140368.295    22140367.232    22140380.171
       222.000         175.000
 -12547079.13849  -9738360.20447  19263740.658    19263740.843    19263749.166
       238.000         207.000
 -17933213.37949  -9944230.81946  21752065.016    21752064.667    21752074.897
       229.000         179.000
  -9719537.59149  -5524692.11645  23430982.399    23430982.051    23430998.357
       213.000         155.000
   2870684.98249   2236648.13347  21242795.382    21242794.497    21242804.164
       235.000         195.000
 -10666405.61349  -8292651.00548  20175696.730    20175696.429    20175704.939
       246.000         213.000
 00  5  9 16 25 29.9960000  0  7G24G 2G 4G 5G16G 7G 9
 -20549768.69849 -15965234.07747  20260049.949    20260049.966    20260060.389
       241.000         202.000
   3164613.92649   2465902.13346  22148007.135    22148006.077    22148019.080
       223.000         176.000
 -12582243.79149  -9765761.24847  19257049.165    19257049.299    19257057.571
       239.000         207.000
 -18048630.80549 -10034166.41346  21730101.771    21730101.444    21730111.690
       228.000         180.000
  -9779696.10049  -5571568.87345  23419534.549    23419534.207    23419550.567
       209.000         154.000
   2898821.15049   2258572.30147  21248149.606    21248148.738    21248158.427
       235.000         195.000
 -10692279.87349  -8312812.80947  20170773.080    20170772.778    20170781.270
       245.000         212.000
 00  5  9 16 25 59.9960000  0  7G24G 2G 4G 5G16G 7G 9
 -20656953.11249 -16048754.35547  20239653.404    20239653.415    20239663.858
       242.000         203.000
   3205017.43349   2497385.16846  22155695.769    22155694.736    22155707.869
       222.000         176.000
 -12616804.42249  -9792691.62347  19250472.575    19250472.679    19250480.911
       239.000         207.000
 -18163966.01549 -10124037.96246  21708154.231    21708153.871    21708164.110
       229.000         181.000
  -9839405.46649  -5618095.64545  23408172.085    23408171.785    23408188.180
       211.000         153.000
   2927034.61349   2280556.70047  21253518.559    21253517.681    21253527.422
       234.000         195.000
 -10717586.92249  -8332532.63547  20165957.336    20165957.044    20165965.512
       245.000         212.000
 00  5  9 16 26 29.9960000  0  7G24G 2G 4G 5G16G 7G 9
 -20763719.22549 -16131948.69347  20219336.432    20219336.451    20219346.917
       241.000         203.000
   3245686.98549   2529075.50746  22163435.153    22163434.076    22163447.270
       223.000         177.000
 -12650757.05249  -9819148.23847  19244011.627    19244011.722    19244019.946
       238.000         206.000
 -18279213.19249 -10213840.90346  21686223.416    21686223.042    21686233.296
       229.000         181.000
  -9898659.37849  -5664267.52245  23396896.622    23396896.180    23396912.510
       215.000         154.000
   2955328.75449   2302603.96247  21258902.827    21258901.964    21258911.764
       234.000         195.000
 -10742322.60949  -8351807.24747  20161250.301    20161250.025    20161258.477
       245.000         212.000
 00  5  9 16 26 59.9960000  0  7G24G 2G 4G 5G16G 7G 9
 -20870074.68849 -16214823.03747  20199097.598    20199097.638    20199108.105
       241.000         202.000
   3286612.43749   2560965.24946  22171223.252    22171222.109    22171235.373
       222.000         176.000
 -12684111.86549  -9845139.02147  19237664.392    19237664.525    19237672.754
       238.000         207.000
 -18394380.74049 -10303581.79346  21664307.766    21664307.367    21664317.650
       229.000         181.000
  -9957465.90249  -5710090.79645  23385706.122    23385705.668    23385721.907
       210.000         155.000
   2983693.14849   2324705.97247  21264300.450    21264299.603    21264309.434
       234.000         194.000
 -10766497.29949  -8370644.71347  20156650.030    20156649.775    20156658.228
       245.000         212.000
 00  5  9 16 27 29.9960000  0  7G24G 2G 4G 5G16G 7G 9
 -20976014.09249 -16297373.18147  20178937.972    20178938.001    20178948.454
       242.000         203.000
   3327796.57149   2593056.54446  22179060.507    22179059.360    22179072.673
       222.000         175.000
 -12716865.77749  -9870661.56747  19231431.521    19231431.678    19231439.898
       238.000         207.000
 -18509463.66549 -10393256.75246  21642408.178    21642407.782    21642418.056
       229.000         180.000
 -10015819.33249  -5755561.00645  23374601.972    23374601.395    23374617.646
       216.000         155.000
   3012130.36949   2346864.71247  21269711.989    21269711.116    21269720.974
       234.000         194.000
 -10790107.82449  -8389042.57247  20152157.135    20152156.879    20152165.330
       245.000         212.000
 00  5  9 16 27 59.9960000  0  7G24G 2G 4G 5G16G 7G 9
 -21081533.18249 -16379595.80647  20158858.333    20158858.358    20158868.777
       241.000         203.000
   3369241.27049   2625350.87946  22186947.295    22186946.173    22186959.534
       220.000         175.000
 -12749016.84649  -9895714.36747  19225313.377    19225313.535    19225321.735
       238.000         206.000
 -18624458.23249 -10482862.85946  21620525.365    21620525.016    21620535.282
       228.000         180.000
 -10073716.04149  -5800675.34545  23363584.714    23363584.114    23363600.293
       217.000         152.000
   3040641.97549   2369081.42247  21275137.690    21275136.807    21275146.677
       234.000         194.000
 -10813152.27949  -8406999.32947  20147771.954    20147771.695    20147780.177
       245.000         212.000
 00  5  9 16 28 29.9960000  0  7G24G 2G 4G 5G16G 7G 9
 -21186636.00149 -16461494.06847  20138857.926    20138857.923    20138868.319
       242.000         203.000
   3410939.93749   2657843.11646  22194882.517    22194881.353    22194894.751
       221.000         174.000
 -12780571.66149  -9920302.55847  19219308.721    19219308.888    19219317.041
       239.000         206.000
 -18739368.87349 -10572403.58346  21598658.526    21598658.219    21598668.494
       229.000         181.000
 -10131159.96449  -5845436.90045  23352653.393    23352652.880    23352668.733
       211.000         148.000
   3069221.11249   2391350.73547  21280576.204    21280575.324    21280585.252
       234.000         195.000
 -10835637.06449  -8424519.99247  20143493.350    20143493.040    20143501.500
       245.000         212.000
 00  5  9 16 28 59.9960000  0  7G24G 2G 4G 5G16G 7G 9
 -21291305.17149 -16543054.42747  20118940.010    20118940.007    20118950.376
       241.000         204.000
   3452907.50549   2690544.88946  22202868.880    22202867.725    22202881.131
       221.000         174.000
 -12811515.20649  -9944414.43847  19213420.348    19213420.542    19213428.661
       238.000         206.000
 -18854178.63749 -10661865.69946  21576810.887    21576810.612    21576820.892
       227.000         181.000
 -10188133.66349  -5889832.01745  23341811.429    23341811.002    23341827.061
       212.000         154.000
   3097882.50149   2413684.15147  21286030.341    21286029.481    21286039.490
       234.000         194.000
 -10857547.47249  -8441593.08847  20139323.999    20139323.675    20139332.123
       245.000         212.000
 00  5  9 16 29 29.9960000  0  7G24G 2G 4G 5G16G 7G 9
 -21395534.91249 -16624272.37447  20099105.716    20099105.698    20099116.064
       242.000         204.000
   3495147.42949   2723458.89146  22210907.070    22210905.890    22210919.386
       220.000         173.000
 -12841844.24049  -9968047.47647  19207648.950    19207649.125    19207657.232
       237.000         206.000
 -18968882.05649 -10751244.95146  21554983.497    21554983.227    21554993.515
       227.000         182.000
 -10244631.80249  -5933856.53145  23331060.164    23331059.757    23331076.141
       212.000         155.000
   3126629.12249   2436083.97747  21291500.732    21291499.863    21291509.939
       233.000         194.000
 -10878879.94849  -8458215.84647  20135264.593    20135264.281    20135272.720
       245.000         212.000
 00  5  9 16 29 59.9960000  0  7G24G 2G 4G 5G16G 7G 9
 -21499341.24749 -16705160.39247  20079351.993    20079351.962    20079362.323
       241.000         204.000
   3537641.12349   2756570.62046  22218993.475    22218992.310    22219005.975
       221.000         173.000
 -12871577.17949  -9991216.02847  19201990.977    19201991.164    19201999.226
       238.000         206.000
 -19083495.49849 -10840554.08946  21533173.274    21533172.992    21533183.303
       228.000         182.000
 -10300670.28549  -5977522.90545  23320396.190    23320395.844    23320412.366
       210.000         152.000
   3155442.40749   2458535.75147  21296983.803    21296982.936    21296993.055
       233.000         193.000
 -10899653.01849  -8474402.71047  20131311.648    20131311.342    20131319.760
       245.000         212.000
 00  5  9 16 30 29.9960000  0  7G24G 2G 4G 5G16G 7G 9
 -21602718.25849 -16785713.87847  20059679.985    20059679.945    20059690.241
       241.000         204.000
   3580392.17849   2789882.90846  22227128.972    22227127.746    22227141.500
       220.000         172.000
 -12900710.42149 -10013917.28147  19196447.104    19196447.300    19196455.359
       237.000         206.000
 -19198013.58849 -10929788.93646  21511381.239    21511380.890    21511391.184
       228.000         182.000
 -10356243.40949  -6020826.65245  23309821.084    23309820.650    23309837.073
       213.000         152.000
   3184325.44249   2481041.86647  21302480.188    21302479.302    21302489.446
       233.000         193.000
 -10919863.47049  -8490151.16547  20127465.717    20127465.454    20127473.886
       245.000         211.000
 00  5  9 16 30 59.9960000  0  7G24G 2G 4G 5G16G 7G 9
 -21705665.21149 -16865932.24847  20040089.819    20040089.774    20040099.990
       241.000         204.000
   3623398.90349   2823394.41546  22235313.020    22235311.801    22235325.648
       220.000         172.000
 -12929245.52449 -10036152.45747  19191017.089    19191017.265    19191025.336
       238.000         206.000
 -19312435.78249 -11018949.04546  21489607.401    21489607.033    21489617.300
       227.000         181.000
 -10411350.35749  -6063767.14045  23299334.777    23299334.249    23299350.636
       213.000         154.000
   3213276.62049   2503601.06647  21307989.524    21307988.625    21307998.796
       233.000         193.000
 -10939512.86049  -8505462.43347  20123726.529    20123726.329    20123734.754
       245.000         211.000
 00  5  9 16 31 29.9960000  0  7G24G 2G 4G 5G16G 7G 9
 -21808165.59149 -16945802.63947  20020584.579    20020584.552    20020594.736
       241.000         204.000
   3666675.26049   2857116.02546  22243548.392    22243547.193    22243561.052
       221.000         171.000
 -12957168.77449 -10057910.86247  19185703.492    19185703.655    19185711.717
       238.000         206.000
 -19426746.02749 -11108021.92646  21467854.836    21467854.471    21467864.719
       229.000         181.000
 -10465975.00649  -6106331.83145  23288940.087    23288939.510    23288955.872
       212.000         151.000
   3242309.65849   2526224.07747  21313514.463    21313513.560    21313523.750
       234.000         193.000
 -10958587.19549  -8520325.60647  20120096.803    20120096.612    20120105.076
       245.000         211.000
 00  5  9 16 31 59.9960000  0  7G24G 2G 4G 5G16G 7G 9
 -21910226.52849 -17025330.61747  20001162.988    20001162.955    20001173.123
       241.000         204.000
   3710211.72049   2891040.29646  22251833.322    22251832.080    22251845.881
       220.000         170.000
 -12984489.61849 -10079199.85647  19180504.514    19180504.700    19180512.757
       237.000         206.000
 -19540951.76749 -11197013.38746  21446122.092    21446121.813    21446132.008
       228.000         181.000
 -10520124.63849  -6148526.34645  23278635.732    23278635.143    23278651.492
       213.000         154.000
   3271414.78949   2548903.25747  21319053.084    21319052.184    21319062.413
       233.000         193.000
 -10977096.25949  -8534748.31347  20116574.725    20116574.487    20116582.941
       244.000         211.000
 00  5  9 16 32 29.9960000  0  7G24G 2G 4G 5G16G 7G 9
 -22011861.16649 -17104526.42047  19981822.490    19981822.479    19981832.673
       241.000         204.000
   3753992.73249   2925155.11246  22260164.758    22260163.526    22260177.251
       220.000         171.000
 -13011223.78549 -10100031.70747  19175417.162    19175417.358    19175425.425
       238.000         207.000
 -19655066.43849 -11285933.87046  21424406.741    21424406.490    21424416.676
       228.000         181.000
 -10573812.29649  -6190360.89645  23268419.340    23268418.738    23268435.119
       212.000         153.000
   3300576.48149   2571626.50647  21324602.461    21324601.582    21324611.818
       233.000         192.000
 -10995055.49349  -8548742.58747  20113157.208    20113156.997    20113165.439
       244.000         210.000
 00  5  9 16 32 59.9960000  0  7G24G 2G 4G 5G16G 7G 9
 -22113068.62649 -17183389.36247  19962563.222    19962563.281    19962573.517
       240.000         205.000
   3798016.81449   2959459.34246  22268542.444    22268541.213    22268554.940
       220.000         171.000
 -13037372.93749 -10120407.69447  19170441.205    19170441.376    19170449.434
       238.000         208.000
 -19769089.46449 -11374782.95146  21402708.881    21402708.589    21402718.740
       228.000         181.000
 -10627037.36149  -6231834.98945  23258290.870    23258290.328    23258306.663
       214.000         154.000
   3329793.12749   2594392.58247  21330162.288    21330161.424    21330171.654
       233.000         192.000
 -11012466.49949  -8562309.66247  20109843.992    20109843.810    20109852.288
       244.000         211.000
 00  5  9 16 33 29.9960000  0  7G24G 2G 4G 5G16G 7G 9
 -22213832.91749 -17261906.97447  19943388.390    19943388.442    19943398.693
       241.000         205.000
   3842297.67049   2993963.67346  22276968.961    22276967.755    22276981.457
       220.000         170.000
 -13062923.46549 -10140317.23147  19165579.105    19165579.294    19165587.369
       239.000         208.000
 -19883005.03449 -11463548.29546  21381031.409    21381031.135    21381041.258
       228.000         182.000
 -10679784.34349  -6272936.56045  23248253.453    23248252.890    23248269.098
       213.000         154.000
   3359077.97849   2617211.78347  21335735.125    21335734.275    21335744.507
       233.000         193.000
 -11029315.85949  -8575439.09747  20106637.704    20106637.506    20106646.016
       244.000         211.000
 00  5  9 16 33 59.9960000  0  7G24G 2G 4G 5G16G 7G 9
 -22314152.69449 -17340078.20847  19924298.166    19924298.198    19924308.484
       241.000         205.000
   3886834.17149   3028667.20846  22285444.151    22285442.945    22285456.671
       219.000         169.000
 -13087876.56949 -10159761.23747  19160830.798    19160830.940    19160838.991
       239.000         208.000
 -19996811.92549 -11552228.95246  21359374.698    21359374.374    21359384.497
       229.000         183.000
 -10732051.74749  -6313664.39945  23238307.370    23238306.803    23238322.847
       215.000         154.000
   3388429.98049   2640083.31947  21341320.786    21341319.897    21341330.188
       233.000         193.000
 -11045604.72649  -8588131.78347  20103538.107    20103537.880    20103546.381
       245.000         211.000
 00  5  9 16 34 29.9960000  0  7G24G 2G 4G 5G16G 7G 9
 -22414037.60349 -17417910.57747  19905290.692    19905290.718    19905300.991
       241.000         206.000
   3931614.27949   3063560.55346  22293965.664    22293964.469    22293978.265
       220.000         169.000
 -13112244.68149 -10178749.40447  19156193.715    19156193.869    19156201.874
       238.000         207.000
 -20110520.07349 -11640832.66346  21337736.695    21337736.381    21337746.537
       228.000         182.000
 -10783849.72949  -6354026.50545  23228450.622    23228449.982    23228465.819
       212.000         153.000
   3417836.90749   2662997.66047  21346916.852    21346915.961    21346926.333
       232.000         193.000
 -11061345.27549  -8600397.21147  20100542.875    20100542.629    20100551.091
       245.000         211.000
 00  5  9 16 34 59.9960000  0  7G24G 2G 4G 5G16G 7G 9
 -22513491.17949 -17495406.84247  19886365.275    19886365.310    19886375.622
       242.000         206.000
   3976632.14249   3098639.18346  22302532.467    22302531.272    22302545.129
       219.000         170.000
 -13136033.40849 -10197286.09947  19151666.878    19151667.043    19151675.036
       238.000         207.000
 -20224132.81249 -11729362.04446  21316116.875    21316116.561    21316126.724
       228.000         182.000
 -10835181.37449  -6394025.20745  23218682.367    23218681.866    23218697.809
       217.000         157.000
   3447293.09649   2685950.38347  21352522.311    21352521.391    21352531.846
       232.000         193.000
 -11076543.35749  -8612239.93447  20097650.835    20097650.574    20097659.044
       244.000         211.000
 00  5  9 16 35 29.9960000  0  7G24G 2G 4G 5G16G 7G 9
 -22612491.92949 -17572550.26847  19867526.063    19867526.087    19867536.448
       241.000         207.000
   4021906.64949   3133917.77346  22311148.137    22311146.908    22311160.778
       218.000         169.000
 -13159224.04849 -10215356.76047  19147253.867    19147254.034    19147262.045
       239.000         207.000
 -20337629.09149 -11817800.68846  21294519.183    21294518.900    21294529.071
       229.000         182.000
 -10886025.85549  -6433644.31745  23209007.057    23209006.514    23209022.491
       214.000         157.000
   3476817.41149   2708956.18747  21358140.716    21358139.788    21358150.309
       232.000         192.000
 -11091180.16549  -8623645.30047  20094865.571    20094865.332    20094873.794
       244.000         211.000
 00  5  9 16 35 59.9960000  0  7G24G 2G 4G 5G16G 7G 9
 -22711037.27649 -17649338.81647  19848773.580    19848773.547    19848783.931
       242.000         207.000
   4067438.10149   3169396.58846  22319812.585    22319811.430    22319825.336
       218.000         167.000
 -13181816.53449 -10232961.32147  19142954.674    19142954.854    19142962.870
       239.000         207.000
 -20451006.18549 -11906146.45146  21272944.219    21272943.905    21272954.107
       229.000         182.000
 -10936380.58049  -6472881.80745  23199424.795    23199424.307    23199440.378
       214.000         157.000
   3506410.16049   2732015.32447  21363772.134    21363771.205    21363781.794
       231.000         192.000
 -11105255.88149  -8634613.44947  20092187.038    20092186.835    20092195.336
       244.000         210.000
 00  5  9 16 36 29.9960000  0  7G24G 2G 4G 5G16G 7G 9
 -22809130.40149 -17725774.98147  19830107.095    19830107.033    19830117.464
       241.000         207.000
   4113221.05249   3205071.36246  22328525.010    22328523.793    22328537.802
       218.000         167.000
 -13203816.69649 -10250104.33547  19138768.195    19138768.373    19138776.413
       239.000         207.000
 -20564267.57649 -11994402.06146  21251391.315    21251390.969    21251401.141
       230.000         183.000
 -10986249.02649  -6511740.39345  23189935.068    23189934.604    23189950.908
       212.000         158.000
   3536065.76049   2755123.42147  21369415.505    21369414.594    21369425.224
       232.000         192.000
 -11118776.15449  -8645148.79047  20089614.239    20089614.060    20089622.586
       244.000         210.000
 00  5  9 16 36 59.9960000  0  7G24G 2G 4G 5G16G 7G 9
 -22906789.12649 -17801872.65447  19811523.172    19811523.165    19811533.625
       241.000         206.000
   4159235.43649   3240926.48346  22337281.339    22337280.193    22337294.318
       216.000         166.000
 -13225244.97049 -10266801.71647  19134690.573    19134690.737    19134698.786
       239.000         207.000
 -20677431.11849 -12082581.41746  21229856.989    21229856.665    21229866.782
       230.000         183.000
 -11035649.30249  -6550234.19745  23180534.683    23180534.133    23180550.529
       213.000         159.000
   3565763.94749   2778264.70847  21375066.997    21375066.083    21375076.755
       231.000         191.000
 -11131761.53149  -8655267.32647  20087143.252    20087143.050    20087151.610
       243.000         211.000
 00  5  9 16 37 29.9960000  0  7G24G 2G 4G 5G16G 7G 9
 -23003995.25349 -17877617.65747  19793025.399    19793025.417    19793035.890
       240.000         206.000
   4205497.27449   3276974.43746  22346084.609    22346083.651    22346097.882
       216.000         164.000
 -13246085.37449 -10283041.02447  19130724.822    19130724.970    19130733.003
       239.000         207.000
 -20790478.45649 -12170670.23046  21208344.811    21208344.469    21208354.524
       230.000         185.000
 -11084563.02849  -6588348.85645  23171226.796    23171226.242    23171242.781
       215.000         158.000
   3595520.81649   2801451.71247  21380729.665    21380728.759    21380739.433
       232.000         191.000
 -11144196.02949  -8664956.61047  20084777.113    20084776.888    20084785.454
       243.000         211.000
 00  5  9 16 37 59.9960000  0  7G24G 2G 4G 5G16G 7G 9
 -23100746.37149 -17953008.09647  19774614.240    19774614.267    19774624.759
       241.000         207.000
   4252006.30649   3313214.99446  22354935.073    22354934.199    22354948.528
       217.000         165.000
 -13266338.42449 -10298822.64247  19126870.892    19126871.005    19126879.016
       239.000         208.000
 -20903407.31649 -12258666.70746  21186855.142    21186854.786    21186864.839
       230.000         185.000
 -11132988.05749  -6626082.72045  23162011.966    23162011.274    23162027.862
       217.000         158.000
   3625336.36149   2824684.45447  21386403.506    21386402.582    21386413.284
       231.000         192.000
 -11156079.81949  -8674216.76947  20082515.722    20082515.525    20082524.119
       243.000         210.000
 00  5  9 16 38 29.9960000  0  7G24G 2G 4G 5G16G 7G 9
 -23197032.03249 -18028035.84847  19756291.705    19756291.717    19756302.209
       241.000         207.000
   4298770.70649   3349654.56546  22363834.417    22363833.370    22363847.742
       216.000         166.000
 -13285996.27149 -10314140.48047  19123130.089    19123130.260    19123138.294
       238.000         208.000
 -21016207.29449 -12346562.77646  21165390.004    21165389.648    21165399.699
       230.000         186.000
 -11180914.51149  -6663428.08445  23152891.990    23152891.231    23152907.735
       215.000         158.000
   3655218.69249   2847969.24247  21392090.032    21392089.123    21392099.875
       231.000         191.000
 -11167405.17849  -8683041.79047  20080360.572    20080360.401    20080369.014
       243.000         210.000
 00  5  9 16 38 59.9960000  0  7G24G 2G 4G 5G16G 7G 9
 -23292855.33049 -18102703.32047  19738057.159    19738057.135    19738067.638
       241.000         208.000
   4345785.14749   3386288.95246  22372781.144    22372780.074    22372794.541
       217.000         165.000
 -13305064.42049 -10328998.81547  19119501.596    19119501.749    19119509.796
       239.000         208.000
 -21128881.47249 -12434360.80746  21143948.797    21143948.447    21143958.476
       230.000         186.000
 -11228345.26549  -6700387.18345  23143866.256    23143865.531    23143882.101
       216.000         156.000
   3685162.51349   2871301.94847  21397788.288    21397787.358    21397798.143
       231.000         191.000
 -11178177.95649  -8691436.23547  20078310.704    20078310.485    20078319.055
       243.000         209.000
 00  5  9 16 39 29.9960000  0  7G24G 2G 4G 5G16G 7G 9
 -23388230.41549 -18177021.54847  19719907.855    19719907.828    19719918.372
       241.000         207.000
   4393033.05949   3423105.26846  22381772.384    22381771.280    22381785.746
       218.000         163.000
 -13323559.65349 -10343410.71647  19115982.121    19115982.262    19115990.304
       239.000         207.000
 -21241443.94449 -12522071.78546  21122528.853    21122528.491    21122538.525
       231.000         186.000
 -11275295.01849  -6736971.43745  23134931.825    23134931.255    23134947.771
       218.000         153.000
   3715151.53949   2894669.88147  21403495.114    21403494.190    21403505.011
       231.000         191.000
 -11188414.67449  -8699412.96847  20076362.800    20076362.567    20076371.094
       244.000         209.000
 00  5  9 16 39 59.9960000  0  7G24G 2G 4G 5G16G 7G 9
 -23483147.65549 -18250983.02047  19701845.663    19701845.640    19701856.198
       241.000         207.000
   4440521.93749   3460109.34746  22390809.488    22390808.363    22390822.817
       217.000         165.000
 -13341475.02449 -10357370.77847  19112572.981    19112573.120    19112581.090
       238.000         207.000
 -21353884.87049 -12609688.05046  21101132.010    21101131.677    21101141.715
       231.000         186.000
 -11321753.92649  -6773173.24145  23126090.835    23126090.393    23126106.769
       212.000         149.000
   3745193.00349   2918078.66947  21409211.930    21409211.006    21409221.879
       232.000         190.000
 -11198108.13549  -8706966.38847  20074518.289    20074518.016    20074526.513
       243.000         209.000
 00  5  9 16 40 29.9960000  0  7G24G 2G 4G 5G16G 7G 9
 -23577590.98549 -18324575.20247  19683873.672    19683873.660    19683884.179
       241.000         207.000
   4488265.67849   3497312.00746  22399895.049    22399893.918    22399908.443
       216.000         163.000
 -13358797.06949 -10370868.50447  19109276.733    19109276.872    19109284.838
       238.000         206.000
 -21466188.04549 -12697196.99346  21079761.399    21079761.065    21079771.098
       231.000         186.000
 -11367706.49149  -6808980.48745  23117346.358    23117345.924    23117361.998
       213.000         149.000
   3775301.04349   2941539.33247  21414941.429    21414940.502    21414951.389
       231.000         189.000
 -11207244.88749  -8714086.00147  20072779.661    20072779.399    20072787.910
       243.000         210.000
 00  5  9 16 40 59.9960000  0  7G24G 2G 4G 5G16G 7G 9
 -23671564.84249 -18397801.56147  19665991.027    19665991.015    19666001.492
       241.000         207.000
   4536257.26649   3534707.81645  22409027.745    22409026.604    22409041.128
       215.000         162.000
 -13375532.84249 -10383909.40747  19106092.013    19106092.175    19106100.152
       238.000         207.000
 -21578357.73249 -12784601.91746  21058416.200    21058415.859    21058425.900
       231.000         187.000
 -11413157.24949  -6844396.70145  23108697.563    23108697.001    23108712.911
       215.000         150.000
   3805469.02249   2965046.69347  21420682.330    21420681.403    21420692.267
       231.000         188.000
 -11215832.24549  -8720777.52547  20071145.573    20071145.325    20071153.857
       243.000         210.000
 00  5  9 16 41 29.9960000  0  7G24G 2G 4G 5G16G 7G 9
 -23765061.49349 -18470656.06447  19648199.201    19648199.197    19648209.642
       241.000         207.000
   4584502.25249   3572301.07145  22418208.630    22418207.490    22418222.035
       215.000         162.000
 -13391677.18749 -10396489.45547  19103019.901    19103020.037    19103028.028
       239.000         207.000
 -21690385.80349 -12871896.48647  21037097.936    21037097.606    21037107.657
       232.000         188.000
 -11458098.67349  -6879415.98845  23100145.563    23100144.961    23100160.793
       216.000         151.000
   3835702.70049   2988605.25646  21426435.754    21426434.790    21426445.644
       231.000         187.000
 -11223864.73349  -8727036.68147  20069617.099    20069616.847    20069625.386
       244.000         209.000
 00  5  9 16 41 59.9960000  0  7G24G 2G 4G 5G16G 7G 9
 -23858085.31649 -18543142.12947  19630497.347    19630497.329    19630507.769
       241.000         207.000
   4632993.85749   3610086.48045  22427436.422    22427435.334    22427449.922
       216.000         162.000
 -13407237.22949 -10408614.20847  19100058.922    19100059.077    19100067.108
       238.000         207.000
 -21802276.73849 -12959084.20246  21015805.781    21015805.431    21015815.511
       231.000         187.000
 -11502535.60249  -6914042.14345  23091689.645    23091688.959    23091704.833
       217.000         153.000
   3865995.30249   3012209.73446  21432200.338    21432199.382    21432210.217
       230.000         187.000
 -11231349.64549  -8732869.16347  20068192.859    20068192.593    20068201.112
       244.000         210.000
 00  5  9 16 42 29.9960000  0  7G24G 2G 4G 5G16G 7G 9
 -23950627.71949 -18615253.05247  19612887.117    19612887.075    19612897.501
       241.000         207.000
   4681738.52349   3648069.09945  22436712.408    22436711.311    22436725.975
       216.000         161.000
 -13422206.81749 -10420278.86147  19097210.278    19097210.477    19097218.530
       238.000         207.000
 -21914021.63649 -13046158.11347  20994541.374    20994541.026    20994551.163
       231.000         188.000
 -11546459.29849  -6948268.41545  23083331.414    23083330.645    23083346.578
       215.000         157.000
   3896353.56349   3035865.38346  21437977.391    21437976.461    21437987.320
       230.000         186.000
 -11238280.90949  -8738270.22547  20066873.940    20066873.676    20066882.215
       244.000         210.000
 00  5  9 16 42 59.9950000  0  7G24G 2G 4G 5G16G 7G 9
 -24042691.92849 -18686991.36547  19595367.904    19595367.836    19595378.238
       241.000         207.000
   4730725.88649   3686240.80945  22446034.642    22446033.540    22446048.242
       213.000         160.000
 -13436594.75649 -10431490.28547  19094472.369    19094472.567    19094480.610
       238.000         207.000
 -22025623.06549 -13133120.22946  20973304.246    20973303.932    20973314.113
       230.000         187.000
 -11589875.09549  -6982098.85545  23075069.759    23075068.955    23075084.967
       215.000         156.000
   3926767.97149   3059564.76846  21443765.172    21443764.236    21443775.132
       230.000         187.000
 -11244667.44149  -8743246.81847  20065658.644    20065658.412    20065666.987
       244.000         210.000
 00  5  9 16 43 29.9950000  0  7G24G 2G 4G 5G16G 7G 9
 -24134272.36549 -18758352.71547  19577940.737    19577940.654    19577951.027
       241.000         207.000
   4779968.78849   3724611.65845  22455405.389    22455404.306    22455418.994
       212.000         159.000
 -13450392.48449 -10442241.80847  19091846.801    19091846.985    19091855.050
       238.000         208.000
 -22137075.97149 -13219966.62346  20952095.417    20952095.108    20952105.306
       231.000         187.000
 -11632774.34449  -7015526.82645  23066906.445    23066905.553    23066921.516
       215.000         155.000
   3957250.33749   3083317.09946  21449565.870    21449564.942    21449575.879
       230.000         187.000
 -11250500.42449  -8747792.06447  20064548.755    20064548.488    20064557.139
       244.000         211.000
 00  5  9 16 43 59.9950000  0  7G24G 2G 4G 5G16G 7G 9
 -24225367.43949 -18829335.86747  19560605.933    19560605.865    19560616.174
       242.000         207.000
   4829461.86049   3763177.42845  22464823.820    22464822.665    22464837.464
       214.000         161.000
 -13463604.20349 -10452536.71147  19089332.758    19089332.902    19089341.036
       238.000         208.000
 -22248378.30249 -13306695.68547  20930915.256    20930914.933    20930925.153
       232.000         188.000
 -11675157.68049  -7048552.74345  23058841.053    23058840.284    23058856.144
       217.000         154.000
   3987796.10249   3107118.82946  21455378.683    21455377.727    21455388.691
       230.000         186.000
 -11255784.10649  -8751909.28347  20063543.381    20063543.096    20063551.807
       244.000         211.000
 00  5  9 16 44 29.9950000  0  7G24G 2G 4G 5G16G 7G 9
 -24315983.89449 -18899946.06047  19543362.227    19543362.129    19543372.385
       242.000         207.000
   4879196.46249   3801931.42445  22474288.136    22474286.989    22474301.920
       215.000         161.000
 -13476238.69949 -10462381.82647  19086928.500    19086928.666    19086936.856
       238.000         208.000
 -22359536.04549 -13393312.08647  20909762.687    20909762.314    20909772.528
       232.000         190.000
 -11717031.27249  -7081181.46445  23050872.723    23050872.011    23050887.732
       214.000         155.000
   4018396.93449   3130963.47846  21461201.931    21461200.990    21461211.977
       230.000         185.000
 -11260527.14749  -8755605.21547  20062640.904    20062640.590    20062649.340
       244.000         211.000
 00  5  9 16 44 59.9950000  0  7G24G 2G 4G 5G16G 7G 9
 -24406124.73449 -18970185.65447  19526209.003    19526208.894    19526219.098
       242.000         207.000
   4929166.78549   3840869.09945  22483797.427    22483796.223    22483811.162
       214.000         159.000
 -13488302.05949 -10471781.91047  19084632.913    19084633.110    19084641.357
       239.000         208.000
 -22470552.00049 -13479818.00047  20888637.082    20888636.680    20888646.903
       232.000         190.000
 -11758399.04249  -7113416.03745  23043000.645    23042999.970    23043015.735
       214.000         157.000
   4049047.44549   3154846.83946  21467034.639    21467033.696    21467044.676
       230.000         184.000
 -11264735.63749  -8758884.62047  20061840.127    20061839.808    20061848.575
       244.000         210.000
 00  5  9 16 45 29.9950000  0  7G24G 2G 4G 5G16G 7G 9
 -24495779.28649 -19040046.32447  19509148.316    19509148.190    19509158.336
       242.000         207.000
   4979381.71949   3879997.38145  22493353.186    22493351.948    22493367.017
       212.000         159.000
 -13499786.08449 -10480730.55847  19082447.576    19082447.783    19082456.053
       238.000         207.000
 -22581415.21949 -13566204.90047  20867540.516    20867540.099    20867550.337
       232.000         191.000
 -11799250.49449  -7145248.30545  23035226.802    23035226.224    23035242.074
       213.000         158.000
   4079756.47549   3178775.80246  21472878.496    21472877.550    21472888.536
       229.000         184.000
 -11268401.48249  -8761741.17847  20061142.564    20061142.267    20061151.053
       244.000         210.000
 00  5  9 16 45 59.9950000  0  7G24G 2G 4G 5G16G 7G 9
 -24584949.79949 -19109529.81947  19492179.727    19492179.620    19492189.691
       242.000         207.000
   5029836.91149   3919312.87645  22502954.498    22502953.381    22502968.471
       213.000         158.000
 -13510695.70749 -10489231.61347  19080371.541    19080371.763    19080380.058
       238.000         208.000
 -22692127.48049 -13652474.16847  20846472.608    20846472.240    20846482.503
       232.000         190.000
 -11839588.12849  -7176680.19045  23027550.710    23027550.175    23027566.272
       214.000         157.000
   4110520.06549   3202747.27746  21478732.657    21478731.754    21478742.767
       227.000         183.000
 -11271529.57849  -8764178.70747  20060547.351    20060547.050    20060555.884
       244.000         210.000
 00  5  9 16 46 29.9950000  0  7G24G 2G 4G 5G16G 7G 9
 -24673633.21949 -19178633.76647  19475303.838    19475303.711    19475313.717
       242.000         207.000
   5080533.04749   3958816.13245  22512601.720    22512600.659    22512615.764
       214.000         158.000
 -13521030.73349 -10497284.93847  19078404.878    19078405.094    19078413.428
       238.000         207.000
 -22802685.41949 -13738623.19447  20825434.161    20825433.740    20825444.025
       232.000         191.000
 -11879408.76149  -7207709.21145  23019972.872    23019972.471    23019988.701
       212.000         154.000
   4141339.26049   3226762.07246  21484597.439    21484596.553    21484607.614
       228.000         184.000
 -11274119.57949  -8766196.93147  20060054.521    20060054.233    20060063.125
       243.000         210.000
 00  5  9 16 46 59.9950000  0  7G24G 2G 4G 5G16G 7G 9
 -24761832.21049 -19247360.23047  19458520.105    19458519.985    19458529.964
       242.000         208.000
   5131465.14449   3998503.22245  22522293.897    22522292.850    22522308.053
       213.000         155.000
 -13530796.31249 -10504894.54047  19076546.569    19076546.792    19076555.144
       238.000         208.000
 -22913091.26449 -13824653.70147  20804424.580    20804424.177    20804434.473
       232.000         191.000
 -11918715.85249  -7238338.04645  23012492.864    23012492.589    23012508.856
       214.000         156.000
   4172209.70149   3250816.79946  21490471.943    21490471.093    21490482.246
       227.000         184.000
 -11276176.67449  -8767799.89547  20059663.100    20059662.813    20059671.761
       244.000         210.000
 00  5  9 16 47 29.9950000  0  7G24G 2G 4G 5G16G 7G 9
 -24849537.21449 -19315701.77547  19441830.343    19441830.260    19441840.273
       242.000         208.000
   5182640.72149   4038380.04845  22532032.413    22532031.375    22532046.730
       212.000         157.000
 -13539985.71249 -10512055.17047  19074797.944    19074798.142    19074806.515
       239.000         208.000
 -23023334.82249 -13910557.75947  20783445.889    20783445.517    20783455.844
       233.000         192.000
 -11957500.06149  -7268559.44045  23005112.436    23005112.121    23005128.422
       212.000         155.000
   4203138.88849   3274917.29846  21496357.675    21496356.825    21496368.047
       228.000         183.000
 -11277694.01249  -8768982.26847  20059374.386    20059374.107    20059383.085
       244.000         209.000
 00  5  9 16 47 59.9950000  0  7G24G 2G 4G 5G16G 7G 9
 -24936755.59449 -19383664.12847  19425233.166    19425233.127    19425243.165
       242.000         208.000
   5234050.31749   4078439.23445  22541815.603    22541814.495    22541829.830
       215.000         157.000
 -13548608.76149 -10518774.48447  19073157.118    19073157.280    19073165.660
       239.000         207.000
 -23133422.99049 -13996340.72047  20762496.746    20762496.403    20762506.761
       231.000         191.000
 -11995768.62449  -7298379.06745  22997830.359    22997829.821    22997846.190
       217.000         158.000
   4234118.09449   3299056.78046  21502253.012    21502252.100    21502263.369
       229.000         184.000
 -11278681.54149  -8769751.81447  20059186.470    20059186.224    20059195.197
       243.000         209.000
 00  5  9 16 48 29.9950000  0  7G24G 2G 4G 5G16G 7G 9
 -25023476.67849 -19451238.98047  19408730.707    19408730.642    19408740.654
       242.000         208.000
   5285702.38449   4118687.33145  22551645.019    22551643.805    22551659.159
       212.000         158.000
 -13556657.53649 -10525046.31147  19071625.525    19071625.682    19071634.047
       239.000         207.000
 -23243344.45349 -14081993.78747  20741579.334    20741579.017    20741589.430
       232.000         192.000
 -12033511.59749  -7327789.11945  22990648.354    22990647.553    22990664.000
       215.000         158.000
   4265156.15449   3323242.11946  21508159.530    21508158.598    21508169.854
       228.000         184.000
 -11279131.39049  -8770102.38947  20059100.871    20059100.633    20059109.611
       243.000         208.000
 00  5  9 16 48 59.9950000  0  7G24G 2G 4G 5G16G 7G 9
 -25109701.05349 -19518426.78447  19392322.755    19392322.688    19392332.672
       242.000         208.000
   5337594.06049   4159122.16045  22561519.865    22561518.670    22561533.996
       212.000         158.000
 -13564135.29949 -10530873.18747  19070202.611    19070202.760    19070211.123
       239.000         208.000
 -23353099.39149 -14167517.09147  20720693.611    20720693.314    20720703.767
       232.000         191.000
 -12070729.67949  -7356790.18845  22983565.847    22983565.161    22983581.675
       217.000         160.000
   4296250.44049   3347471.26146  21514076.707    21514075.770    21514087.107
       228.000         184.000
 -11279046.82949  -8770036.54747  20059116.973    20059116.766    20059125.726
       243.000         208.000
 00  5  9 16 49 29.9950000  0  7G24G 2G 4G 5G16G 7G 9
 -25195429.79349 -19585228.38347  19376009.120    19376009.031    19376019.001
       242.000         208.000
   5389722.21249   4199741.24445  22571439.789    22571438.544    22571453.888
       212.000         156.000
 -13571046.17849 -10536258.33647  19068887.598    19068887.711    19068896.099
       239.000         208.000
 -23462688.16349 -14252910.92147  20699839.536    20699839.230    20699849.691
       233.000         191.000
 -12107424.25049  -7385383.35545  22976583.209    22976582.450    22976599.036
       215.000         161.000
   4327398.28949   3371742.14946  21520004.042    21520003.113    21520014.565
       229.000         185.000
 -11278431.58249  -8769557.18747  20059234.090    20059233.865    20059242.851
       243.000         209.000
 00  5  9 16 49 59.9950000  0  7G24G 2G 4G 5G16G 7G 9
 -25280649.67749 -19651633.47347  19359792.234    19359792.186    19359802.200
       241.000         208.000
   5442098.06549   4240553.36545  22581406.742    22581405.517    22581420.907
       213.000         157.000
 -13577379.05349 -10541193.10047  19067682.494    19067682.647    19067691.072
       239.000         209.000
 -23572096.73549 -14338164.34347  20679019.790    20679019.472    20679029.899
       233.000         192.000
 -12143582.39049  -7413558.54545  22969702.347    22969701.721    22969718.296
       214.000         158.000
   4358611.31349   3396063.81646  21525943.786    21525942.874    21525954.409
       228.000         185.000
 -11277274.91449  -8768655.94147  20059454.230    20059454.004    20059463.024
       243.000         209.000
 00  5  9 16 50 29.9950000  0  7G24G 2G 4G 5G16G 7G 9
 -25365384.66949 -19717660.72047  19343667.637    19343667.615    19343677.686
       241.000         209.000
   5494695.40949   4281538.05345  22591415.872    22591414.673    22591430.125
       214.000         156.000
 -13583161.13349 -10545698.66647  19066582.278    19066582.408    19066590.862
       239.000         209.000
 -23681348.71949 -14423295.74747  20658229.838    20658229.508    20658239.911
       234.000         192.000
 -12179228.42349  -7441334.70845  22962919.272    22962918.538    22962934.997
       212.000         159.000
   4389863.82549   3420416.25346  21531891.134    21531890.165    21531901.760
       229.000         184.000
 -11275603.70749  -8767353.74947  20059772.303    20059772.074    20059781.131
       243.000         209.000
 00  5  9 16 50 59.9950000  0  8G30G24G 2G 4G 5G16G 7G 9
  -2808441.65059  -2161570.41955  23796646.468    23796646.779    23796660.119
       210.000         141.000
 -25449614.48449 -19783294.32647  19327639.238    19327639.199    19327649.309
       241.000         209.000
   5547532.58149   4322709.60045  22601470.657    22601469.448    22601485.039
       210.000         156.000
 -13588374.39249 -10549760.99847  19065590.253    19065590.386    19065598.860
       239.000         208.000
 -23790423.02749 -14508288.69647  20637473.711    20637473.337    20637483.751
       233.000         193.000
 -12214342.19349  -7468696.11345  22956237.381    22956236.685    22956253.117
       216.000         162.000
   4421174.68149   3444814.15946  21537849.516    21537848.570    21537860.200
       228.000         184.000
 -11273399.96749  -8765636.60647  20060191.689    20060191.462    20060200.551
       243.000         209.000
 00  5  9 16 51 29.9950000  0  8G30G24G 2G 4G 5G16G 7G 9
  -2940744.15149  -2264663.33445  23771470.245    23771470.501    23771483.651
       215.000         138.000
 -25533345.85549 -19848539.53447  19311705.699    19311705.652    19311715.784
       241.000         209.000
   5600600.82249   4364061.24045  22611569.354    22611568.189    22611583.728
       212.000         155.000
 -13593028.20349 -10553387.38847  19064704.707    19064704.848    19064713.288
       239.000         208.000
 -23899325.69449 -14593147.90047  20616750.185    20616749.832    20616760.263
       233.000         193.000
 -12248931.03549  -7495648.51046  22949655.327    22949654.723    22949671.122
       216.000         164.000
   4452535.50149   3469250.98946  21543817.436    21543816.483    21543828.140
       227.000         184.000
 -11270673.23349  -8763511.93647  20060710.661    20060710.408    20060719.483
       243.000         208.000
 00  5  9 16 51 59.9950000  0  8G30G24G 2G 4G 5G16G 7G 9
  -3073088.31349  -2367788.68845  23746286.098    23746286.335    23746299.355
       211.000         134.000
 -25616572.68249 -19913391.59347  19295868.141    19295868.106    19295878.278
       240.000         209.000
   5653904.03449   4405595.95345  22621712.894    22621711.691    22621727.257
       212.000         154.000
 -13597119.62949 -10556575.55647  19063926.161    19063926.306    19063934.702
       238.000         207.000
 -24008050.05549 -14677868.16447  20596060.595    20596060.247    20596070.706
       233.000         193.000
 -12282988.96749  -7522187.22345  22943174.366    22943173.734    22943190.169
       215.000         161.000
   4483950.72749   3493730.21946  21549795.677    21549794.736    21549806.466
       226.000         183.000
 -11267420.17749  -8760977.15147  20061329.763    20061329.487    20061338.575
       243.000         208.000
 00  5  9 16 52 29.9950000  0  8G30G24G 2G 4G 5G16G 7G 9
  -3205486.55249  -2470956.26645  23721091.644    23721091.895    23721104.734
       210.000         146.000
 -25699307.62449 -19977860.36847  19280124.155    19280124.134    19280134.364
       240.000         208.000
   5707427.46849   4447302.27445  22631898.307    22631897.029    22631912.677
       211.000         155.000
 -13600663.59949 -10559337.13447  19063251.740    19063251.920    19063260.306
       238.000         207.000
 -24116607.83349 -14762458.62547  20575402.731    20575402.391    20575412.823
       233.000         193.000
 -12316528.88349  -7548322.31845  22936791.890    22936791.299    22936807.689
       217.000         158.000
   4515406.19249   3518240.80246  21555781.521    21555780.615    21555792.466
       226.000         184.000
 -11263655.96449  -8758044.06547  20062046.043    20062045.820    20062054.906
       242.000         207.000
 00  5  9 16 52 59.9950000  0  8G30G24G 2G 4G 5G16G 7G 9
  -3337938.08549  -2574165.29744  23695886.874    23695887.019    23695899.940
       210.000         131.000
 -25781550.01349 -20041945.33747  19264473.866    19264473.904    19264484.182
       240.000         208.000
   5761169.42049   4489178.84545  22642125.138    22642123.901    22642139.627
       210.000         151.000
 -13603662.33749 -10561673.85647  19062681.104    19062681.296    19062689.718
       239.000         209.000
 -24224997.91249 -14846918.41247  20554776.758    20554776.432    20554786.863
       234.000         194.000
 -12349550.76549  -7574053.74645  22930507.919    22930507.419    22930523.617
       213.000         154.000
   4546900.92149   3542781.97146  21561774.892    21561773.969    21561785.939
       226.000         184.000
 -11259382.85149  -8754714.44747  20062859.222    20062859.002    20062868.058
       243.000         208.000
 00  5  9 16 53 29.9950000  0  8G30G24G 2G 4G 5G16G 7G 9
  -3470425.51749  -2677402.21145  23670675.450    23670675.503    23670688.568
       214.000         143.000
 -25863282.71749 -20105633.14747  19248920.608    19248920.665    19248930.972
       240.000         208.000
   5815145.45649   4531237.85245  22652396.608    22652395.414    22652411.211
       210.000         156.000
 -13606101.26549 -10563574.36347  19062217.088    19062217.236    19062225.712
       239.000         209.000
 -24333202.14649 -14931233.38047  20534186.211    20534185.861    20534196.276
       234.000         195.000
 -12382037.53049  -7599368.21145  22924325.808    22924325.357    22924341.475
       213.000         154.000
   4578450.67349   3567366.01946  21567778.740    21567777.800    21567789.861
       226.000         183.000
 -11254586.29949  -8750976.95047  20063771.981    20063771.807    20063780.841
       242.000         208.000
 00  5  9 16 53 59.9950000  0  8G30G24G 2G 4G 5G16G 7G 9
  -3602958.97749  -2780675.13345  23645454.989    23645455.175    23645468.375
       212.000         135.000
 -25944515.82149 -20168931.65847  19233462.472    19233462.495    19233472.832
       240.000         208.000
   5869343.34949   4573469.73245  22662710.176    22662709.164    22662725.012
       207.000         152.000
 -13607993.27749 -10565048.69947  19061857.075    19061857.230    19061865.750
       238.000         208.000
 -24441229.76049 -15015410.73547  20513629.287    20513628.904    20513639.285
       234.000         195.000
 -12413999.57149  -7624273.81245  22918243.800    22918243.240    22918259.282
       213.000         156.000
   4610044.04249   3591984.06146  21573790.829    21573789.926    21573802.068
       226.000         183.000
 -11249279.07449  -8746841.52147  20064781.953    20064781.778    20064790.825
       242.000         208.000
 00  5  9 16 54 29.9950000  0  8G30G24G 2G 4G 5G16G 7G 9
  -3735523.77049  -2883972.37545  23620229.030    23620229.047    23620242.125
       209.000         133.000
 -26025235.13149 -20231829.81547  19218102.083    19218102.109    19218112.429
       240.000         207.000
   5923775.33249   4615883.98645  22673068.506    22673067.454    22673083.463
       209.000         154.000
 -13609326.84149 -10566087.88447  19061603.234    19061603.453    19061612.033
       237.000         207.000
 -24549065.69649 -15099438.72947  20493108.782    20493108.387    20493118.789
       235.000         195.000
 -12445422.85749  -7648759.59045  22912264.199    22912263.578    22912279.709
       212.000         156.000
   4641693.72849   3616645.97446  21579813.654    21579812.761    21579824.988
       226.000         182.000
 -11243449.62449  -8742299.17547  20065891.236    20065891.102    20065900.187
       242.000         208.000
 00  5  9 16 54 59.9950000  0  8G30G24G 2G 4G 5G16G 7G 9
  -3868128.25549  -2987300.58445  23594995.211    23594995.298    23595008.255
       211.000         149.000
 -26105449.11549 -20294334.21147  19202837.863    19202837.873    19202848.158
       241.000         207.000
   5978430.77849   4658472.41645  22683469.304    22683468.246    22683484.286
       209.000         155.000
 -13610112.91049 -10566700.45347  19061453.625    19061453.866    19061462.467
       238.000         207.000
 -24656717.31949 -15183323.11047  20472623.359    20472622.975    20472633.337
       235.000         195.000
 -12476316.40749  -7672832.62045  22906385.284    22906384.752    22906400.943
       213.000         154.000
   4673389.75549   3641344.00046  21585845.287    21585844.431    21585856.689
       225.000         182.000
 -11237108.80749  -8737358.36947  20067097.934    20067097.752    20067106.875
       242.000         208.000
 00  5  9 16 55 29.9950000  0  8G30G24G 2G 4G 5G16G 7G 9
  -4000795.02949  -3090677.34345  23569749.557    23569749.672    23569762.460
       210.000         138.000
 -26185180.53749 -20356462.57347  19187665.468    19187665.477    19187675.714
       240.000         206.000
   6033284.65949   4701215.42745  22693907.844    22693906.807    22693922.961
       209.000         152.000
 -13610377.29449 -10566906.50247  19061403.380    19061403.591    19061412.180
       239.000         208.000
 -24764206.69749 -15267081.05647  20452168.798    20452168.405    20452178.764
       235.000         195.000
 -12506703.24649  -7696510.78145  22900602.934    22900602.417    22900618.597
       216.000         158.000
   4705108.02949   3666059.36746  21591881.248    21591880.347    21591892.642
       228.000         182.000
 -11230282.41649  -8732039.20147  20068397.017    20068396.815    20068405.946
       243.000         208.000
 00  5  9 16 55 59.9950000  0  8G30G24G 2G 4G 5G16G 7G 9
  -4133497.94549  -3194082.03245  23544496.978    23544497.137    23544509.952
       209.000         137.000
 -26264403.68149 -20418194.87347  19172589.799    19172589.816    19172600.027
       240.000         206.000
   6088360.98449   4744131.78945  22704388.825    22704387.661    22704403.891
       212.000         154.000
 -13610096.67449 -10566687.87847  19061456.896    19061457.059    19061465.613
       239.000         209.000
 -24871507.24049 -15350691.84847  20431750.207    20431749.806    20431760.144
       235.000         196.000
 -12536558.09449  -7719774.42245  22894921.856    22894921.366    22894937.578
       216.000         160.000
   4736872.98049   3690811.09746  21597926.077    21597925.156    21597937.463
       227.000         181.000
 -11222947.44549  -8726323.73647  20069792.894    20069792.674    20069801.807
       242.000         208.000
 00  5  9 16 56 29.9950000  0  8G30G24G 2G 4G 5G16G 7G 9
  -4266239.22649  -3297516.99445  23519237.216    23519237.509    23519249.924
       205.000         142.000
 -26343121.50349 -20479533.42547  19157610.284    19157610.285    19157620.517
       240.000         207.000
   6143654.78049   4787217.59245  22714910.974    22714909.878    22714926.278
       210.000         153.000
 -13609276.93249 -10566049.16447  19061612.927    19061613.097    19061621.645
       239.000         208.000
 -24978621.14549 -15434157.21347  20411367.092    20411366.689    20411377.051
       235.000         196.000
 -12565884.14149  -7742626.00945  22889341.376    22889340.888    22889357.268
       217.000         160.000
   4768680.17149   3715595.73246  21603978.904    21603977.991    21603990.297
       227.000         181.000
 -11215109.20949  -8720216.11047  20071284.589    20071284.316    20071293.449
       242.000         208.000
 00  5  9 16 56 59.9950000  0  8G30G24G 2G 4G 5G16G 7G 9
  -4399016.51049  -3400979.72545  23493970.478    23493970.735    23493983.373
       211.000         132.000
 -26421331.54849 -20540476.29647  19142727.392    19142727.382    19142737.637
       240.000         207.000
   6199166.64049   4830473.34545  22725474.707    22725473.570    22725489.905
       209.000         150.000
 -13607918.18049 -10564990.44247  19061871.468    19061871.676    19061880.253
       239.000         208.000
 -25085544.75549 -15517474.30347  20391020.225    20391019.813    20391030.167
       235.000         196.000
 -12594679.53349  -7765064.07045  22883861.852    22883861.313    22883877.842
       215.000         159.000
   4800530.88049   3740414.28246  21610040.052    21610039.101    21610051.430
       226.000         180.000
 -11206767.97349  -8713716.53947  20072871.877    20072871.652    20072880.829
       241.000         209.000
 00  5  9 16 57 29.9950000  0  8G30G24G 2G 4G 5G16G 7G 9
  -4531828.91549  -3504469.90845  23468697.111    23468697.384    23468710.073
       208.000         148.000
 -26499033.67049 -20601023.38847  19127941.175    19127941.172    19127951.394
       240.000         207.000
   6254894.77049   4873897.55945  22736079.646    22736078.563    22736094.983
       209.000         152.000
 -13606022.96249 -10563513.69747  19062232.203    19062232.380    19062240.931
       240.000         209.000
 -25192276.81749 -15600642.14047  20370709.796    20370709.370    20370719.704
       236.000         195.000
 -12622944.13049  -7787088.54345  22878483.261    22878482.780    22878499.476
       216.000         158.000
   4832424.08649   3765265.95346  21616109.260    21616108.303    21616120.635
       227.000         180.000
 -11197926.40949  -8706827.11147  20074554.412    20074554.201    20074563.456
       242.000         210.000
 00  5  9 16 57 59.9950000  0  8G30G24G 2G 4G 5G16G 7G 9
  -4664688.17349  -3607996.65245  23443414.922    23443415.099    23443427.936
       216.000         147.000
 -26576239.81749 -20661183.99247  19113249.355    19113249.329    19113259.542
       240.000         207.000
   6310825.13949   4917479.41145  22746723.241    22746722.065    22746738.211
       207.000         147.000
 -13603605.74949 -10561630.20147  19062692.274    19062692.418    19062700.954
       240.000         209.000
 -25298828.49649 -15683669.40647  20350433.673    20350433.246    20350443.585
       236.000         196.000
 -12650690.42349  -7808709.10245  22873203.542    22873202.951    22873219.661
       217.000         161.000
   4864346.34649   3790140.25646  21622184.026    21622183.053    21622195.421
       226.000         180.000
 -11188599.06149  -8699559.14347  20076329.443    20076329.219    20076338.508
       243.000         209.000
 00  5  9 16 58 29.9950000  0  8G30G24G 2G 4G 5G16G 7G 9
  -4797576.92849  -3711546.21945  23418127.061    23418127.188    23418140.129
       213.000         142.000
 -26652933.18249 -20720945.03847  19098655.057    19098655.055    19098665.253
       240.000         206.000
   6366972.56549   4961230.37845  22757407.984    22757406.837    22757422.967
       208.000         150.000
 -13600652.75949 -10559329.23047  19063254.242    19063254.396    19063262.938
       239.000         209.000
 -25405181.70849 -15766542.02647  20330195.290    20330194.891    20330205.252
       237.000         197.000
 -12677902.01849  -7829913.00745  22868025.233    22868024.823    22868041.493
       212.000         160.000
   4896313.39449   3815049.45646  21628267.284    21628266.308    21628278.751
       226.000         181.000
 -11178771.80749  -8691901.64947  20078199.652    20078199.372    20078208.692
       242.000         209.000
 00  5  9 16 58 59.9950000  0  8G30G24G 2G 4G 5G16G 7G 9
  -4930486.86949  -3815112.45145  23392835.122    23392835.269    23392848.321
       207.000         146.000
 -26729106.02949 -20780300.47147  19084159.833    19084159.815    19084170.000
       239.000         206.000
   6423343.14949   5005155.20245  22768135.064    22768133.945    22768150.269
       208.000         148.000
 -13597158.50449 -10556606.48647  19063919.182    19063919.352    19063927.898
       239.000         208.000
 -25511327.45849 -15849252.98047  20309996.436    20309996.050    20310006.383
       237.000         197.000
 -12704571.13949  -7850694.19345  22862949.814    22862949.927    22862966.630
       213.000         161.000
   4928331.97249   3839998.82646  21634360.394    21634359.387    21634371.871
       228.000         180.000
 -11168439.21849  -8683850.38747  20080165.954    20080165.659    20080175.000
       242.000         209.000
 00  5  9 16 59 29.9950000  0  8G30G24G 2G 4G 5G16G 7G 9
  -5063419.10749  -3918696.03445  23367538.875    23367539.101    23367552.221
       208.000         148.000
 -26804759.67649 -20839251.33647  19069763.423    19069763.391    19069773.565
       240.000         206.000
   6479933.42949   5049251.25845  22778903.988    22778902.875    22778919.288
       208.000         152.000
 -13593127.14149 -10553465.22647  19064686.317    19064686.515    19064695.078
       239.000         208.000
 -25617266.35649 -15931802.75547  20289836.952    20289836.553    20289846.869
       238.000         197.000
 -12730699.94849  -7871054.34845  22857977.969    22857977.838    22857994.687
       214.000         161.000
   4960399.29849   3864986.17346  21640462.801    21640461.782    21640474.209
       228.000         180.000
 -11157605.63049  -8675408.72647  20082227.608    20082227.294    20082236.685
       242.000         209.000
 00  5  9 16 59 59.9950000  0  8G30G24G 2G 4G 5G16G 7G 9
  -5196375.97249  -4022298.73945  23342238.097    23342238.283    23342251.417
       215.000         151.000
 -26879897.18749 -20897800.01847  19055465.221    19055465.191    19055475.347
       239.000         206.000
   6536738.30349   5093514.48245  22789713.900    22789712.626    22789729.186
       212.000         147.000
 -13588564.58049 -10549910.04147  19065554.637    19065554.794    19065563.351
       239.000         208.000
 -25723000.35249 -16014192.86847  20269716.434    20269716.041    20269726.327
       237.000         197.000
 -12756291.71849  -7890996.01845  22853107.898    22853107.850    22853124.807
       212.000         159.000
   4992511.13049   3890008.19046  21646573.706    21646572.632    21646585.062
       227.000         180.000
 -11146276.73549  -8666581.10747  20084383.442    20084383.168    20084392.611
       242.000         209.000
 00  5  9 17  0 29.9950000  0  8G30G24G 2G 4G 5G16G 7G 9
  -5329354.90049  -4125918.67245  23316933.082    23316933.243    23316946.403
       217.000         155.000
 -26954516.71349 -20955945.08047  19041265.573    19041265.543    19041275.703
       240.000         206.000
   6593758.12049   5137945.21545  22800564.535    22800563.331    22800580.128
       210.000         152.000
 -13583471.49849 -10545941.46547  19066523.859    19066524.010    19066532.572
       239.000         208.000
 -25828526.17649 -16096420.77747  20249635.547    20249635.148    20249645.378
       237.000         197.000
 -12781344.87449  -7910517.99745  22848340.591    22848340.400    22848357.340
       212.000         159.000
   5024668.58749   3915065.76446  21652693.162    21652692.110    21652704.631
       227.000         180.000
 -11134453.37249  -8657368.20247  20086633.453    20086633.137    20086642.617
       242.000         209.000
 00  5  9 17  0 59.9950000  0  8G30G24G 2G 4G 5G16G 7G 9
  -5462355.37449  -4229555.39145  23291623.833    23291624.053    23291637.312
       214.000         152.000
 -27028618.16349 -21013686.44147  19027164.471    19027164.475    19027174.682
       239.000         207.000
   6650991.10249   5182542.11845  22811455.910    22811454.676    22811471.438
       204.000         146.000
 -13577850.44249 -10541561.48747  19067593.542    19067593.693    19067602.275
       239.000         208.000
 -25933842.62349 -16178485.52447  20229594.521    20229594.079    20229604.279
       237.000         197.000
 -12805859.82349  -7929620.56745  22843675.716    22843675.365    22843692.261
       213.000         160.000
   5056870.47649   3940157.97746  21658821.084    21658820.067    21658832.597
       226.000         180.000
 -11122138.08349  -8647771.96747  20088976.999    20088976.731    20088986.247
       243.000         209.000
 00  5  9 17  1 29.9950000  0  9G30G24G 2G 4G 5G16G 7G10G 9
  -5595376.94849  -4333208.51345  23266310.543    23266310.826    23266324.196
       211.000         148.000
 -27102201.83449 -21071024.34347  19013161.951    19013161.954    19013172.186
       240.000         208.000
   6708434.97449   5227303.22845  22822387.477    22822386.131    22822403.044
       210.000         154.000
 -13571704.35049 -10536772.39547  19068763.109    19068763.289    19068771.878
       240.000         209.000
 -26038948.67849 -16260386.33547  20209593.490    20209593.072    20209603.221
       237.000         197.000
 -12829837.14749  -7948304.19745  22839113.127    22839112.712    22839129.522
       214.000         158.000
   5089115.52549   3965283.80746  21664957.277    21664956.248    21664968.807
       227.000         179.000
                                  23672761.743
       199.000
 -11109333.87149  -8637794.75647  20091413.664    20091413.369    20091422.900
       243.000         208.000
 00  5  9 17  1 59.9950000  0  9G30G24G 2G 4G 5G16G 7G10G 9
  -5728421.16749  -4436879.32645  23240993.039    23240993.303    23241006.777
       214.000         149.000
 -27175269.79349 -21127960.39347  18999257.673    18999257.620    18999267.819
       240.000         208.000
   6766085.73449   5272225.60045  22833358.150    22833356.873    22833373.820
       209.000         146.000
 -13565038.06449 -10531577.95447  19070031.765    19070031.893    19070040.521
       240.000         209.000
 -26143845.30149 -16342123.94547  20189632.320    20189631.900    20189642.017
       238.000         197.000
 -12853279.42149  -7966570.91245  22834652.332    22834651.864    22834668.710
       215.000         157.000
   5121400.42149   3990440.67246  21671101.028    21671099.973    21671112.583
       226.000         179.000
    -99338.00044                  23648354.048
       201.000         123.000
 -11096045.33449  -8627440.15347  20093942.481    20093942.166    20093951.701
       243.000         208.000
 00  5  9 17  2 29.9950000  0  9G30G24G 2G 4G 5G16G 7G10G 9
  -5861474.24449  -4540557.06345  23215673.918    23215674.129    23215687.657
       214.000         148.000
 -27247809.22349 -21184484.60747  18985453.900    18985453.825    18985464.012
       239.000         207.000
   6823954.48049   5317317.84845  22844370.518    22844369.259    22844386.141
       207.000         150.000
 -13557841.23949 -10525970.11547  19071401.304    19071401.444    19071410.110
       240.000         209.000
 -26248518.30249 -16423687.31547  20169713.705    20169713.276    20169723.367
       237.000         197.000
 -12876174.17449  -7984410.99545  22830295.763    22830295.195    22830312.095
       215.000         155.000
   5153737.27549   4015638.03846  21677254.594    21677253.615    21677266.246
       225.000         178.000
   -199399.84144                  23623918.432
       194.000          96.000
 -11082262.16649  -8616700.11947  20096565.407    20096565.085    20096574.620
       244.000         208.000
 00  5  9 17  2 59.9950000  0  9G30G24G 2G 4G 5G16G 7G10G 9
  -5994542.35449  -4644246.43745  23190351.857    23190352.160    23190365.690
       214.000         150.000
 -27319827.01049 -21240602.34347  18971749.308    18971749.265    18971759.461
       239.000         206.000
   6882032.30349   5362572.97845  22855422.684    22855421.382    22855438.339
       208.000         145.000
 -13550123.32349 -10519956.22347  19072870.012    19072870.152    19072878.859
       240.000         209.000
 -26352973.06449 -16505080.62347  20149836.572    20149836.171    20149846.257
       237.000         197.000
 -12898528.83549  -8001830.22645  22826041.743    22826041.279    22826058.209
       214.000         157.000
   5186118.16249   4040869.71246  21683416.570    21683415.615    21683428.302
       225.000         178.000
   -299579.27245                  23599453.654
       205.000         133.000
 -11067993.85349  -8605582.03647  20099280.689    20099280.342    20099289.852
       244.000         208.000
 00  5  9 17  3 29.9950000  0  9G30G24G 2G 4G 5G16G 7G10G 9
  -6127637.29849  -4747956.76345  23165024.763    23165025.005    23165038.516
       217.000         149.000
 -27391335.97749 -21296323.60147  18958141.561    18958141.520    18958151.707
       238.000         206.000
   6940304.46649   5407979.51945  22866511.561    22866510.356    22866527.633
       205.000         149.000
 -13541900.07549 -10513548.57447  19074434.928    19074435.044    19074443.808
       241.000         210.000
 -26457221.47549 -16586313.14047  20129998.718    20129998.345    20130008.433
       237.000         197.000
 -12920356.37249  -8018838.71245  22821887.999    22821887.591    22821904.566
       213.000         156.000
   5218529.14249   4066124.82346  21689584.241    21689583.346    21689596.093
       225.000         178.000
    -92961.65244                  23574957.901
       197.000         103.000
 -11053256.23549  -8594098.25547  20102085.172    20102084.885    20102094.418
       243.000         207.000
 00  5  9 17  3 59.9950000  0  9G30G24G 2G 4G 5G16G 7G10G 9
  -6260738.59649  -4851672.05845  23139696.392    23139696.644    23139710.156
       215.000         146.000
 -27462316.14849 -21351632.81247  18944634.469    18944634.434    18944644.587
       238.000         207.000
   6998789.27049   5453551.89845  22877641.141    22877639.962    22877656.806
       205.000         142.000
 -13533153.91949 -10506733.46347  19076099.381    19076099.459    19076108.248
       241.000         210.000
 -26561242.16349 -16667368.20547  20110204.189    20110203.828    20110213.946
       237.000         197.000
 -12941637.34449  -8035421.31745  22817838.198    22817837.945    22817854.873
       214.000         156.000
   5250989.43349   4091418.36446  21695761.346    21695760.460    21695773.282
       223.000         177.000
   -193378.30144                  23550435.032
       197.000         126.000
 -11038031.64949  -8582235.01747  20104982.425    20104982.096    20104991.644
       243.000         208.000
 00  5  9 17  4 29.9950000  0  9G30G24G 2G 4G 5G16G 7G10G 9
  -6393850.66949  -4955395.73345  23114365.914    23114366.246    23114379.727
       214.000         147.000
 -27532772.69749 -21406534.01247  18931227.026    18931226.979    18931237.129
       239.000         208.000
   7057479.97749   5499284.47145  22888809.698    22888808.506    22888825.938
       212.000         156.000
 -13523892.65349 -10499516.96647  19077861.819    19077861.891    19077870.670
       241.000         210.000
 -26665038.68949 -16748248.60247  20090452.303    20090451.973    20090462.088
       237.000         197.000
 -12962377.28249  -8051582.35545  22813891.670    22813891.338    22813908.218
       215.000         157.000
   5283493.06949   4116745.67846  21701946.642    21701945.788    21701958.656
       224.000         176.000
  -1215418.64849   -293907.18245  23525884.911    23525885.118    23525904.591
       204.000         142.000
 -11022327.84949  -8569998.37147  20107970.794    20107970.481    20107980.049
       243.000         207.000
 00  5  9 17  4 59.9950000  0  9G30G24G 2G 4G 5G16G 7G10G 9
  -6526968.55449  -5059123.94845  23089034.347    23089034.727    23089048.264
       211.000         145.000
 -27602701.69449 -21461024.13447  18917919.994    18917919.952    18917930.085
       239.000         208.000
   7116378.63349   5545179.29245  22900017.870    22900016.870    22900033.942
       203.000         136.000
 -13514115.07049 -10491898.14147  19079722.468    19079722.557    19079731.332
       240.000         209.000
 -26768605.81249 -16828950.24447  20070744.065    20070743.784    20070753.881
       236.000         197.000
 -12982572.57549  -8067319.02245  22810048.839    22810048.299    22810065.164
       209.000         156.000
   5316042.95549   4142109.04046  21708140.835    21708139.943    21708152.849
       224.000         176.000
  -1344569.35749   -394543.92644  23501308.185    23501306.970    23501323.647
       204.000         124.000
 -11006143.73949  -8557387.47247  20111050.592    20111050.295    20111059.842
       243.000         207.000
 00  5  9 17  5 29.9950000  0  9G30G24G 2G 4G 5G16G 7G10G 9
  -6660092.41849  -5162856.78845  23063701.532    23063702.034    23063715.640
       209.000         142.000
 -27672104.17949 -21515103.99347  18904713.143    18904713.083    18904723.243
       239.000         208.000
   7175482.29749   5591233.72445  22911265.369    22911264.207    22911281.588
       202.000         151.000
 -13503824.64449 -10483879.69447  19081680.699    19081680.796    19081689.553
       241.000         208.000
 -26871942.96149 -16909472.68247  20051079.630    20051079.347    20051089.453
       237.000         198.000
 -13002224.69849  -8082632.46845  22806309.169    22806308.602    22806325.446
       214.000         156.000
   5348637.43249   4167507.14646  21714343.527    21714342.612    21714355.561
       224.000         175.000
  -1473857.05759   -495287.80455  23476705.621    23476705.656    23476723.962
       200.000         143.000
 -10989482.72049  -8544404.96047  20114221.128    20114220.845    20114230.411
       243.000         207.000
 00  5  9 17  5 59.9950000  0  9G30G24G 2G 4G 5G16G 7G10G 9
  -6793233.81849  -5266603.28345  23038365.621    23038366.010    23038379.638
       208.000         143.000
 -27740992.86849 -21568783.49547  18891604.042    18891604.005    18891614.202
       238.000         208.000
   7234776.65349   5637436.85245  22922548.956    22922547.749    22922564.873
       210.000         143.000
 -13493036.85249 -10475473.69347  19083733.597    19083733.696    19083742.431
       240.000         209.000
 -26975061.51249 -16989824.78047  20031456.822    20031456.515    20031466.635
       236.000         198.000
 -13021346.92549  -8097532.97845  22802670.193    22802669.763    22802686.694
       211.000         157.000
   5381262.72749   4192929.26546  21720552.088    21720551.127    21720564.138
       223.000         175.000
  -1603293.10449   -596146.88544  23452074.620    23452073.786    23452091.784
       210.000         129.000
 -10972360.23749  -8531062.85847  20117479.514    20117479.206    20117488.785
       243.000         206.000
 00  5  9 17  6 29.9950000  0  9G30G24G 2G 4G 5G16G 7G10G 9
  -6926382.01049  -5370355.03145  23013028.329    23013028.771    23013042.284
       213.000         147.000
 -27809357.67249 -21622054.78047  18878594.627    18878594.594    18878604.816
       240.000         207.000
   7294269.99449   5683794.90145  22933870.191    22933869.106    22933886.781
       200.000         147.000
 -13481744.17949 -10466674.28047  19085882.584    19085882.680    19085891.408
       241.000         209.000
 -27077949.81749 -17069997.47447  20011877.838    20011877.519    20011887.632
       237.000         198.000
 -13039929.42649  -8112012.93745  22799134.224    22799133.690    22799150.486
       215.000         155.000
   5413928.43149   4218382.87546  21726768.244    21726767.318    21726780.385
       223.000         174.000
  -1732865.03049   -697112.15045  23427417.902    23427417.417    23427435.567
       200.000         139.000
 -10954768.91749  -8517355.43647  20120827.142    20120826.807    20120836.387
       243.000         207.000
 00  5  9 17  6 59.9940000  0  9G30G24G 2G 4G 5G16G 7G10G 9
  -7059532.20749  -5474108.38845  22987690.766    22987691.134    22987704.555
       211.000         150.000
 -27877197.09649 -21674916.67547  18865685.221    18865685.171    18865695.386
       240.000         207.000
   7353957.93849   5730304.70345  22945228.775    22945227.593    22945245.033
       202.000         133.000
 -13469950.39149 -10457484.38547  19088126.963    19088127.038    19088135.786
       241.000         210.000
 -27180603.87649 -17149987.63647  19992343.448    19992343.106    19992353.183
       237.000         198.000
 -13057972.78049  -8126072.78945  22795700.840    22795700.267    22795716.850
       216.000         154.000
   5446631.73349   4243865.78146  21732991.564    21732990.672    21733003.820
       223.000         176.000
  -1862567.12049   -798178.51045  23402736.486    23402735.666    23402754.383
       207.000         133.000
 -10936712.83549  -8503285.85747  20124263.143    20124262.839    20124272.455
       242.000         207.000
 00  5  9 17  7 29.9940000  0  9G30G24G 2G 4G 5G16G 7G10G 9
  -7192686.60849  -5577865.06945  22962352.373    22962352.747    22962366.034
       214.000         153.000
 -27944510.33449 -21727368.55747  18852875.949    18852875.904    18852886.110
       240.000         207.000
   7413848.10849   5776972.00345  22956625.721    22956624.444    22956642.135
       206.000         145.000
 -13457651.88849 -10447901.21547  19090467.352    19090467.429    19090476.228
       241.000         209.000
 -27283023.61749 -17229795.21147  19972853.607    19972853.258    19972863.322
       237.000         198.000
 -13075473.49349  -8139709.79145  22792370.400    22792370.044    22792386.479
       213.000         151.000
   5479379.50349   4269383.33846  21739223.390    21739222.494    21739235.735
       223.000         176.000
  -1992400.48849   -899347.48545  23378029.785    23378029.408    23378047.959
       203.000         140.000
 -10918187.80549  -8488850.86947  20127788.385    20127788.097    20127797.743
       242.000         207.000
 00  5  9 17  7 59.9940000  0  9G30G24G 2G 4G 5G16G 7G10G 9
  -7325843.33449  -5681623.49045  22937013.465    22937013.872    22937027.103
       219.000         156.000
 -28011298.42249 -21779411.23247  18840166.615    18840166.556    18840176.788
       240.000         207.000
   7473933.47749   5823791.44845  22968059.646    22968058.594    22968076.283
       206.000         141.000
 -13444854.99149 -10437929.68647  19092902.516    19092902.629    19092911.448
       241.000         208.000
 -27385207.63949 -17309419.11147  19953408.641    19953408.288    19953418.325
       237.000         198.000
 -13092434.37849  -8152926.14445  22789142.841    22789142.496    22789158.901
       212.000         151.000
   5512166.62049   4294931.55346  21745462.787    21745461.837    21745475.164
       223.000         177.000
  -2122362.18449  -1000616.20845  23353298.808    23353298.352    23353317.181
       208.000         140.000
 -10899200.27549  -8474055.49047  20131401.657    20131401.356    20131411.042
       242.000         207.000
 00  5  9 17  8 29.9940000  0  9G30G24G 2G 4G 5G16G 7G10G 9
  -7458995.86649  -5785378.67145  22911675.451    22911675.796    22911688.988
       218.000         159.000
 -28077555.78849 -21831040.36347  18827558.268    18827558.212    18827568.456
       241.000         207.000
   7534217.93349   5870766.03345  22979531.572    22979530.460    22979548.329
       200.000         136.000
 -13431556.69449 -10427567.44347  19095433.225    19095433.284    19095442.048
       241.000         208.000
 -27487148.81149 -17388853.77147  19934009.858    19934009.510    19934019.542
       237.000         198.000
 -13108850.50849  -8165718.02145  22786019.079    22786018.622    22786035.288
       217.000         155.000
   5544998.06649   4320514.31046  21751710.527    21751709.562    21751723.047
       223.000         177.000
  -2252444.22349  -1101978.83045  23328544.758    23328544.409    23328563.536
       209.000         140.000
 -10879747.56749  -8458897.63147  20135103.421    20135103.137    20135112.880
       242.000         207.000
 00  5  9 17  8 59.9940000  0  9G30G24G 2G 4G 5G16G 7G10G 9
  -7592142.25949  -5889129.05745  22886338.480    22886338.858    22886352.104
       218.000         160.000
 -28143281.69249 -21882255.36947  18815051.062    18815050.997    18815061.238
       240.000         207.000
   7594700.57149   5917895.00945  22991041.408    22991040.126    22991058.317
       209.000         150.000
 -13417758.91449 -10416815.99347  19098058.916    19098058.969    19098067.736
       241.000         209.000
 -27588844.39849 -17468097.06547  19914657.842    19914657.482    19914667.512
       237.000         198.000
 -13124721.42749  -8178085.06945  22782999.163    22782998.590    22783015.376
       217.000         155.000
   5577873.82449   4346131.60446  21757966.717    21757965.757    21757979.352
       223.000         177.000
  -2382643.71549  -1203432.90445  23303768.721    23303768.255    23303787.330
       205.000         138.000
 -10859831.26749  -8443378.53047  20138893.491    20138893.166    20138902.920
       242.000         207.000
 00  5  9 17  9 29.9940000  0  9G30G24G 2G 4G 5G16G 7G10G 9
  -7725278.34749  -5992871.40445  22861003.539    22861003.881    22861017.181
       220.000         160.000
 -28208473.23349 -21933053.98347  18802645.591    18802645.487    18802655.695
       241.000         207.000
   7655382.87249   5965179.55344  23002589.086    23002587.859    23002606.105
       197.000         131.000
 -13403460.93649 -10405674.77947  19100779.794    19100779.853    19100788.626
       241.000         209.000
 -27690289.77949 -17547145.40047  19895353.442    19895353.079    19895363.077
       237.000         198.000
 -13140044.63049  -8190025.34345  22780083.527    22780082.742    22780099.524
       214.000         152.000
   5610796.42149   4371785.39946  21764231.804    21764230.852    21764244.527
       223.000         177.000
  -2512955.33149  -1304974.39645  23278971.341    23278970.687    23278989.692
       206.000         140.000
 -10839450.92649  -8427497.84647  20142771.829    20142771.498    20142781.277
       242.000         208.000
 00  5  9 17  9 59.9940000  0  9G30G24G 2G 4G 5G16G 7G10G 9
  -7858401.07049  -6096603.32245  22835671.075    22835671.470    22835684.753
       219.000         161.000
 -28273128.44849 -21983434.68247  18790342.169    18790342.057    18790352.218
       240.000         207.000
   7716264.76449   6012619.71845  23014175.075    23014173.624    23014191.605
       204.000         146.000
 -13388663.73449 -10394144.56847  19103595.654    19103595.712    19103604.528
       241.000         209.000
 -27791481.62649 -17625996.17647  19876097.300    19876096.912    19876106.884
       237.000         198.000
 -13154818.53449  -8201537.60745  22777272.116    22777271.399    22777288.163
       213.000         154.000
   5643766.98949   4397476.56946  21770506.099    21770505.112    21770518.872
       224.000         177.000
  -2643375.10349  -1406600.03545  23254153.290    23254152.603    23254171.692
       203.000         138.000
 -10818607.55949  -8411256.35647  20146738.199    20146737.904    20146747.724
       242.000         207.000
 00  5  9 17 10 29.9940000  0  9G30G24G 2G 4G 5G16G 7G10G 9
  -7991510.30749  -6200324.75445  22810341.256    22810341.615    22810354.890
       219.000         162.000
 -28337248.68649 -22033398.51347  18778140.539    18778140.408    18778150.546
       240.000         207.000
   7777343.51749   6060213.09045  23025798.099    23025796.744    23025815.141
       204.000         139.000
 -13373370.95849 -10382228.19547  19106505.805    19106505.849    19106514.759
       241.000         209.000
 -27892419.52549 -17704649.06647  19856889.419    19856889.057    19856899.006
       237.000         198.000
 -13169045.16649  -8212623.40845  22774565.107    22774564.266    22774581.291
       213.000         158.000
   5676783.91149   4423203.86846  21776789.160    21776788.148    21776802.019
       222.000         177.000
  -2773901.84549  -1508309.24845  23229314.914    23229314.270    23229332.954
       201.000         139.000
 -10797304.60549  -8394656.74647  20150792.095    20150791.796    20150801.641
       243.000         207.000
 00  5  9 17 10 59.9940000  0  9G30G24G 2G 4G 5G16G 7G10G 9
  -8124617.46449  -6304044.56945  22785011.808    22785012.163    22785025.385
       217.000         159.000
 -28400846.23849 -22082955.04947  18766038.354    18766038.225    18766048.310
       240.000         207.000
   7838605.13049   6107949.13245  23037456.094    23037454.673    23037472.715
       206.000         143.000
 -13357597.43149 -10369937.20447  19109507.411    19109507.495    19109516.433
       241.000         208.000
 -27993114.10449 -17783112.35647  19837727.838    19837727.506    19837737.433
       237.000         199.000
 -13182737.10549  -8223292.57645  22771959.674    22771958.900    22771975.983
       210.000         160.000
   5709834.11449   4448957.08046  21783078.599    21783077.536    21783091.490
       223.000         177.000
  -2904545.52349  -1610109.32245  23204454.219    23204453.548    23204472.240
       206.000         145.000
 -10775557.08449  -8377710.73947  20154930.602    20154930.283    20154940.189
       242.000         207.000
 00  5  9 17 11 29.9940000  0  9G30G24G 2G 4G 5G16G 7G10G 9
  -8257702.43949  -6407747.06345  22759686.523    22759686.934    22759700.138
       217.000         158.000
 -28463902.83649 -22132090.06647  18754039.149    18754039.002    18754049.075
       240.000         207.000
   7900066.29849   6155840.50545  23049152.095    23049150.610    23049168.962
       203.000         138.000
 -13341327.45949 -10357259.37247  19112603.474    19112603.600    19112612.551
       240.000         209.000
 -28093545.25449 -17861370.38047  19818616.361    19818616.072    19818626.002
       237.000         198.000
 -13195876.58249  -8233531.21145  22769459.408    22769458.625    22769475.699
       216.000         158.000
   5742935.50749   4474750.17346  21789377.791    21789376.715    21789390.689
       223.000         175.000
  -3035285.23449  -1711984.39745  23179574.981    23179574.549    23179593.143
       208.000         133.000
 -10753349.37249  -8360406.15247  20159156.587    20159156.313    20159166.284
       242.000         207.000
 00  5  9 17 11 59.9940000  0  9G30G24G 2G 4G 5G16G 7G10G 9
  -8390768.51849  -6511434.82645  22734364.917    22734365.257    22734378.498
       214.000         158.000
 -28526422.63149 -22180806.79647  18742142.059    18742141.897    18742151.935
       240.000         207.000
   7961721.50249   6203883.14645  23060884.987    23060883.425    23060901.640
       209.000         144.000
 -13324567.84749 -10344200.00347  19115792.779    19115792.906    19115801.864
       241.000         209.000
 -28193715.39749 -17939425.02547  19799554.621    19799554.319    19799564.220
       237.000         199.000
 -13208468.09549  -8243342.88445  22767063.224    22767062.516    22767079.598
       213.000         158.000
   5776083.33449   4500579.45546  21795685.745    21795684.683    21795698.675
       223.000         175.000
  -3166122.76049  -1813935.60445  23154677.695    23154677.008    23154695.687
       204.000         145.000
 -10730688.13949  -8342748.17447  20163468.951    20163468.668    20163478.658
       242.000         206.000
 00  5  9 17 12 29.9940000  0  9G30G24G 2G 4G 5G16G 7G10G 9
  -8523835.26449  -6615123.09645  22709043.104    22709043.491    22709056.674
       215.000         157.000
 -28588426.54249 -22229121.53047  18730343.106    18730342.967    18730352.985
       240.000         207.000
   8023547.92949   6252059.20544  23072650.366    23072648.919    23072667.092
       201.000         131.000
 -13307341.94549 -10330777.28847  19119070.774    19119070.918    19119079.916
       240.000         209.000
 -28293643.76749 -18017291.27247  19780538.852    19780538.556    19780548.453
       236.000         199.000
 -13220533.38949  -8252744.48345  22764767.292    22764766.552    22764783.647
       213.000         157.000
   5809256.26949   4526428.31046  21801998.436    21801997.443    21802011.477
       223.000         176.000
  -3297076.88349  -1915977.69245  23129757.948    23129757.147    23129775.568
       209.000         138.000
 -10707596.90449  -8324755.11247  20167863.178    20167862.874    20167872.844
       242.000         205.000
 00  5  9 17 12 59.9940000  0  9G30G24G 2G 4G 5G16G 7G10G 9
  -8656880.78449  -6718794.83245  22683725.330    22683725.722    22683738.924
       216.000         155.000
 -28649894.46349 -22277018.61247  18718646.162    18718646.024    18718656.057
       240.000         207.000
   8085564.41049   6300383.35545  23084451.904    23084450.499    23084468.732
       201.000         142.000
 -13289632.03249 -10316977.42947  19122440.870    19122441.031    19122450.085
       241.000         209.000
 -28393308.30149 -18094951.94047  19761573.349    19761573.024    19761582.876
       237.000         199.000
 -13232052.37749  -8261720.38045  22762575.591    22762574.681    22762591.566
       215.000         156.000
   5842474.17749   4552312.19646  21808319.761    21808318.787    21808332.789
       222.000         175.000
  -3428125.02049  -2018093.01045  23104820.103    23104819.478    23104837.830
       201.000         139.000
 -10684057.94049  -8306413.15947  20172342.577    20172342.254    20172352.222
       242.000         205.000
 00  5  9 17 13 29.9940000  0  9G30G24G 2G 4G 5G16G 7G10G 9
  -8789915.74349  -6822458.36445  22658409.530    22658409.974    22658423.139
       217.000         156.000
 -28710838.12249 -22324507.17847  18707048.970    18707048.848    18707058.899
       239.000         207.000
   8147757.52349   6348845.13645  23096287.288    23096285.687    23096304.026
       207.000         140.000
 -13271452.33249 -10302811.49947  19125900.420    19125900.569    19125909.652
       241.000         209.000
 -28492719.11949 -18172414.90547  19742656.117    19742655.771    19742665.585
       237.000         199.000
 -13243037.19149  -8270280.02445  22760485.199    22760484.379    22760501.257
       215.000         156.000
   5875724.90349   4578221.66046  21814647.375    21814646.351    21814660.391
       223.000         174.000
  -3559276.02249  -2120288.56745  23079863.116    23079862.326    23079880.423
       203.000         143.000
 -10660085.53349  -8287733.45847  20176904.469    20176904.140    20176914.088
       242.000         205.000
 00  5  9 17 13 59.9940000  0  9G30G24G 2G 4G 5G16G 7G10G 9
  -8922937.75049  -6926111.79545  22633096.193    22633096.682    22633109.891
       218.000         159.000
 -28771256.49349 -22371586.42347  18695551.744    18695551.626    18695561.696
       240.000         207.000
   8210126.82449   6397444.19945  23108156.053    23108154.449    23108173.024
       202.000         139.000
 -13252804.36449 -10288280.67547  19129449.057    19129449.210    19129458.276
       240.000         208.000
 -28591873.25449 -18249677.85247  19723787.699    19723787.348    19723797.148
       237.000         199.000
 -13253487.66349  -8278423.31045  22758496.646    22758495.810    22758512.834
       213.000         161.000
   5909009.02349   4604157.15146  21820981.266    21820980.245    21820994.343
       223.000         173.000
  -3690526.44059  -2222561.40955  23054886.389    23054885.891    23054904.227
       205.000         146.000
 -10635681.22049  -8268717.20147  20181548.567    20181548.215    20181558.151
       242.000         204.000
 00  5  9 17 14 29.9940000  0  9G30G24G 2G 4G 5G16G 7G10G 9
  -9055944.40849  -7029753.28045  22607785.825    22607786.310    22607799.553
       221.000         157.000
 -28831148.60049 -22418255.60147  18684154.671    18684154.537    18684164.623
       239.000         207.000
   8272671.74949   6446180.11145  23120058.199    23120056.615    23120075.344
       204.000         140.000
 -13233689.53949 -10273386.06947  19133086.569    19133086.684    19133095.716
       241.000         208.000
 -28690767.88949 -18326738.59747  19704968.655    19704968.296    19704978.089
       237.000         199.000
 -13263403.14649  -8286149.74245  22756610.011    22756609.105    22756626.182
       217.000         161.000
   5942327.09749   4630119.08946  21827321.678    21827320.628    21827334.741
       224.000         173.000
  -3821872.70549  -2324909.12445  23029892.116    23029891.562    23029909.949
       197.000         138.000
 -10610846.58349  -8249365.63347  20186274.487    20186274.160    20186284.118
       241.000         204.000
 00  5  9 17 14 59.9940000  0  9G30G24G 2G 4G 5G16G 7G10G 9
  -9188926.42049  -7133375.58345  22582480.194    22582480.640    22582493.819
       220.000         160.000
 -28890507.18749 -22464509.03547  18672859.081    18672858.973    18672869.054
       239.000         206.000
   8335398.28549   6495057.50445  23131994.718    23131993.224    23132012.418
       199.000         138.000
 -13214103.00049 -10258123.89247  19136813.820    19136813.934    19136822.959
       241.000         208.000
 -28789393.77649 -18403589.92247  19686200.702    19686200.391    19686210.174
       237.000         200.000
 -13272776.54649  -8293453.75145  22754826.326    22754825.495    22754842.652
       208.000         159.000
   5975686.28149   4656113.08046  21833669.909    21833668.790    21833682.928
       222.000         172.000
  -3953304.96949  -2427323.71545  23004881.404    23004880.675    23004899.278
       202.000         146.000
 -10585576.71049  -8229674.91347  20191083.205    20191082.925    20191092.923
       241.000         205.000
 00  5  9 17 15 29.9940000  0  9G30G24G 2G 4G 5G16G 7G10G 9
  -9321890.04349  -7236983.50445  22557177.950    22557178.464    22557191.636
       219.000         161.000
 -28949339.62349 -22510352.49147  18661663.574    18661663.522    18661673.566
       239.000         206.000
   8398297.25949   6544069.27445  23143964.312    23143962.731    23143982.096
       203.000         134.000
 -13194054.79449 -10242501.98047  19140628.925    19140629.043    19140638.058
       241.000         209.000
 -28887756.47349 -18480236.17347  19667482.900    19667482.576    19667492.356
       237.000         200.000
 -13281615.87749  -8300341.57645  22753144.248    22753143.434    22753160.658
       211.000         154.000
   6009078.85749   4682133.07946  21840024.413    21840023.309    21840037.467
       222.000         171.000
  -4084827.71449  -2529808.89745  22979853.318    22979852.721    22979871.321
       203.000         140.000
 -10559881.52549  -8209652.79447  20195972.941    20195972.636    20195982.673
       242.000         205.000
 00  5  9 17 15 59.9940000  0  9G30G24G 2G 4G 5G16G 7G10G 9
  -9454818.23249  -7340563.84245  22531882.529    22531882.998    22531896.134
       218.000         161.000
 -29007630.83149 -22555774.20047  18650571.128    18650571.083    18650581.081
       239.000         206.000
   8461382.57049   6593226.30544  23155969.373    23155967.803    23155987.044
       202.000         131.000
 -13173531.86849 -10226510.15447  19144534.397    19144534.498    19144543.529
       242.000         209.000
 -28985838.76549 -18556663.92747  19648818.478    19648818.151    19648827.931
       237.000         201.000
 -13289906.29149  -8306801.70345  22751566.400    22751565.753    22751583.121
       209.000         153.000
   6042519.69549   4708190.67646  21846388.132    21846387.045    21846401.177
       222.000         173.000
  -4216423.31549  -2632350.77645  22954811.425    22954810.813    22954829.493
       201.000         143.000
 -10533748.37249  -8189289.39747  20200946.004    20200945.703    20200955.779
       242.000         205.000
 00  5  9 17 16 29.9940000  0  9G30G24G 2G 4G 5G16G 7G10G 9
  -9587712.18649  -7444117.45946  22506593.547    22506594.025    22506607.186
       216.000         163.000
 -29065383.42249 -22600776.20547  18639581.250    18639581.150    18639591.088
       239.000         206.000
   8524650.11948   6642525.15045  23168008.921    23168007.419    23168027.111
       193.000         137.000
 -13152539.58249 -10210152.60147  19148529.143    19148529.251    19148538.346
       242.000         209.000
 -29083641.31249 -18632873.69147  19630207.249    19630206.937    19630216.757
       238.000         202.000
 -13297651.03149  -8312836.60245  22750092.500    22750091.942    22750109.351
       202.000         150.000
   6076005.87949   4734283.61346  21852760.508    21852759.427    21852773.572
       221.000         172.000
  -4348091.80249  -2734949.49245  22929755.656    22929755.132    22929773.740
       205.000         145.000
 -10507182.13549  -8168588.53847  20206001.430    20206001.157    20206011.273
       241.000         205.000
 00  5  9 17 16 59.9940000  0  9G30G24G 2G 4G 5G16G 7G10G 9
  -9720556.60149  -7547632.47346  22481314.054    22481314.513    22481327.669
       219.000         163.000
 -29122583.39949 -22645347.60447  18628696.476    18628696.387    18628706.325
       239.000         206.000
   8588112.06349   6691975.67045  23180086.083    23180084.387    23180103.219
       205.000         133.000
 -13131066.43749 -10193420.35047  19152615.403    19152615.506    19152624.630
       241.000         208.000
 -29181148.17549 -18708853.05347  19611652.324    19611651.997    19611661.835
       237.000         202.000
 -13304836.83349  -8318435.96745  22748725.073    22748724.520    22748741.798
       209.000         152.000
   6109551.05949   4760422.53346  21859144.144    21859143.071    21859157.198
       223.000         172.000
  -4479816.69249  -2837592.12345  22904689.088    22904688.668    22904707.218
       204.000         140.000
 -10480171.52549  -8147541.41747  20211141.479    20211141.190    20211151.319
       241.000         204.000
 00  5  9 17 17 29.9940000  0  9G30G24G 2G 4G 5G16G 7G10G 9
  -9853366.44849  -7651120.56345  22456041.077    22456041.554    22456054.739
       216.000         160.000
 -29179247.52349 -22689501.45447  18617913.637    18617913.559    18617923.522
       239.000         206.000
   8651750.61159   6741563.67854  23192196.177    23192194.520    23192213.941
       202.000         127.000
 -13109131.41749 -10176328.18947  19156789.548    19156789.659    19156798.785
       242.000         208.000
 -29278374.20749 -18784613.58547  19593150.855    19593150.498    19593160.352
       239.000         203.000
 -13311480.96349  -8323613.26245  22747460.902    22747460.293    22747477.490
       209.000         153.000
   6143138.52249   4786594.38646  21865535.802    21865534.712    21865548.866
       223.000         171.000
  -4611611.85549  -2940289.64545  22879609.571    22879608.944    22879627.190
       199.000         143.000
 -10452735.66749  -8126162.93847  20216362.403    20216362.121    20216372.294
       241.000         204.000
 00  5  9 17 17 59.9940000  0  9G30G24G 2G 4G 5G16G 7G10G 9
  -9986142.08649  -7754581.98845  22430774.571    22430775.120    22430788.326
       212.000         157.000
 -29235377.99349 -22733239.47447  18607232.324    18607232.270    18607242.252
       238.000         206.000
   8715562.01049   6791286.47745  23204339.667    23204337.957    23204357.028
       199.000         134.000
 -13086738.96949 -10158879.58847  19161050.789    19161050.884    19161059.971
       242.000         208.000
 -29375319.44149 -18860155.31047  19574702.809    19574702.451    19574712.327
       238.000         203.000
 -13317585.64749  -8328370.18345  22746299.365    22746298.740    22746315.692
       212.000         150.000
   6176765.96349   4812797.39246  21871935.066    21871933.952    21871948.120
       222.000         171.000
  -4743476.26149  -3043040.94645  22854516.761    22854515.960    22854534.295
       206.000         150.000
 -10424879.06849  -8104456.60747  20221663.400    20221663.124    20221673.333
       241.000         204.000
 00  5  9 17 18 29.9940000  0  8G30G24G 4G 5G16G 7G10G 9
 -10118868.78549  -7858005.28145  22405517.382    22405517.958    22405531.196
       213.000         158.000
 -29290961.92149 -22776551.61747  18596655.026    18596654.986    18596664.976
       238.000         205.000
 -13063878.70949 -10141066.46647  19165401.002    19165401.109    19165410.188
       242.000         208.000
 -29471968.92149 -18935466.58447  19556311.042    19556310.672    19556320.584
       239.000         204.000
 -13323138.71149  -8332697.27245  22745242.726    22745242.088    22745258.860
       210.000         150.000
   6210445.94649   4839041.33446  21878344.276    21878343.171    21878357.338
       222.000         170.000
  -4875394.57149  -3145834.40245  22829413.250    22829412.475    22829430.790
       211.000         144.000
 -10396591.64949  -8082414.57747  20227046.414    20227046.131    20227056.367
       241.000         204.000
 00  5  9 17 18 59.9940000  0  8G30G24G 4G 5G16G 7G10G 9
 -10251555.83749  -7961397.69545  22380267.594    22380268.332    22380281.585
       214.000         158.000
 -29346010.31949 -22819446.45747  18586179.638    18586179.608    18586189.568
       236.000         204.000
 -13040563.95949 -10122899.20047  19169837.677    19169837.797    19169846.926
       241.000         209.000
 -29568331.32749 -19010554.15747  19537973.857    19537973.509    19537983.445
       238.000         203.000
 -13328151.53849  -8336603.41145  22744288.799    22744288.162    22744305.058
       209.000         152.000
   6244167.69449   4865317.83046  21884761.447    21884760.359    21884774.525
       221.000         170.000
  -5007374.80449  -3248675.97845  22804298.344    22804297.538    22804315.938
       200.000         143.000
 -10367886.69649  -8060047.20247  20232508.885    20232508.587    20232518.844
       242.000         204.000
 00  5  9 17 19 29.9940000  0  8G30G24G 4G 5G16G 7G10G 9
 -10384197.81649  -8064754.98445  22355026.545    22355027.302    22355040.527
       217.000         158.000
 -29400519.20549 -22861920.90547  18575806.938    18575806.897    18575816.825
       236.000         204.000
 -13016793.22749 -10104376.62947  19174361.144    19174361.263    19174370.434
       241.000         208.000
 -29664400.81149 -19085413.48447  19519692.428    19519692.075    19519702.035
       238.000         203.000
 -13332620.86849  -8340086.05145  22743438.070    22743437.702    22743454.767
       206.000         151.000
   6277934.92249   4891629.75546  21891187.265    21891186.191    21891200.390
       222.000         170.000
  -5139409.97149  -3351560.54145  22779172.885    22779172.106    22779190.064
       210.000         150.000
 -10338762.86149  -8037353.41647  20238051.130    20238050.780    20238061.037
       241.000         204.000
 00  5  9 17 19 59.9940000  0  8G30G24G 4G 5G16G 7G10G 9
 -10516802.83749  -8168083.47145  22329792.566    22329793.292    22329806.518
       216.000         159.000
 -29454498.79549 -22903982.91347  18565535.014    18565534.947    18565544.805
       236.000         204.000
 -12992578.88049 -10085508.37947  19178968.998    19178969.135    19178978.339
       241.000         208.000
 -29760185.41249 -19160050.82447  19501465.167    19501464.847    19501474.815
       238.000         203.000
 -13336557.09349  -8343153.29945  22742689.111    22742688.631    22742705.753
       212.000         152.000
   6311737.41749   4917969.17346  21897619.780    21897618.743    21897632.948
       220.000         170.000
  -5271507.33649  -3454493.36345  22754035.294    22754034.641    22754052.809
       210.000         142.000
 -10309232.47149  -8014342.83947  20243670.632    20243670.297    20243680.586
       241.000         204.000
 00  5  9 17 20 29.9940000  0  8G30G24G 4G 5G16G 7G10G 9
 -10649392.04949  -8271399.65145  22304561.598    22304562.276    22304575.513
       218.000         158.000
 -29507972.43549 -22945650.67647  18555359.297    18555359.238    18555369.062
       235.000         203.000
 -12967946.58649 -10066314.45447  19183656.430    19183656.562    19183665.756
       241.000         208.000
 -29855706.06149 -19234482.48447  19483288.214    19483287.880    19483297.832
       238.000         204.000
 -13339984.27249  -8345823.85345  22742037.115    22742036.583    22742053.568
       212.000         154.000
   6345551.87949   4944317.90746  21904054.547    21904053.575    21904067.823
       220.000         169.000
  -5403687.22949  -3557490.74045  22728882.334    22728881.663    22728899.562
       206.000         145.000
 -10279321.09949  -7991035.40547  20249362.669    20249362.324    20249372.641
       241.000         204.000
 00  5  9 17 20 59.9940000  0  8G30G24G 4G 5G16G 7G10G 9
 -10781925.82749  -8374672.60145  22279341.135    22279341.828    22279355.121
       218.000         158.000
 -29560901.98449 -22986894.46847  18545287.117    18545287.065    18545296.865
       235.000         202.000
 -12942860.75149 -10046767.11747  19188430.142    19188430.287    19188439.479
       242.000         207.000
 -29950922.83249 -19308677.35347  19465169.052    19465168.734    19465178.667
       239.000         203.000
 -13342864.67949  -8348068.34045  22741489.375    22741488.601    22741505.568
       216.000         156.000
   6379416.28649   4970705.57346  21910498.849    21910497.910    21910512.234
       220.000         170.000
  -5535908.80649  -3660520.35145  22703721.328    22703720.548    22703738.769
       209.000         148.000
 -10248993.21349  -7967403.40947  20255133.952    20255133.603    20255143.958
       241.000         204.000
 00  5  9 17 21 29.9940000  0  8G30G24G 4G 5G16G 7G10G 9
 -10914410.33349  -8477907.19245  22254130.078    22254130.780    22254144.064
       217.000         157.000
 -29613295.49449 -23027720.57147  18535316.907    18535316.897    18535326.676
       235.000         203.000
 -12917331.39449 -10026874.17947  19193288.336    19193288.431    19193297.581
       242.000         207.000
 -30045841.53149 -19382639.96147  19447106.579    19447106.284    19447116.214
       238.000         203.000
 -13345206.61749  -8349893.23945  22741043.535    22741042.918    22741059.970
       212.000         153.000
   6413322.84449   4997126.07046  21916951.172    21916950.257    21916964.623
       220.000         169.000
  -5668176.82849  -3763586.31945  22678551.110    22678550.603    22678568.767
       207.000         144.000
 -10218259.44049  -7943455.15047  20260982.454    20260982.140    20260992.502
       241.000         203.000
 00  5  9 17 21 59.9940000  0  8G30G24G 4G 5G16G 7G10G 9
 -11046844.83349  -8581102.82545  22228928.625    22228929.257    22228942.494
       219.000         160.000
 -29665154.18649 -23068129.93547  18525448.458    18525448.482    18525458.279
       234.000         202.000
 -12891362.25949 -10006638.55547  19198230.203    19198230.269    19198239.379
       243.000         208.000
 -30140461.01649 -19456369.41947  19429101.104    19429100.795    19429110.701
       238.000         204.000
 -13347011.99049  -8351300.00745  22740699.911    22740699.417    22740716.351
       211.000         151.000
   6447270.41449   5023578.53046  21923411.297    21923410.400    21923424.841
       221.000         170.000
  -5800489.35549  -3866686.86345  22653372.754    22653372.285    22653390.470
       206.000         145.000
 -10187123.22349  -7919193.28447  20266907.535    20266907.238    20266917.607
       240.000         203.000
 00  5  9 17 22 29.9940000  0  8G30G24G 4G 5G16G 7G10G 9
 -11179238.15349  -8684266.36246  22203735.044    22203735.606    22203748.801
       219.000         163.000
 -29716488.92849 -23108131.02047  18515679.714    18515679.764    18515689.597
       234.000         202.000
 -12864966.59549  -9986070.57247  19203253.203    19203253.263    19203262.365
       242.000         208.000
 -30234789.83449 -19529872.37847  19411150.931    19411150.603    19411160.485
       239.000         204.000
 -13348292.39649  -8352297.72145  22740456.417    22740455.762    22740472.706
       209.000         154.000
   6481247.95849   5050054.36346  21929877.122    21929876.255    21929890.807
       221.000         169.000
  -5932854.64249  -3969828.56345  22628184.285    22628183.875    22628201.988
       207.000         146.000
 -10155597.91349  -7894628.23347  20272906.636    20272906.364    20272916.767
       241.000         202.000
 00  5  9 17 22 59.9940000  0  8G30G24G 4G 5G16G 7G10G 9
 -11311580.60749  -8787390.25346  22178551.099    22178551.631    22178564.773
       219.000         164.000
 -29767292.15049 -23147717.93947  18506012.090    18506012.187    18506022.068
       233.000         201.000
 -12838138.73649  -9965165.81847  19208358.423    19208358.502    19208367.619
       242.000         208.000
 -30328818.28049 -19603141.27547  19393257.897    19393257.573    19393267.453
       239.000         204.000
 -13349040.30949  -8352880.52745  22740314.071    22740313.456    22740330.555
       208.000         155.000
   6515263.27949   5076559.63446  21936350.107    21936349.290    21936363.954
       219.000         169.000
  -6065262.05749  -4073003.04245  22602987.883    22602987.538    22603005.597
       209.000         145.000
 -10123678.19749  -7869755.87347  20278980.788    20278980.541    20278990.988
       240.000         202.000
 00  5  9 17 23 29.9940000  0  8G30G24G 4G 5G16G 7G10G 9
 -11443873.39649  -8890475.45946  22153376.497    22153377.085    22153390.260
       218.000         164.000
 -29817566.98249 -23186893.12447  18496445.095    18496445.177    18496455.053
       234.000         201.000
 -12810884.11149  -9943928.52147  19213544.866    19213544.938    19213554.084
       242.000         207.000
 -30422547.11149 -19676176.70247  19375421.846    19375421.538    19375431.448
       239.000         203.000
 -13349259.56749  -8353051.39245  22740272.284    22740271.778    22740288.905
       211.000         155.000
   6549313.68349   5103092.22846  21942829.921    21942829.010    21942843.737
       220.000         169.000
  -6197711.32749  -4176210.12545  22577783.595    22577783.212    22577801.198
       209.000         145.000
 -10091369.20049  -7844580.13647  20285129.074    20285128.831    20285139.301
       240.000         202.000
 00  5  9 17 23 59.9940000  0  8G30G24G 4G 5G16G 7G10G 9
 -11576112.71649  -8993518.98545  22128212.049    22128212.687    22128225.849
       219.000         161.000
 -29867311.66749 -23225655.21347  18486978.975    18486979.054    18486988.941
       233.000         201.000
 -12783203.26249  -9922359.10447  19218812.343    19218812.459    19218821.651
       241.000         207.000
 -30515972.63449 -19748975.78647  19357643.520    19357643.237    19357653.155
       239.000         204.000
 -13348948.85349  -8352809.22945  22740331.531    22740330.961    22740347.925
       212.000         157.000
   6583400.85349   5129653.47846  21949316.690    21949315.726    21949330.501
       218.000         169.000
  -6330197.26949  -4279445.84545  22552572.317    22552571.921    22552589.826
       207.000         143.000
 -10058671.73349  -7819101.69847  20291351.312    20291351.036    20291361.536
       240.000         201.000
 00  5  9 17 24 29.9940000  0  8G30G24G 4G 5G16G 7G10G 9
 -11708291.22649  -9096515.13445  22103059.179    22103059.883    22103073.023
       217.000         162.000
 -29916520.89849 -23264000.06947  18477614.761    18477614.822    18477624.704
       233.000         200.000
 -12755093.44049  -9900455.41647  19224161.515    19224161.628    19224170.847
       242.000         207.000
 -30609087.10449 -19821532.49047  19339924.430    19339924.142    19339934.042
       238.000         204.000
 -13348103.54149  -8352150.55345  22740492.264    22740491.827    22740508.786
       215.000         154.000
   6617530.17649   5156247.56146  21955811.409    21955810.467    21955825.318
       220.000         170.000
  -6462711.87049  -4382703.78245  22527355.589    22527355.086    22527372.982
       210.000         144.000
 -10025582.93449  -7793318.31447  20297647.973    20297647.724    20297658.247
       239.000         202.000
 00  5  9 17 24 59.9940000  0  8G30G24G 4G 5G16G 7G10G 9
 -11840417.00749  -9199470.19146  22077916.402    22077917.097    22077930.239
       220.000         163.000
 -29965205.14149 -23301935.84147  18468350.465    18468350.517    18468360.363
       233.000         200.000
 -12726566.87449  -9878226.99347  19229589.993    19229590.110    19229599.343
       242.000         207.000
 -30701898.43649 -19893852.98747  19322263.004    19322262.712    19322272.602
       238.000         203.000
 -13346734.55849  -8351083.77545  22740752.962    22740752.326    22740769.182
       211.000         157.000
   6651691.58149   5182866.65446  21962312.211    21962311.279    21962326.136
       220.000         167.000
  -6595262.25449  -4485989.64045  22502131.806    22502131.445    22502149.356
       210.000         146.000
  -9992115.32549  -7767239.74747  20304016.774    20304016.478    20304027.044
       240.000         202.000
 00  5  9 17 25 29.9940000  0  8G30G24G 4G 5G16G 7G10G 9
 -11972483.71249  -9302379.22246  22052784.916    22052785.537    22052798.689
       221.000         164.000
 -30013359.93549 -23339459.06547  18459186.912    18459186.940    18459196.784
       232.000         200.000
 -12697621.50549  -9855672.23247  19235098.185    19235098.288    19235107.535
       242.000         207.000
 -30794399.81749 -19965931.96847  19304660.575    19304660.279    19304670.151
       238.000         203.000
 -13344837.80149  -8349605.78145  22741113.982    22741113.326    22741130.310
       215.000         155.000
   6685889.75649   5209514.38746  21968819.995    21968819.119    21968833.995
       221.000         166.000
  -6727840.66449  -4589297.34945  22476902.711    22476902.551    22476920.406
       206.000         143.000
  -9958266.90149  -7740864.43847  20310458.021    20310457.710    20310468.301
       240.000         202.000
 00  5  9 17 25 59.9940000  0  8G30G24G 4G 5G16G 7G10G 9
 -12104485.00949  -9405237.30446  22027665.858    22027666.449    22027679.557
       220.000         163.000
 -30060981.36349 -23376566.67147  18450124.860    18450124.899    18450134.703
       233.000         201.000
 -12668255.56349  -9832789.74647  19240686.407    19240686.500    19240695.769
       241.000         207.000
 -30886584.88449 -20037764.46447  19287118.309    19287118.022    19287127.901
       238.000         203.000
 -13342409.83849  -8347713.82645  22741575.857    22741575.362    22741592.239
       207.000         150.000
   6720128.94449   5236194.08146  21975335.629    21975334.741    21975349.665
       217.000         167.000
  -6860439.77449  -4692621.14845  22451669.752    22451669.647    22451687.609
       203.000         146.000
  -9924035.99349  -7714191.09147  20316972.011    20316971.715    20316982.358
       240.000         202.000
 00  5  9 17 26 29.9940000  0  8G30G24G 4G 5G16G 7G10G 9
 -12236427.85149  -9508049.80545  22002557.810    22002558.465    22002571.525
       220.000         160.000
 -30108078.52049 -23413265.76247  18441162.559    18441162.598    18441172.397
       233.000         200.000
 -12638480.24049  -9809588.26747  19246352.510    19246352.596    19246361.896
       241.000         206.000
 -30978460.29849 -20109355.66747  19269635.004    19269634.696    19269644.560
       239.000         203.000
 -13339460.35749  -8345415.56045  22742136.960    22742136.541    22742153.506
       211.000         156.000
   6754400.28449   5262898.83246  21981857.419    21981856.522    21981871.524
       219.000         168.000
  -6993065.43349  -4795965.64545  22426431.791    22426431.716    22426449.656
       207.000         145.000
  -9889434.21349  -7687228.78047  20323556.616    20323556.302    20323566.989
       240.000         202.000
 00  5  9 17 26 59.9940000  0  8G30G24G 4G 5G16G 7G10G 9
 -12368303.52549  -9610809.96245  21977462.555    21977463.249    21977476.266
       218.000         160.000
 -30154644.93249 -23449551.28647  18432301.274    18432301.288    18432311.098
       233.000         200.000
 -12608291.24649  -9786064.44847  19252097.307    19252097.393    19252106.738
       241.000         206.000
 -31070017.15249 -20180698.64247  19252212.339    19252212.008    19252221.861
       239.000         204.000
 -13335983.53849  -8342706.34145  22742798.571    22742798.149    22742815.294
       211.000         156.000
   6788710.65349   5289633.99746  21988386.672    21988385.734    21988400.773
       219.000         167.000
  -7125707.98449  -4899323.26145  22401190.564    22401190.425    22401208.535
       207.000         147.000
  -9854457.10349  -7659974.01047  20330212.698    20330212.338    20330223.028
       240.000         202.000
 00  5  9 17 27 29.9940000  0  8G30G24G 4G 5G16G 7G10G 9
 -12500111.17249  -9713517.13545  21952380.328    21952381.004    21952393.920
       218.000         159.000
 -30200682.07449 -23485424.39947  18423540.658    18423540.696    18423550.505
       233.000         200.000
 -12577692.20049  -9762221.10447  19257920.131    19257920.256    19257929.571
       241.000         206.000
 -31161254.54549 -20251792.69147  19234850.455    19234850.108    19234859.926
       239.000         203.000
 -13331981.22949  -8339587.65945  22743560.224    22743559.706    22743576.876
       216.000         153.000
   6823058.81449   5316398.61346  21994923.086    21994922.135    21994937.259
       218.000         168.000
  -7258365.56849  -5002692.65745  22375946.667    22375946.461    22375964.477
       210.000         147.000
  -9819108.37549  -7632429.66347  20336939.459    20336939.088    20336949.770
       240.000         202.000
 00  5  9 17 27 59.9940000  0  8G30G24G 4G 5G16G 7G10G 9
 -12631851.28349  -9816171.67645  21927310.949    21927311.607    21927324.430
       218.000         159.000
 -30246192.77949 -23520887.29347  18414880.296    18414880.309    18414890.086
       233.000         201.000
 -12546687.97749  -9738062.03647  19263820.095    19263820.202    19263829.518
       241.000         206.000
 -31252172.66749 -20322637.95847  19217549.305    19217548.965    19217558.714
       239.000         203.000
 -13327456.63949  -8336061.98645  22744421.262    22744420.684    22744437.815
       212.000         150.000
   6857442.47049   5343190.90446  22001466.219    22001465.267    22001480.492
       216.000         167.000
  -7391037.52949  -5106073.20245  22350699.994    22350699.738    22350717.774
       208.000         147.000
  -9783392.91649  -7604599.53847  20343735.931    20343735.593    20343746.294
       240.000         201.000
 00  5  9 17 28 29.9940000  0  8G30G24G 4G 5G16G 7G10G 9
 -12763515.45949  -9918767.02745  21902255.965    21902256.647    21902269.413
       220.000         159.000
 -30291170.88249 -23555935.17847  18406321.298    18406321.288    18406331.043
       233.000         201.000
 -12515274.83449  -9713584.33947  19269797.875    19269797.974    19269807.305
       241.000         206.000
 -31342762.98249 -20393227.79647  19200310.528    19200310.190    19200319.874
       239.000         202.000
 -13322403.96149  -8332124.79545  22745382.401    22745382.046    22745399.340
       201.000         151.000
   6891868.02149   5370015.81346  22008017.310    22008016.367    22008031.647
       217.000         167.000
  -7523714.32649  -5209457.56245  22325452.497    22325452.065    22325470.061
       211.000         149.000
  -9747307.20049  -7576480.91247  20350602.893    20350602.538    20350613.273
       240.000         201.000
 00  5  9 17 28 59.9940000  0  8G30G24G 4G 5G16G 7G10G 9
 -12895101.86949 -10021301.78445  21877215.791    21877216.503    21877229.182
       222.000         160.000
 -30335616.90049 -23590568.44947  18397863.548    18397863.510    18397873.252
       232.000         201.000
 -12483454.98749  -9688789.71947  19275853.043    19275853.131    19275862.482
       241.000         205.000
 -31433023.57849 -20463560.70047  19183134.521    19183134.169    19183143.793
       239.000         203.000
 -13316825.05549  -8327777.57445  22746444.018    22746443.641    22746461.107
       211.000         152.000
   6926335.36649   5396873.29546  22014576.396    22014575.403    22014590.727
       218.000         165.000
  -7656392.91449  -5312843.27645  22300204.724    22300204.186    22300222.047
       210.000         151.000
  -9710853.90549  -7548075.86247  20357539.818    20357539.460    20357550.205
       239.000         201.000
 00  5  9 17 29 29.9940000  0  8G30G24G 4G 5G16G 7G10G 9
 -13026608.18749 -10123774.12645  21852190.948    21852191.631    21852204.174
       222.000         162.000
 -30379531.23849 -23624787.42547  18389506.961    18389506.910    18389516.631
       233.000         201.000
 -12451230.87449  -9663680.09347  19281985.109    19281985.207    19281994.577
       240.000         205.000
 -31522952.19449 -20533634.92747  19166021.701    19166021.332    19166030.884
       239.000         202.000
 -13310720.08749  -8323020.42645  22747605.778    22747605.441    22747622.815
       209.000         152.000
   6960844.78949   5423763.56146  22021143.426    22021142.452    22021157.800
       217.000         165.000
  -7789070.22649  -5416228.03045  22274957.017    22274956.471    22274974.234
       210.000         152.000
  -9674035.48849  -7519386.31347  20364546.208    20364545.872    20364556.629
       239.000         201.000
 00  5  9 17 29 59.9940000  0  8G30G24G 4G 5G16G 7G10G 9
 -13158038.39949 -10226187.16945  21827180.608    21827181.240    21827193.731
       220.000         162.000
 -30422920.02749 -23658596.88547  18381250.338    18381250.300    18381260.009
       232.000         200.000
 -12418611.12149  -9638262.17747  19288192.454    19288192.581    19288202.001
       240.000         205.000
 -31612552.37749 -20603453.22547  19148971.304    19148970.965    19148980.480
       238.000         202.000
 -13304095.85149  -8317858.69445  22748866.348    22748865.970    22748883.271
       211.000         153.000
   6995390.50249   5450682.11346  22027717.416    22027716.419    22027731.819
       217.000         165.000
  -7921749.19349  -5519614.02145  22249708.794    22249708.453    22249726.229
       209.000         151.000
  -9636860.37549  -7490418.81147  20371620.446    20371620.143    20371630.928
       239.000         201.000
 00  5  9 17 30 29.9930000  0  8G30G24G 4G 5G16G 7G10G 9
 -13289381.87349 -10328532.63646  21802186.783    21802187.358    21802199.782
       222.000         164.000
 -30465777.99749 -23691992.71647  18373094.803    18373094.720    18373104.408
       233.000         200.000
 -12385594.68249  -9612535.15947  19294475.351    19294475.452    19294484.889
       241.000         206.000
 -31701814.74149 -20673008.29347  19131985.199    19131984.874    19131994.364
       238.000         202.000
 -13296949.30549  -8312289.90745  22750226.448    22750226.049    22750243.225
       213.000         151.000
   7029975.75249   5477631.47446  22034298.825    22034297.905    22034313.323
       216.000         164.000
  -8054417.61949  -5622991.91545  22224462.853    22224462.425    22224479.999
       211.000         156.000
  -9599328.14949  -7461173.04547  20378762.677    20378762.364    20378773.210
       239.000         200.000
 00  5  9 17 30 59.9930000  0  9G30G24G 4G 5G16G 7G10G 9G 6
 -13420652.28349 -10430821.16246  21777206.811    21777207.357    21777219.785
       224.000         165.000
 -30508115.55349 -23724983.03647  18365038.240    18365038.174    18365047.854
       232.000         200.000
 -12352189.15349  -9586504.95247  19300832.290    19300832.372    19300841.801
       241.000         206.000
 -31790750.36849 -20742308.75847  19115061.285    19115060.957    19115070.455
       239.000         202.000
 -13289288.28749  -8306320.25045  22751684.102    22751683.808    22751700.928
       208.000         150.000
   7064595.77549   5504607.92546  22040886.886    22040886.069    22040901.500
       218.000         166.000
  -8187088.59149  -5726371.68445  22199216.305    22199215.829    22199233.511
       213.000         153.000
  -9561446.07549  -7431654.67347  20385971.426    20385971.137    20385982.049
       239.000         200.000
   -335556.57759   -221668.02855  23451241.209    23451241.130    23451258.235
       209.000         144.000
 00  5  9 17 31 29.9930000  0  9G30G24G 4G 5G16G 7G10G 9G 6
 -13551850.66049 -10533053.56746  21752240.597    21752241.102    21752253.503
       224.000         168.000
 -30549939.10349 -23757572.82647  18357079.541    18357079.443    18357089.139
       232.000         201.000
 -12318405.29249  -9560179.94547  19307261.174    19307261.293    19307270.745
       241.000         207.000
 -31879361.48749 -20811356.36147  19098199.110    19098198.798    19098208.294
       238.000         202.000
 -13281120.93549  -8299956.03445  22753238.298    22753237.902    22753255.088
       209.000         152.000
   7099242.12649   5531604.89746  22047479.958    22047479.172    22047494.742
       216.000         165.000
  -8319761.93949  -5829753.38045  22173969.174    22173968.810    22173986.414
       212.000         155.000
  -9523225.55149  -7401872.56847  20393244.602    20393244.353    20393255.268
       238.000         199.000
   -442433.34649   -304948.57545  23430903.470    23430904.565    23430920.404
       211.000         147.000
 00  5  9 17 31 59.9930000  0  9G30G24G 4G 5G16G 7G10G 9G 6
 -13682958.98649 -10635215.81346  21727291.476    21727291.996    21727304.331
       224.000         169.000
 -30591233.23949 -23789750.08847  18349221.526    18349221.446    18349231.180
       232.000         201.000
 -12284229.70249  -9533549.69647  19313764.657    19313764.749    19313774.262
       241.000         207.000
 -31967629.88749 -20880136.90847  19081402.105    19081401.845    19081411.356
       237.000         202.000
 -13272432.34849  -8293185.65845  22754891.980    22754891.412    22754908.360
       213.000         147.000
   7133930.79049   5558634.84946  22054081.100    22054080.296    22054095.987
       216.000         164.000
  -8452418.57249  -5933122.02945  22148725.298    22148725.015    22148742.587
       211.000         154.000
  -9484652.96549  -7371816.13847  20400584.816    20400584.541    20400595.480
       238.000         198.000
   -549272.12559   -388199.52855  23410572.862    23410573.181    23410589.450
       211.000         149.000
 00  5  9 17 32 29.9930000  0  9G30G24G 4G 5G16G 7G10G 9G 6
 -13813968.88249 -10737301.35746  21702361.135    21702361.621    21702373.979
       227.000         170.000
 -30631992.14449 -23821510.28047  18341465.421    18341465.319    18341475.066
       232.000         200.000
 -12249658.64749  -9506611.29847  19320343.343    19320343.447    19320353.007
       240.000         206.000
 -32055547.13749 -20948643.83547  19064671.942    19064671.710    19064681.244
       238.000         202.000
 -13263217.49649  -8286005.13545  22756645.259    22756644.852    22756661.671
       213.000         149.000
   7168668.28949   5585702.82546  22060691.525    22060690.733    22060706.564
       213.000         165.000
  -8585049.02849  -6036470.30245  22123486.309    22123486.083    22123503.671
       215.000         158.000
  -9445724.84449  -7341482.66147  20407992.637    20407992.399    20408003.332
       237.000         198.000
   -656066.70049   -471416.00145  23390250.651    23390251.131    23390267.482
       213.000         150.000
 00  5  9 17 32 59.9930000  0  9G30G24G 4G 5G16G 7G10G 9G 6
 -13944870.95649 -10839302.88446  21677451.236    21677451.750    21677464.075
       225.000         169.000
 -30672209.23549 -23852848.28947  18333812.330    18333812.266    18333822.016
       232.000         200.000
 -12214687.37349  -9479361.04547  19326998.179    19326998.289    19327007.880
       240.000         206.000
 -32143103.76049 -21016869.76447  19048010.452    19048010.211    19048019.780
       238.000         203.000
 -13253470.50649  -8278410.00545  22758500.066    22758499.655    22758516.637
       211.000         148.000
   7203461.76449   5612814.44946  22067312.714    22067311.846    22067327.814
       215.000         163.000
  -8717642.99249  -6139790.13345  22098254.263    22098254.125    22098271.757
       213.000         153.000
  -9406436.55249  -7310868.53547  20415468.985    20415468.774    20415479.715
       236.000         197.000
   -762809.99749   -554592.55645  23369938.116    23369938.319    23369954.941
       214.000         151.000
 00  5  9 17 33 29.9930000  0  9G30G24G 4G 5G16G 7G10G 9G 6
 -14075677.79849 -10941230.20346  21652559.443    21652559.962    21652572.302
       226.000         168.000
 -30711899.41149 -23883775.69847  18326259.525    18326259.453    18326269.221
       232.000         200.000
 -12179332.95649  -9451812.22747  19333725.979    19333726.077    19333735.681
       241.000         206.000
 -32230312.32949 -21084824.47047  19031415.217    19031414.950    19031424.531
       238.000         202.000
 -13243206.51149  -8270412.01345  22760453.064    22760452.723    22760469.714
       206.000         147.000
   7238296.76949   5639958.44246  22073941.816    22073940.882    22073956.849
       215.000         163.000
  -8850212.00249  -6243090.56745  22073027.223    22073027.003    22073044.583
       211.000         156.000
  -9366805.34349  -7279987.19447  20423010.634    20423010.420    20423021.374
       237.000         197.000
   -869516.51849   -637740.42445  23349632.516    23349632.618    23349649.156
       213.000         148.000
 00  5  9 17 33 59.9930000  0  9G30G24G 4G 5G16G 7G10G 9G 6
 -14206389.64949 -11043083.49946  21627685.768    21627686.284    21627698.557
       225.000         168.000
 -30751065.95349 -23914295.08647  18318806.334    18318806.304    18318816.069
       231.000         200.000
 -12143600.45149  -9423968.80347  19340525.737    19340525.818    19340535.413
       241.000         206.000
 -32317173.39249 -21152508.39847  19014886.082    19014885.827    19014895.406
       238.000         202.000
 -13232429.51849  -8262014.22945  22762503.784    22762503.560    22762520.493
       215.000         148.000
   7273170.93849   5667132.92245  22080578.251    22080577.340    22080593.377
       216.000         162.000
  -8982755.14049  -6346370.80445  22047804.907    22047804.711    22047822.326
       213.000         156.000
  -9326836.57349  -7248842.82847  20430616.542    20430616.304    20430627.260
       236.000         196.000
   -976188.86849   -720861.68445  23329333.471    23329333.552    23329349.978
       213.000         148.000
 00  5  9 17 34 29.9930000  0  9G30G24G 4G 5G16G 7G10G 9G 6
 -14337018.25549 -11144871.92546  21602827.843    21602828.420    21602840.627
       225.000         168.000
 -30789722.99249 -23944417.46047  18311450.128    18311450.092    18311459.863
       232.000         200.000
 -12107505.90549  -9395843.27247  19347394.369    19347394.448    19347404.037
       240.000         206.000
 -32403698.34949 -21219930.43247  18998420.935    18998420.645    18998430.220
       238.000         202.000
 -13221154.08449  -8253228.11645  22764649.398    22764649.071    22764666.254
       205.000         147.000
   7308070.79349   5694327.45145  22087219.753    22087218.709    22087234.700
       216.000         162.000
  -9115282.79049  -6449638.95745  22022585.615    22022585.394    22022603.052
       214.000         155.000
  -9286546.39549  -7217448.01247  20438283.549    20438283.333    20438294.327
       236.000         196.000
  -1082840.85849   -803967.06045  23309038.261    23309038.439    23309054.727
       211.000         146.000
 00  5  9 17 34 59.9930000  0  9G30G24G 4G 5G16G 7G10G 9G 6
 -14467538.85149 -11246576.19346  21577990.534    21577991.122    21578003.266
       225.000         170.000
 -30827848.61249 -23974125.73947  18304195.073    18304195.035    18304204.816
       232.000         200.000
 -12071029.35049  -9367420.08047  19354335.691    19354335.771    19354345.363
       241.000         205.000
 -32489862.39449 -21287071.23847  18982024.421    18982024.151    18982033.735
       237.000         202.000
 -13209358.62049  -8244036.73645  22766894.050    22766893.666    22766910.674
       212.000         151.000
   7343019.02049   5721559.63046  22093870.352    22093869.322    22093885.311
       218.000         163.000
  -9247769.45249  -6552875.22345  21997374.312    21997373.959    21997391.433
       212.000         155.000
  -9245914.63349  -7185787.02747  20446015.588    20446015.355    20446026.394
       236.000         196.000
  -1189449.99249   -887039.03745  23288751.191    23288751.307    23288767.591
       211.000         143.000
 00  5  9 17 35 29.9930000  0  9G30G24G 4G 5G16G 7G10G 9G 6
 -14597950.00449 -11348195.18546  21553173.997    21553174.629    21553186.726
       226.000         171.000
 -30865443.84549 -24003420.72647  18297040.959    18297040.904    18297050.694
       232.000         200.000
 -12034173.82549  -9338701.58847  19361349.109    19361349.195    19361358.823
       240.000         205.000
 -32575663.91149 -21353929.54147  18965696.846    18965696.609    18965706.235
       237.000         202.000
 -13197045.12149  -8234441.70545  22769236.959    22769236.750    22769253.876
       207.000         151.000
   7378015.14449   5748829.14545  22100530.008    22100529.019    22100545.009
       216.000         162.000
  -9380212.42049  -6656077.40445  21972171.233    21972170.858    21972188.359
       213.000         157.000
  -9204944.81049  -7153862.61347  20453811.953    20453811.729    20453822.828
       236.000         196.000
  -1296016.80549   -970078.04845  23268472.181    23268472.304    23268488.610
       212.000         145.000
 00  5  9 17 35 59.9930000  0  9G30G24G 4G 5G16G 7G10G 9G 6
 -14728249.07449 -11449726.85546  21528378.873    21528379.487    21528391.528
       226.000         173.000
 -30902509.27649 -24032302.88447  18289987.698    18289987.638    18289997.403
       232.000         200.000
 -11996941.59349  -9309689.56347  19368434.250    19368434.328    19368443.957
       241.000         205.000
 -32661100.65749 -21420503.62547  18949438.756    18949438.530    18949448.147
       238.000         203.000
 -13184214.42949  -8224443.74345  22771678.278    22771678.125    22771695.547
       214.000         152.000
   7413059.44249   5776136.20046  22107198.883    22107197.913    22107213.990
       216.000         164.000
  -9512608.41149  -6759242.98545  21946977.021    21946976.599    21946994.068
       215.000         157.000
  -9163639.40349  -7121676.71447  20461672.255    20461671.990    20461683.120
       237.000         196.000
  -1402541.04049  -1053083.89145  23248201.248    23248201.432    23248217.664
       214.000         149.000
 00  5  9 17 36 29.9930000  0  9G30G24G 4G 5G16G 7G10G 9G 6
 -14858447.35349 -11551179.94846  21503602.877    21503603.534    21503615.523
       226.000         173.000
 -30939058.93949 -24060783.14547  18283032.589    18283032.506    18283042.279
       232.000         200.000
 -11959348.76149  -9280396.55647  19375588.009    19375588.090    19375597.723
       241.000         205.000
 -32746184.10049 -21486802.40647  18933247.933    18933247.673    18933257.278
       238.000         203.000
 -13170881.10749  -8214054.03345  22774215.695    22774215.456    22774232.784
       209.000         152.000
   7448138.62149   5803470.43546  22113874.361    22113873.351    22113889.608
       215.000         163.000
  -9644967.51049  -6862379.80745  21921789.773    21921789.396    21921806.893
       215.000         155.000
  -9122014.85649  -7089242.13247  20469593.331    20469592.996    20469604.153
       236.000         196.000
  -1509036.36249  -1136067.18745  23227935.810    23227935.974    23227952.251
       213.000         152.000
 00  5  9 17 36 59.9930000  0  9G30G24G 4G 5G16G 7G10G 9G 6
 -14988537.21249 -11652548.56846  21478847.508    21478848.181    21478860.176
       225.000         174.000
 -30975087.77849 -24088857.56047  18276176.501    18276176.452    18276186.260
       231.000         200.000
 -11921391.71849  -9250819.74047  19382811.071    19382811.142    19382820.779
       241.000         205.000
 -32830906.11349 -21552819.53847  18917125.803    18917125.564    18917135.203
       237.000         203.000
 -13157040.60349  -8203269.11645  22776849.290    22776849.068    22776866.509
       209.000         153.000
   7483258.91649   5830836.73846  22120557.669    22120556.656    22120572.938
       215.000         164.000
  -9777281.02349  -6965481.12045  21896611.358    21896610.891    21896628.329
       212.000         155.000
  -9080067.74149  -7056556.19747  20477575.698    20477575.351    20477586.563
       237.000         196.000
  -1615496.82349  -1219023.30545  23207676.981    23207677.181    23207693.487
       210.000         153.000
 00  5  9 17 37 29.9930000  0  9G30G24G 4G 5G16G 7G10G 9G 6
 -15118512.62249 -11753827.99646  21454113.878    21454114.573    21454126.633
       224.000         174.000
 -31010592.80549 -24116523.81347  18269420.067    18269420.055    18269429.902
       231.000         199.000
 -11883069.63449  -9220958.47747  19390103.606    19390103.673    19390113.312
       241.000         205.000
 -32915260.82749 -21618550.47347  18901073.593    18901073.376    18901083.023
       237.000         203.000
 -13142690.50449  -8192087.14045  22779580.062    22779579.783    22779597.388
       212.000         159.000
   7518423.75049   5858237.69946  22127249.510    22127248.438    22127264.888
       215.000         164.000
  -9909541.82049  -7068541.35045  21871442.764    21871442.403    21871459.853
       215.000         154.000
  -9037797.26849  -7023618.29647  20485619.584    20485619.252    20485630.511
       236.000         195.000
  -1721919.03749  -1301949.60945  23187425.500    23187425.696    23187442.039
       212.000         152.000
 00  5  9 17 37 59.9930000  0  9G30G24G 4G 5G16G 7G10G 9G 6
 -15248379.81349 -11855023.11146  21429400.948    21429401.590    21429413.629
       227.000         175.000
 -31045583.29649 -24143789.12447  18262761.592    18262761.579    18262771.433
       231.000         199.000
 -11844393.51349  -9190821.33647  19397463.498    19397463.574    19397473.228
       241.000         205.000
 -32999254.72649 -21684000.25547  18885090.133    18885089.869    18885099.482
       239.000         203.000
 -13127840.77049  -8180515.86545  22782405.724    22782405.499    22782423.175
       207.000         148.000
   7553624.76349   5885666.87245  22133948.097    22133947.095    22133963.552
       213.000         161.000
 -10041755.51649  -7171564.85245  21846283.272    21846282.848    21846300.350
       216.000         155.000
  -8995214.72849  -6990437.22547  20493722.878    20493722.549    20493733.848
       236.000         195.000
  -1828311.69849  -1384852.92245  23167179.596    23167179.801    23167196.209
       216.000         153.000
 00  5  9 17 38 29.9930000  0  9G30G24G 4G 5G16G 7G10G 9G 6
 -15378144.08449 -11956138.05546  21404707.566    21404708.228    21404720.185
       228.000         175.000
 -31080067.23749 -24170659.73347  18256199.477    18256199.505    18256209.340
       232.000         199.000
 -11805372.93749  -9160415.80647  19404888.966    19404889.026    19404898.704
       241.000         205.000
 -33082893.02349 -21749172.95147  18869174.253    18869174.006    18869183.629
       239.000         202.000
 -13112499.79249  -8168561.77945  22785324.934    22785324.701    22785342.353
       219.000         158.000
   7588854.93649   5913118.73945  22140652.347    22140651.304    22140667.826
       213.000         160.000
 -10173925.93449  -7274554.66645  21821131.992    21821131.521    21821148.947
       213.000         152.000
  -8952329.99749  -6957020.69047  20501883.671    20501883.331    20501894.677
       236.000         195.000
  -1934682.11149  -1467738.93645  23146937.920    23146938.175    23146954.584
       213.000         153.000
 00  5  9 17 38 59.9930000  0  9G30G24G 4G 5G16G 7G10G 9G 6
 -15507779.80549 -12057152.84446  21380038.686    21380039.328    21380051.228
       228.000         175.000
 -31114021.96749 -24197117.97647  18249738.063    18249738.107    18249747.969
       231.000         198.000
 -11765987.20449  -9129725.74347  19412383.899    19412383.962    19412393.643
       241.000         204.000
 -33166150.32349 -21814048.77847  18853330.882    18853330.657    18853340.264
       239.000         203.000
 -13096645.57449  -8156207.83845  22788342.253    22788341.858    22788359.423
       209.000         155.000
   7624137.74149   5940611.60545  22147366.616    22147365.574    22147382.134
       215.000         161.000
 -10306026.35349  -7377489.91745  21795994.007    21795993.587    21796010.987
       214.000         154.000
  -8909122.36749  -6923352.55047  20510105.893    20510105.562    20510116.937
       235.000         195.000
  -2041006.94149  -1550589.40345  23126704.879    23126705.188    23126721.597
       214.000         150.000
 00  5  9 17 39 29.9930000  0  9G30G24G 4G 5G16G 7G10G 9G 6
 -15637282.97549 -12158064.35746  21355394.968    21355395.643    21355407.471
       228.000         175.000
 -31147446.55249 -24223163.11847  18243377.576    18243377.621    18243387.439
       231.000         199.000
 -11726237.05549  -9098751.71847  19419948.173    19419948.233    19419957.929
       240.000         204.000
 -33249022.67349 -21878624.64247  18837560.836    18837560.590    18837570.164
       239.000         203.000
 -13080277.55849  -8143453.60545  22791456.613    22791456.409    22791474.006
       214.000         143.000
   7659475.16749   5968147.05545  22154091.306    22154090.238    22154106.772
       215.000         159.000
 -10438051.85649  -7480366.75945  21770870.349    21770869.857    21770887.234
       215.000         155.000
  -8865592.83549  -6889433.58347  20518389.407    20518389.065    20518400.453
       235.000         194.000
  -2147284.25949  -1633402.83345  23106480.983    23106481.236    23106497.644
       217.000         153.000
 00  5  9 17 39 59.9930000  0  9G30G24G 4G 5G16G 7G10G 9G 6
 -15766666.89849 -12258882.93846  21330774.001    21330774.640    21330786.432
       228.000         176.000
 -31180357.00149 -24248807.62747  18237114.958    18237114.967    18237124.774
       232.000         199.000
 -11686140.33649  -9067507.63247  19427578.387    19427578.467    19427588.194
       240.000         205.000
 -33331523.48549 -21942910.98547  18821861.495    18821861.204    18821870.772
       239.000         203.000
 -13063412.64749  -8130311.98745  22794666.181    22794665.854    22794682.723
       214.000         150.000
   7694852.02249   5995713.19845  22160823.461    22160822.374    22160838.971
       214.000         160.000
 -10570014.79049  -7583194.81345  21745758.550    21745758.076    21745775.524
       213.000         155.000
  -8821759.57649  -6855277.94347  20526730.744    20526730.369    20526741.798
       235.000         193.000
  -2253529.57549  -1716191.41145  23086263.220    23086263.433    23086279.721
       216.000         154.000
 00  5  9 17 40 29.9930000  0  9G30G24G 4G 5G16G 7G10G 9G 6
 -15895946.31949 -12359620.06946  21306172.876    21306173.508    21306185.346
       228.000         178.000
 -31212771.66849 -24274065.81747  18230946.754    18230946.700    18230956.446
       232.000         199.000
 -11645716.77749  -9036008.87447  19435270.866    19435270.916    19435280.693
       240.000         205.000
 -33413667.70449 -22006919.46447  18806229.991    18806229.683    18806239.255
       239.000         203.000
 -13046069.04549  -8116797.65345  22797966.284    22797966.097    22797983.412
       210.000         152.000
   7730251.18949   6023296.76045  22167559.898    22167558.820    22167575.317
       214.000         157.000
 -10701929.04249  -7685984.95445  21720656.020    21720655.579    21720672.945
       214.000         156.000
  -8777642.43549  -6820901.10347  20535126.040    20535125.677    20535137.154
       234.000         193.000
  -2359760.23449  -1798968.49345  23066048.213    23066048.424    23066064.634
       214.000         154.000
 00  5  9 17 40 59.9930000  0  9G30G24G 4G 5G16G 7G10G 9G 6
 -16025111.13749 -12460267.88046  21281593.541    21281594.202    21281606.084
       227.000         181.000
 -31244683.42349 -24298932.11647  18224874.153    18224874.100    18224883.834
       231.000         199.000
 -11604961.38849  -9004251.54047  19443026.446    19443026.487    19443036.321
       240.000         205.000
 -33495445.54749 -22070642.44447  18790668.199    18790667.861    18790677.425
       239.000         203.000
 -13028240.69349  -8102905.42845  22801359.268    22801358.803    22801376.076
       211.000         144.000
   7765680.52349   6050903.81645  22174302.054    22174300.907    22174317.567
       214.000         158.000
 -10833783.32749  -7788728.31245  21695564.957    21695564.478    21695581.846
       216.000         157.000
  -8733236.58949  -6786299.27747  20543576.251    20543575.913    20543587.444
       234.000         193.000
  -2465968.85349  -1881728.31645  23045837.297    23045837.526    23045853.787
       210.000         153.000
 00  5  9 17 41 29.9930000  0  9G30G24G 4G 5G16G 7G10G 9G 6
 -16154140.96949 -12560810.50846  21257039.883    21257040.572    21257052.471
       226.000         179.000
 -31276074.59249 -24323392.77247  18218900.593    18218900.562    18218910.311
       231.000         198.000
 -11563857.94349  -8972222.99147  19450848.274    19450848.302    19450858.136
       241.000         204.000
 -33576836.33649 -22134063.83647  18775180.107    18775179.723    18775189.272
       240.000         203.000
 -13009910.24549  -8088621.87445  22804847.535    22804847.046    22804864.079
       204.000         149.000
   7801158.68749   6078548.95745  22181053.436    22181052.284    22181068.934
       214.000         159.000
 -10965556.10349  -7891408.15745  21670489.414    21670488.892    21670506.159
       219.000         159.000
  -8688526.00449  -6751459.99947  20552084.368    20552084.118    20552095.705
       233.000         193.000
  -2572136.75849  -1964456.42145  23025634.031    23025634.305    23025650.669
       212.000         151.000
 00  5  9 17 41 59.9930000  0  9G30G24G 4G 5G16G 7G10G 9G 6
 -16283022.36049 -12661237.46146  21232514.462    21232515.173    21232527.122
       226.000         177.000
 -31306934.87149 -24347439.74447  18213028.045    18213028.039    18213037.815
       231.000         199.000
 -11522397.97549  -8939916.61447  19458737.994    19458737.981    19458747.789
       241.000         204.000
 -33657826.96249 -22197173.41347  18759768.152    18759767.756    18759777.230
       239.000         203.000
 -12991068.17049  -8073939.97845  22808432.941    22808432.489    22808449.932
       212.000         154.000
   7836697.20349   6106241.10145  22187816.354    22187815.203    22187831.932
       213.000         158.000
 -11097232.86049  -7994013.16545  21645432.082    21645431.588    21645448.786
       216.000         159.000
  -8643502.51849  -6716376.91347  20560652.229    20560651.913    20560663.508
       235.000         193.000
  -2678252.86349  -2047144.16445  23005440.800    23005441.022    23005457.445
       213.000         154.000
 00  5  9 17 42 29.9930000  0  9G30G24G 4G 5G16G 7G10G 9G 6
 -16411774.47049 -12761563.67246  21208013.660    21208014.358    21208026.357
       226.000         176.000
 -31337286.49049 -24371090.36147  18207252.352    18207252.336    18207262.070
       231.000         199.000
 -11480605.16649  -8907350.88747  19466691.019    19466690.986    19466700.786
       240.000         203.000
 -33738436.74349 -22259986.22447  18744428.652    18744428.233    18744437.685
       239.000         204.000
 -12971737.13449  -8058876.81845  22812111.568    22812111.157    22812128.342
       206.000         140.000
   7872274.70149   6133963.64345  22194586.611    22194585.549    22194602.224
       213.000         156.000
 -11228831.83249  -8096557.55345  21620389.429    21620388.998    21620406.209
       218.000         161.000
  -8598190.28949  -6681068.82447  20569275.039    20569274.663    20569286.269
       234.000         193.000
  -2784338.71749  -2129808.35745  22985253.257    22985253.475    22985269.804
       212.000         150.000
 00  5  9 17 42 59.9930000  0  9G30G24G 4G 5G16G 7G10G 9G 6
 -16540382.83649 -12861777.90346  21183540.211    21183540.924    21183552.918
       227.000         177.000
 -31367118.57849 -24394336.14247  18201575.489    18201575.472    18201585.209
       231.000         199.000
 -11438470.33849  -8874518.65947  19474709.039    19474709.044    19474718.873
       239.000         203.000
 -33818651.69449 -22322491.37847  18729164.272    18729163.856    18729173.267
       240.000         203.000
 -12951906.75949  -8043424.67845  22815885.025    22815884.606    22815902.030
       206.000         153.000
   7907903.37549   6161726.06045  22201366.723    22201365.646    22201382.352
       214.000         158.000
 -11360337.95849  -8199029.60346  21595364.525    21595364.068    21595381.226
       218.000         163.000
  -8552580.35249  -6645528.76647  20577954.453    20577954.058    20577965.680
       234.000         193.000
  -2890382.49649  -2212439.78645  22965073.682    22965073.915    22965090.245
       208.000         146.000
 00  5  9 17 43 29.9930000  0  9G30G24G 4G 5G16G 7G10G 9G 6
 -16668863.54949 -12961892.65946  21159091.082    21159091.793    21159103.745
       227.000         177.000
 -31396450.26649 -24417192.00447  18195993.853    18195993.868    18196003.579
       231.000         200.000
 -11396014.24349  -8841436.07947  19482788.231    19482788.246    19482798.082
       239.000         203.000
 -33898488.05149 -22384701.51547  18713971.899    18713971.509    18713980.905
       239.000         203.000
 -12931596.70149  -8027598.74645  22819749.944    22819749.579    22819767.159
       204.000         149.000
   7943565.00149   6189514.14245  22208153.122    22208152.017    22208168.681
       216.000         158.000
 -11491766.15849  -8301440.94246  21570354.443    21570353.960    21570371.067
       219.000         163.000
  -8506693.55749  -6609772.97547  20586686.507    20586686.142    20586697.795
       233.000         193.000
  -2996402.44549  -2295052.55745  22944898.637    22944898.885    22944915.271
       211.000         148.000
 00  5  9 17 43 59.9930000  0  9G30G24G 4G 5G16G 7G10G 9G 6
 -16797202.16049 -13061896.67946  21134668.997    21134669.688    21134681.632
       227.000         177.000
 -31425270.38749 -24439649.24347  18190509.642    18190509.616    18190519.292
       232.000         200.000
 -11353227.26249  -8808095.67247  19490930.417    19490930.422    19490940.271
       239.000         202.000
 -33977931.40749 -22446605.41047  18698854.303    18698853.922    18698863.324
       239.000         204.000
 -12910796.26849  -8011390.79245  22823708.014    22823707.576    22823725.205
       205.000         140.000
   7979272.06449   6217337.63545  22214948.159    22214947.022    22214963.611
       212.000         154.000
 -11623100.93349  -8403779.47046  21545362.070    21545361.661    21545378.690
       219.000         164.000
  -8460520.60749  -6573794.20847  20595473.015    20595472.647    20595484.365
       234.000         193.000
  -3102386.21149  -2377637.22845  22924730.575    22924730.802    22924747.141
       212.000         149.000
 00  5  9 17 44 29.9930000  0  9G30G24G 4G 5G16G 7G10G 9G 6
 -16925398.44449 -13161789.82146  21110274.010    21110274.689    21110286.598
       227.000         177.000
 -31453581.58449 -24461709.91447  18185122.211    18185122.173    18185131.871
       231.000         200.000
 -11310113.90749  -8774500.94847  19499134.674    19499134.692    19499144.579
       239.000         202.000
 -34056981.69049 -22508203.00747  18683811.518    18683811.149    18683820.564
       240.000         204.000
 -12889508.98749  -7994803.34845  22827759.123    22827758.577    22827776.026
       206.000         150.000
   8015022.79749   6245195.14445  22221751.382    22221750.310    22221766.887
       214.000         159.000
 -11754341.06149  -8506044.26446  21520387.782    21520387.393    21520404.246
       218.000         164.000
  -8414066.07549  -6537596.03047  20604313.183    20604312.758    20604324.526
       234.000         193.000
  -3208335.92549  -2460195.29745  22904568.883    22904569.127    22904585.448
       208.000         149.000
 00  5  9 17 44 59.9930000  0  9G30G24G 4G 5G16G 7G10G 9G 6
 -17053461.97349 -13261579.49646  21085904.267    21085904.931    21085916.849
       227.000         177.000
 -31481396.99249 -24483384.26647  18179829.132    18179829.093    18179838.784
       231.000         200.000
 -11266688.50949  -8740663.08147  19507398.287    19507398.341    19507408.247
       239.000         202.000
 -34135648.45249 -22569501.75447  18668841.728    18668841.340    18668850.797
       239.000         204.000
 -12867747.97849  -7977846.89945  22831899.522    22831899.356    22831917.293
       202.000         143.000
   8050805.37749   6273077.48845  22228560.832    22228559.746    22228576.199
       212.000         154.000
 -11885494.96849  -8608241.86746  21495429.799    21495429.457    21495446.293
       217.000         163.000
  -8367344.73849  -6501189.95447  20613204.103    20613203.670    20613215.445
       234.000         193.000
  -3314263.57149  -2542736.15545  22884411.348    22884411.602    22884428.013
       206.000         143.000
 00  5  9 17 45 29.9930000  0  9G30G24G 4G 5G16G 7G10G 9G 6
 -17181378.13749 -13361254.33246  21061562.520    21061563.181    21061575.122
       227.000         178.000
 -31508705.05649 -24504663.28147  18174632.611    18174632.548    18174642.269
       231.000         200.000
 -11222941.26049  -8706574.41947  19515723.180    19515723.229    19515733.157
       239.000         201.000
 -34213917.60649 -22630490.68247  18653947.568    18653947.199    18653956.661
       239.000         204.000
 -12845502.68649  -7960512.86045  22836132.976    22836132.565    22836150.283
       206.000         148.000
   8086632.50649   6300994.52945  22235378.523    22235377.515    22235394.065
       212.000         157.000
 -12016547.27749  -8710360.33646  21470491.101    21470490.870    21470507.606
       217.000         165.000
  -8320346.97449  -6464568.47947  20622147.636    20622147.196    20622158.946
       233.000         192.000
  -3420156.86449  -2625250.29145  22864260.424    22864260.745    22864277.073
       213.000         151.000
 00  5  9 17 45 59.9930000  0  9G30G24G 4G 5G16G 7G10G 9G 6
 -17309134.10049 -13460804.33646  21037251.290    21037251.949    21037263.920
       226.000         178.000
 -31535496.52849 -24525539.76847  18169534.369    18169534.316    18169544.074
       232.000         201.000
 -11178864.27149  -8672228.80547  19524110.819    19524110.866    19524120.816
       238.000         201.000
 -34291776.93049 -22691160.26847  18639131.405    18639131.054    18639140.557
       239.000         205.000
 -12822764.02549  -7942794.46345  22840459.877    22840459.592    22840477.492
       203.000         154.000
   8122514.67049   6328954.46045  22242206.771    22242205.787    22242222.469
       213.000         158.000
 -12147484.44249  -8812389.07646  21445574.267    21445574.138    21445590.836
       218.000         164.000
  -8273065.24049  -6427725.72847  20631145.068    20631144.722    20631156.486
       233.000         191.000
  -3526005.49549  -2707729.57045  22844118.036    22844118.338    22844134.624
       212.000         151.000
 00  5  9 17 46 29.9930000  0  9G30G24G 4G 5G16G 7G10G 9G 6
 -17436742.60449 -13560239.42346  21012968.067    21012968.753    21012980.755
       226.000         178.000
 -31561787.20149 -24546026.02047  18164531.463    18164531.405    18164541.191
       232.000         201.000
 -11134474.97349  -8637639.83147  19532557.894    19532557.942    19532567.936
       238.000         202.000
 -34369239.04549 -22751520.33747  18624390.816    18624390.479    18624400.016
       239.000         205.000
 -12799548.67149  -7924704.71445  22844877.741    22844877.322    22844895.478
       214.000         155.000
   8158437.20749   6356945.86045  22249042.755    22249041.786    22249058.558
       213.000         159.000
 -12278317.52149  -8914336.74046  21420677.401    21420677.296    21420693.846
       219.000         164.000
  -8225517.21349  -6390675.47947  20640193.276    20640192.890    20640204.705
       233.000         190.000
  -3631824.25749  -2790185.58445  22823981.335    22823981.661    22823997.894
       213.000         153.000
 00  5  9 17 46 59.9930000  0  9G30G24G 4G 5G16G 7G10G 9G 6
 -17564202.86049 -13659559.00746  20988713.128    20988713.800    20988725.801
       226.000         178.000
 -31587579.73449 -24566124.10947  18159623.375    18159623.285    18159633.105
       232.000         201.000
 -11089777.51649  -8602810.73347  19541063.594    19541063.658    19541073.708
       238.000         202.000
 -34446303.40249 -22811570.46647  18609725.886    18609725.601    18609735.169
       239.000         205.000
 -12775859.69249  -7906245.60845  22849385.524    22849385.262    22849402.980
       203.000         148.000
   8194398.91249   6384967.78545  22255886.115    22255885.227    22255902.059
       214.000         158.000
 -12409045.10349  -9016202.19546  21395800.606    21395800.555    21395816.951
       217.000         163.000
  -8177707.28449  -6353421.14047  20649291.293    20649290.902    20649302.742
       233.000         190.000
  -3737614.98749  -2872619.70445  22803849.902    22803850.210    22803866.545
       213.000         151.000
 00  5  9 17 47 29.9930000  0  9G30G24G 4G 5G16G 7G10G 9G 6
 -17691502.01849 -13758753.05846  20964488.855    20964489.481    20964501.504
       227.000         178.000
 -31612864.96749 -24585826.90347  18154811.765    18154811.671    18154821.530
       231.000         201.000
 -11044764.16349  -8567735.48347  19549629.464    19549629.498    19549639.594
       238.000         202.000
 -34522957.96949 -22871301.27947  18595139.053    18595138.743    18595148.269
       240.000         205.000
 -12751688.31649  -7887410.78245  22853984.982    22853984.763    22854002.787
       208.000         156.000
   8230409.93749   6413028.13545  22262738.991    22262738.057    22262754.974
       212.000         158.000
 -12539653.73849  -9117974.98346  21370946.495    21370946.408    21370962.692
       219.000         165.000
  -8129628.07449  -6315956.97547  20658440.579    20658440.203    20658451.998
       233.000         190.000
  -3843367.62249  -2955024.17945  22783725.702    22783726.032    22783742.204
       213.000         151.000
 00  5  9 17 47 59.9930000  0  9G30G24G 4G 5G16G 7G10G 9G 6
 -17818642.82349 -13857823.70446  20940294.676    20940295.281    20940307.350
       227.000         178.000
 -31637648.78649 -24605138.98947  18150095.528    18150095.468    18150105.344
       231.000         200.000
 -10999442.28349  -8532419.81447  19558254.037    19558254.055    19558264.161
       238.000         201.000
 -34599205.32949 -22930714.77747  18580629.633    18580629.335    18580638.871
       237.000         205.000
 -12727041.39149  -7868205.39345  22858675.319    22858675.009    22858693.168
       207.000         153.000
   8266465.84249   6441123.43145  22269600.301    22269599.397    22269616.513
       211.000         157.000
 -12670145.05649  -9219656.37646  21346114.699    21346114.603    21346130.814
       219.000         165.000
  -8081287.05949  -6278288.81047  20667639.781    20667639.324    20667651.100
       233.000         189.000
  -3949086.73649  -3037402.50445  22763607.842    22763608.231    22763624.379
       211.000         150.000
 00  5  9 17 48 29.9930000  0  9G30G24G 4G 5G16G 7G10G 9G 6
 -17945612.23549 -13956760.80746  20916133.159    20916133.729    20916145.784
       227.000         178.000
 -31661921.84349 -24624053.07947  18145476.538    18145476.479    18145486.363
       232.000         201.000
 -10953803.78349  -8496857.43347  19566938.836    19566938.848    19566948.962
       238.000         201.000
 -34675033.00949 -22989801.25447  18566200.097    18566199.811    18566209.331
       238.000         205.000
 -12701909.68649  -7848622.13745  22863457.647    22863457.343    22863475.092
       210.000         142.000
   8302577.23749   6469261.98145  22276472.124    22276471.282    22276488.437
       213.000         158.000
 -12800504.89949  -9321235.33846  21321307.863    21321307.781    21321323.988
       219.000         165.000
  -8032676.46749  -6240410.58647  20676890.165    20676889.749    20676901.522
       233.000         190.000
  -4054761.95949  -3119746.59745  22743498.369    22743498.795    22743514.898
       217.000         156.000
 00  5  9 17 48 59.9930000  0  9G30G24G 4G 5G16G 7G10G 9G 6
 -18072421.02749 -14055572.75046  20892002.153    20892002.738    20892014.771
       228.000         178.000
 -31685698.01549 -24642579.97847  18140952.040    18140952.006    18140961.939
       231.000         200.000
 -10907864.08149  -8461060.34147  19575680.886    19575680.948    19575691.065
       238.000         200.000
 -34750452.15949 -23048569.38847  18551848.347    18551848.023    18551857.526
       238.000         205.000
 -12676308.08549  -7828672.76045  22868329.872    22868329.359    22868347.069
       210.000         156.000
   8338731.51349   6497433.93545  22283352.238    22283351.354    22283368.562
       209.000         155.000
 -12930742.85349  -9422719.32746  21296524.270    21296524.207    21296540.340
       217.000         165.000
  -7983812.27149  -6202334.74147  20686188.855    20686188.442    20686200.235
       233.000         189.000
  -4160406.26149  -3202066.60945  22723394.843    22723395.242    22723411.309
       216.000         158.000
